Wetterdaten: Donnerstag, 29.06.2017
Datum Zeit Temp. A. Pool Temp. Feuchte A. Luftdruck Regen Wind Richtung Richtung Sonnenschein ET UV Solar Taupunkt Windchill Windben Empfang
29.06.2017 00:00 16,6 C 26,1 C 88 % 994,0 hPa 0,0 l/m 0,7 km/h (0 Bft) S 188 0 min 0,000 mm 0,0 UV-I 0 W/m 14,6 C 16,6 C 3,2 km/h (1 Bft) 98,00 %
29.06.2017 00:02 16,6 C 26,1 C 88 % 994,0 hPa 0,0 l/m 2,0 km/h (1 Bft) S 188 0 min 0,000 mm 0,0 UV-I 0 W/m 14,6 C 16,6 C 4,8 km/h (1 Bft) 93,48 %
29.06.2017 00:04 16,6 C 26,1 C 88 % 994,1 hPa 0,0 l/m 3,1 km/h (1 Bft) SO 143 0 min 0,000 mm 0,0 UV-I 0 W/m 14,6 C 16,6 C 6,4 km/h (2 Bft) 97,37 %
29.06.2017 00:06 16,6 C 26,1 C 88 % 994,2 hPa 0,0 l/m 3,0 km/h (1 Bft) S-SO 159 0 min 0,000 mm 0,0 UV-I 0 W/m 14,6 C 16,6 C 6,4 km/h (2 Bft) 96,00 %
29.06.2017 00:08 16,6 C 26,1 C 89 % 994,2 hPa 0,0 l/m 1,4 km/h (1 Bft) S-SO 159 0 min 0,000 mm 0,0 UV-I 0 W/m 14,8 C 16,6 C 6,4 km/h (2 Bft) 96,23 %
29.06.2017 00:10 16,6 C 26,1 C 89 % 994,2 hPa 0,0 l/m 2,1 km/h (1 Bft) S 170 0 min 0,000 mm 0,0 UV-I 0 W/m 14,8 C 16,6 C 6,4 km/h (2 Bft) 97,14 %
29.06.2017 00:12 16,6 C 26,1 C 89 % 994,2 hPa 0,0 l/m 2,2 km/h (1 Bft) S 174 0 min 0,000 mm 0,0 UV-I 0 W/m 14,8 C 16,6 C 4,8 km/h (1 Bft) 96,00 %
29.06.2017 00:14 16,7 C 26,1 C 89 % 994,2 hPa 0,0 l/m 3,1 km/h (1 Bft) S-SO 167 0 min 0,000 mm 0,0 UV-I 0 W/m 14,9 C 16,7 C 6,4 km/h (2 Bft) 95,45 %
29.06.2017 00:16 16,7 C 26,1 C 89 % 994,1 hPa 0,0 l/m 1,1 km/h (1 Bft) S-SO 166 0 min 0,000 mm 0,0 UV-I 0 W/m 14,9 C 16,7 C 4,8 km/h (1 Bft) 92,68 %
29.06.2017 00:18 16,8 C 26,1 C 89 % 994,1 hPa 0,0 l/m 0,8 km/h (0 Bft) S-SO 166 0 min 0,000 mm 0,0 UV-I 0 W/m 15,0 C 16,8 C 4,8 km/h (1 Bft) 94,34 %
29.06.2017 00:20 16,8 C 26,1 C 89 % 994,0 hPa 0,0 l/m 0,1 km/h (0 Bft) S-SO 166 0 min 0,000 mm 0,0 UV-I 0 W/m 15,0 C 16,8 C 1,6 km/h (1 Bft) 97,87 %
29.06.2017 00:22 16,8 C 26,1 C 89 % 994,0 hPa 0,0 l/m 0,2 km/h (0 Bft) S-SO 166 0 min 0,000 mm 0,0 UV-I 0 W/m 15,0 C 16,8 C 1,6 km/h (1 Bft) 96,00 %
29.06.2017 00:24 16,8 C 26,1 C 89 % 994,0 hPa 0,0 l/m 2,7 km/h (1 Bft) S-SO 166 0 min 0,000 mm 0,0 UV-I 0 W/m 15,0 C 16,8 C 6,4 km/h (2 Bft) 98,00 %
29.06.2017 00:26 16,8 C 26,1 C 89 % 994,0 hPa 0,0 l/m 4,3 km/h (1 Bft) S-SO 166 0 min 0,000 mm 0,0 UV-I 0 W/m 15,0 C 16,8 C 6,4 km/h (2 Bft) 93,18 %
29.06.2017 00:28 16,7 C 26,1 C 89 % 993,9 hPa 0,0 l/m 3,1 km/h (1 Bft) S-SO 166 0 min 0,000 mm 0,0 UV-I 0 W/m 14,9 C 16,7 C 6,4 km/h (2 Bft) 96,00 %
29.06.2017 00:30 16,6 C 26,1 C 89 % 993,9 hPa 0,0 l/m 0,8 km/h (0 Bft) S-SO 166 0 min 0,000 mm 0,0 UV-I 0 W/m 14,8 C 16,6 C 1,6 km/h (1 Bft) 98,00 %
29.06.2017 00:32 16,6 C 26,1 C 89 % 993,8 hPa 0,0 l/m 0,3 km/h (0 Bft) S-SO 166 0 min 0,000 mm 0,0 UV-I 0 W/m 14,8 C 16,6 C 1,6 km/h (1 Bft) 93,62 %
29.06.2017 00:34 16,6 C 26,1 C 90 % 993,7 hPa 0,0 l/m 0,2 km/h (0 Bft) S-SO 166 0 min 0,000 mm 0,0 UV-I 0 W/m 15,0 C 16,6 C 1,6 km/h (1 Bft) 97,87 %
29.06.2017 00:36 16,6 C 26,1 C 90 % 993,8 hPa 0,0 l/m 0,0 km/h (0 Bft) S-SO 166 0 min 0,000 mm 0,0 UV-I 0 W/m 15,0 C 16,6 C 0,0 km/h (0 Bft) 95,74 %
29.06.2017 00:38 16,5 C 26,1 C 90 % 993,8 hPa 0,0 l/m 0,0 km/h (0 Bft) S-SO 166 0 min 0,000 mm 0,0 UV-I 0 W/m 14,9 C 16,5 C 0,0 km/h (0 Bft) 94,87 %
29.06.2017 00:40 16,4 C 26,1 C 90 % 993,8 hPa 0,0 l/m 0,0 km/h (0 Bft) S-SO 166 0 min 0,000 mm 0,0 UV-I 0 W/m 14,8 C 16,4 C 0,0 km/h (0 Bft) 97,87 %
29.06.2017 00:42 16,5 C 26,1 C 90 % 993,8 hPa 0,0 l/m 0,0 km/h (0 Bft) S-SO 166 0 min 0,000 mm 0,0 UV-I 0 W/m 14,9 C 16,5 C 0,0 km/h (0 Bft) 100,00 %
29.06.2017 00:44 16,5 C 26,1 C 90 % 993,8 hPa 0,0 l/m 0,0 km/h (0 Bft) S-SO 166 0 min 0,000 mm 0,0 UV-I 0 W/m 14,9 C 16,5 C 0,0 km/h (0 Bft) 96,00 %
29.06.2017 00:46 16,6 C 26,1 C 90 % 993,8 hPa 0,0 l/m 2,1 km/h (1 Bft) S-SO 166 0 min 0,000 mm 0,0 UV-I 0 W/m 15,0 C 16,6 C 6,4 km/h (2 Bft) 100,00 %
29.06.2017 00:48 16,6 C 26,1 C 90 % 993,8 hPa 0,0 l/m 3,6 km/h (1 Bft) S-SO 166 0 min 0,000 mm 0,0 UV-I 0 W/m 15,0 C 16,6 C 6,4 km/h (2 Bft) 98,11 %
29.06.2017 00:50 16,6 C 26,1 C 90 % 993,8 hPa 0,0 l/m 3,8 km/h (1 Bft) S-SO 166 0 min 0,000 mm 0,0 UV-I 0 W/m 15,0 C 16,6 C 6,4 km/h (2 Bft) 97,87 %
29.06.2017 00:52 16,5 C 26,1 C 90 % 993,8 hPa 0,0 l/m 1,8 km/h (1 Bft) S-SO 166 0 min 0,000 mm 0,0 UV-I 0 W/m 14,9 C 16,5 C 6,4 km/h (2 Bft) 100,00 %
29.06.2017 00:54 16,5 C 26,1 C 90 % 993,8 hPa 0,0 l/m 0,6 km/h (0 Bft) S-SO 166 0 min 0,000 mm 0,0 UV-I 0 W/m 14,9 C 16,5 C 4,8 km/h (1 Bft) 97,56 %
29.06.2017 00:56 16,5 C 26,1 C 90 % 993,9 hPa 0,0 l/m 0,0 km/h (0 Bft) S-SO 166 0 min 0,000 mm 0,0 UV-I 0 W/m 14,9 C 16,5 C 0,0 km/h (0 Bft) 100,00 %
29.06.2017 00:58 16,5 C 26,1 C 90 % 993,9 hPa 0,0 l/m 1,3 km/h (1 Bft) S-SO 166 0 min 0,000 mm 0,0 UV-I 0 W/m 14,9 C 16,5 C 4,8 km/h (1 Bft) 97,56 %
29.06.2017 01:00 16,4 C 26,1 C 90 % 993,9 hPa 0,0 l/m 1,7 km/h (1 Bft) S-SO 166 0 min 0,000 mm 0,0 UV-I 0 W/m 14,8 C 16,4 C 6,4 km/h (2 Bft) 100,00 %
29.06.2017 01:02 16,5 C 26,1 C 90 % 993,8 hPa 0,0 l/m 1,0 km/h (0 Bft) S-SO 166 0 min 0,000 mm 0,0 UV-I 0 W/m 14,9 C 16,5 C 4,8 km/h (1 Bft) 98,00 %
29.06.2017 01:04 16,6 C 26,1 C 90 % 993,8 hPa 0,0 l/m 0,8 km/h (0 Bft) S-SO 166 0 min 0,000 mm 0,0 UV-I 0 W/m 15,0 C 16,6 C 4,8 km/h (1 Bft) 98,00 %
29.06.2017 01:06 16,7 C 26,1 C 90 % 993,8 hPa 0,0 l/m 0,8 km/h (0 Bft) S-SO 166 0 min 0,000 mm 0,0 UV-I 0 W/m 15,0 C 16,7 C 4,8 km/h (1 Bft) 94,74 %
29.06.2017 01:08 16,7 C 26,1 C 90 % 993,8 hPa 0,0 l/m 3,9 km/h (1 Bft) S-SO 166 0 min 0,000 mm 0,0 UV-I 0 W/m 15,0 C 16,7 C 6,4 km/h (2 Bft) 100,00 %
29.06.2017 01:10 16,7 C 26,1 C 89 % 993,8 hPa 0,0 l/m 1,1 km/h (1 Bft) S-SO 166 0 min 0,000 mm 0,0 UV-I 0 W/m 14,9 C 16,7 C 4,8 km/h (1 Bft) 100,00 %
29.06.2017 01:12 16,7 C 26,1 C 89 % 993,7 hPa 0,0 l/m 0,0 km/h (0 Bft) S-SO 166 0 min 0,000 mm 0,0 UV-I 0 W/m 14,9 C 16,7 C 1,6 km/h (1 Bft) 97,87 %
29.06.2017 01:14 16,7 C 26,1 C 89 % 993,7 hPa 0,0 l/m 0,1 km/h (0 Bft) S-SO 166 0 min 0,000 mm 0,0 UV-I 0 W/m 14,9 C 16,7 C 1,6 km/h (1 Bft) 98,04 %
29.06.2017 01:16 16,8 C 26,1 C 89 % 993,7 hPa 0,0 l/m 0,0 km/h (0 Bft) S-SO 166 0 min 0,000 mm 0,0 UV-I 0 W/m 15,0 C 16,8 C 1,6 km/h (1 Bft) 97,87 %
29.06.2017 01:18 16,8 C 26,1 C 89 % 993,7 hPa 0,0 l/m 0,1 km/h (0 Bft) S-SO 166 0 min 0,000 mm 0,0 UV-I 0 W/m 15,0 C 16,8 C 1,6 km/h (1 Bft) 95,74 %
29.06.2017 01:20 16,8 C 26,1 C 89 % 993,7 hPa 0,0 l/m 1,4 km/h (1 Bft) S-SO 166 0 min 0,000 mm 0,0 UV-I 0 W/m 15,0 C 16,8 C 4,8 km/h (1 Bft) 96,00 %
29.06.2017 01:22 16,8 C 26,1 C 89 % 993,8 hPa 0,0 l/m 3,6 km/h (1 Bft) S-SO 166 0 min 0,000 mm 0,0 UV-I 0 W/m 15,0 C 16,8 C 6,4 km/h (2 Bft) 97,87 %
29.06.2017 01:24 16,8 C 26,1 C 89 % 993,8 hPa 0,0 l/m 2,9 km/h (1 Bft) S-SO 166 0 min 0,000 mm 0,0 UV-I 0 W/m 15,0 C 16,8 C 6,4 km/h (2 Bft) 95,74 %
29.06.2017 01:26 16,8 C 26,1 C 89 % 993,8 hPa 0,0 l/m 3,3 km/h (1 Bft) S-SO 166 0 min 0,000 mm 0,0 UV-I 0 W/m 15,0 C 16,8 C 6,4 km/h (2 Bft) 97,14 %
29.06.2017 01:28 16,8 C 26,1 C 90 % 993,8 hPa 0,0 l/m 1,0 km/h (0 Bft) S-SO 166 0 min 0,000 mm 0,0 UV-I 0 W/m 15,1 C 16,8 C 4,8 km/h (1 Bft) 96,23 %
29.06.2017 01:30 16,8 C 26,1 C 90 % 993,7 hPa 0,0 l/m 1,6 km/h (1 Bft) S-SO 166 0 min 0,000 mm 0,0 UV-I 0 W/m 15,1 C 16,8 C 4,8 km/h (1 Bft) 96,00 %
29.06.2017 01:32 16,8 C 26,1 C 90 % 993,7 hPa 0,0 l/m 3,0 km/h (1 Bft) S-SO 166 0 min 0,000 mm 0,0 UV-I 0 W/m 15,1 C 16,8 C 4,8 km/h (1 Bft) 97,87 %
29.06.2017 01:34 16,7 C 26,1 C 90 % 993,7 hPa 0,0 l/m 2,0 km/h (1 Bft) S-SO 166 0 min 0,000 mm 0,0 UV-I 0 W/m 15,0 C 16,7 C 4,8 km/h (1 Bft) 93,62 %
29.06.2017 01:36 16,7 C 26,1 C 90 % 993,7 hPa 0,0 l/m 1,5 km/h (1 Bft) S-SO 166 0 min 0,000 mm 0,0 UV-I 0 W/m 15,0 C 16,7 C 4,8 km/h (1 Bft) 95,12 %
29.06.2017 01:38 16,7 C 26,1 C 90 % 993,7 hPa 0,0 l/m 0,3 km/h (0 Bft) S-SO 166 0 min 0,000 mm 0,0 UV-I 0 W/m 15,0 C 16,7 C 1,6 km/h (1 Bft) 96,00 %
29.06.2017 01:40 16,7 C 26,1 C 90 % 993,6 hPa 0,0 l/m 0,1 km/h (0 Bft) S-SO 166 0 min 0,000 mm 0,0 UV-I 0 W/m 15,0 C 16,7 C 1,6 km/h (1 Bft) 95,74 %
29.06.2017 01:42 16,7 C 26,1 C 90 % 993,6 hPa 0,0 l/m 0,0 km/h (0 Bft) S-SO 166 0 min 0,000 mm 0,0 UV-I 0 W/m 15,0 C 16,7 C 1,6 km/h (1 Bft) 98,00 %
29.06.2017 01:44 16,7 C 26,1 C 90 % 993,6 hPa 0,0 l/m 0,4 km/h (0 Bft) S-SO 166 0 min 0,000 mm 0,0 UV-I 0 W/m 15,0 C 16,7 C 1,6 km/h (1 Bft) 95,83 %
29.06.2017 01:46 16,7 C 26,1 C 90 % 993,6 hPa 0,0 l/m 0,4 km/h (0 Bft) S-SO 166 0 min 0,000 mm 0,0 UV-I 0 W/m 15,0 C 16,7 C 4,8 km/h (1 Bft) 95,12 %
29.06.2017 01:48 16,7 C 26,1 C 90 % 993,6 hPa 0,0 l/m 0,3 km/h (0 Bft) S-SO 166 0 min 0,000 mm 0,0 UV-I 0 W/m 15,0 C 16,7 C 1,6 km/h (1 Bft) 98,00 %
29.06.2017 01:50 16,7 C 26,1 C 90 % 993,5 hPa 0,0 l/m 0,2 km/h (0 Bft) S-SO 166 0 min 0,000 mm 0,0 UV-I 0 W/m 15,0 C 16,7 C 4,8 km/h (1 Bft) 97,87 %
29.06.2017 01:52 16,8 C 26,1 C 90 % 993,5 hPa 0,0 l/m 2,2 km/h (1 Bft) S-SO 166 0 min 0,000 mm 0,0 UV-I 0 W/m 15,1 C 16,8 C 4,8 km/h (1 Bft) 95,24 %
29.06.2017 01:54 16,8 C 26,1 C 90 % 993,4 hPa 0,0 l/m 2,5 km/h (1 Bft) S-SO 166 0 min 0,000 mm 0,0 UV-I 0 W/m 15,1 C 16,8 C 4,8 km/h (1 Bft) 100,00 %
29.06.2017 01:56 16,8 C 25,6 C 90 % 993,3 hPa 0,0 l/m 0,1 km/h (0 Bft) S-SO 166 0 min 0,000 mm 0,0 UV-I 0 W/m 15,1 C 16,8 C 1,6 km/h (1 Bft) 97,37 %
29.06.2017 01:58 16,9 C 25,6 C 90 % 993,3 hPa 0,0 l/m 1,2 km/h (1 Bft) S-SO 166 0 min 0,000 mm 0,0 UV-I 0 W/m 15,2 C 16,9 C 4,8 km/h (1 Bft) 96,00 %
29.06.2017 02:00 16,9 C 25,6 C 90 % 993,2 hPa 0,0 l/m 4,4 km/h (1 Bft) S-SO 166 0 min 0,000 mm 0,0 UV-I 0 W/m 15,2 C 16,9 C 6,4 km/h (2 Bft) 100,00 %
29.06.2017 02:02 16,9 C 25,6 C 90 % 993,2 hPa 0,0 l/m 3,0 km/h (1 Bft) S-SO 166 0 min 0,000 mm 0,0 UV-I 0 W/m 15,2 C 16,9 C 4,8 km/h (1 Bft) 97,56 %
29.06.2017 02:04 16,8 C 25,6 C 90 % 993,1 hPa 0,0 l/m 3,7 km/h (1 Bft) S-SO 166 0 min 0,000 mm 0,0 UV-I 0 W/m 15,1 C 16,8 C 4,8 km/h (1 Bft) 100,00 %
29.06.2017 02:06 16,8 C 25,6 C 90 % 993,0 hPa 0,0 l/m 4,9 km/h (1 Bft) S-SO 166 0 min 0,000 mm 0,0 UV-I 0 W/m 15,1 C 16,8 C 6,4 km/h (2 Bft) 98,11 %
29.06.2017 02:08 16,8 C 25,6 C 90 % 993,0 hPa 0,0 l/m 3,7 km/h (1 Bft) S-SO 166 0 min 0,000 mm 0,0 UV-I 0 W/m 15,1 C 16,8 C 6,4 km/h (2 Bft) 100,00 %
29.06.2017 02:10 16,8 C 25,6 C 90 % 993,0 hPa 0,0 l/m 2,9 km/h (1 Bft) S-SO 166 0 min 0,000 mm 0,0 UV-I 0 W/m 15,1 C 16,8 C 4,8 km/h (1 Bft) 100,00 %
29.06.2017 02:12 16,8 C 25,6 C 91 % 992,9 hPa 0,0 l/m 3,4 km/h (1 Bft) S-SO 166 0 min 0,000 mm 0,0 UV-I 0 W/m 15,3 C 16,8 C 6,4 km/h (2 Bft) 98,00 %
29.06.2017 02:14 16,7 C 25,6 C 91 % 992,8 hPa 0,0 l/m 4,3 km/h (1 Bft) S-SO 166 0 min 0,000 mm 0,0 UV-I 0 W/m 15,2 C 16,7 C 6,4 km/h (2 Bft) 97,87 %
29.06.2017 02:16 16,8 C 25,6 C 91 % 992,7 hPa 0,0 l/m 3,8 km/h (1 Bft) S-SO 166 0 min 0,000 mm 0,0 UV-I 0 W/m 15,3 C 16,8 C 6,4 km/h (2 Bft) 98,00 %
29.06.2017 02:18 16,8 C 25,6 C 91 % 992,6 hPa 0,0 l/m 2,4 km/h (1 Bft) S-SO 166 0 min 0,000 mm 0,0 UV-I 0 W/m 15,3 C 16,8 C 4,8 km/h (1 Bft) 98,00 %
29.06.2017 02:20 16,8 C 25,6 C 91 % 992,7 hPa 0,0 l/m 2,5 km/h (1 Bft) S-SO 166 0 min 0,000 mm 0,0 UV-I 0 W/m 15,3 C 16,8 C 4,8 km/h (1 Bft) 100,00 %
29.06.2017 02:22 16,8 C 25,6 C 91 % 992,6 hPa 0,0 l/m 0,5 km/h (0 Bft) S-SO 166 0 min 0,000 mm 0,0 UV-I 0 W/m 15,3 C 16,8 C 4,8 km/h (1 Bft) 98,11 %
29.06.2017 02:24 16,8 C 25,6 C 90 % 992,5 hPa 0,0 l/m 0,1 km/h (0 Bft) S-SO 166 0 min 0,000 mm 0,0 UV-I 0 W/m 15,1 C 16,8 C 1,6 km/h (1 Bft) 96,00 %
29.06.2017 02:26 16,8 C 25,6 C 90 % 992,5 hPa 0,0 l/m 3,2 km/h (1 Bft) S-SO 167 0 min 0,000 mm 0,0 UV-I 0 W/m 15,1 C 16,8 C 6,4 km/h (2 Bft) 100,00 %
29.06.2017 02:28 16,8 C 25,6 C 91 % 992,5 hPa 0,0 l/m 1,9 km/h (1 Bft) S-SO 167 0 min 0,000 mm 0,0 UV-I 0 W/m 15,3 C 16,8 C 4,8 km/h (1 Bft) 95,12 %
29.06.2017 02:30 16,8 C 25,6 C 90 % 992,5 hPa 0,0 l/m 3,8 km/h (1 Bft) S-SO 167 0 min 0,000 mm 0,0 UV-I 0 W/m 15,1 C 16,8 C 6,4 km/h (2 Bft) 100,00 %
29.06.2017 02:32 16,8 C 25,6 C 90 % 992,4 hPa 0,0 l/m 2,0 km/h (1 Bft) S-SO 167 0 min 0,000 mm 0,0 UV-I 0 W/m 15,1 C 16,8 C 4,8 km/h (1 Bft) 97,44 %
29.06.2017 02:34 16,8 C 25,6 C 90 % 992,4 hPa 0,0 l/m 4,5 km/h (1 Bft) S-SO 167 0 min 0,000 mm 0,0 UV-I 0 W/m 15,1 C 16,8 C 6,4 km/h (2 Bft) 98,11 %
29.06.2017 02:36 16,8 C 25,6 C 90 % 992,4 hPa 0,0 l/m 2,7 km/h (1 Bft) S-SO 167 0 min 0,000 mm 0,0 UV-I 0 W/m 15,1 C 16,8 C 6,4 km/h (2 Bft) 100,00 %
29.06.2017 02:38 16,8 C 25,6 C 90 % 992,3 hPa 0,0 l/m 2,0 km/h (1 Bft) S-SO 167 0 min 0,000 mm 0,0 UV-I 0 W/m 15,1 C 16,8 C 6,4 km/h (2 Bft) 100,00 %
29.06.2017 02:40 16,8 C 25,6 C 90 % 992,3 hPa 0,0 l/m 0,9 km/h (0 Bft) S-SO 167 0 min 0,000 mm 0,0 UV-I 0 W/m 15,1 C 16,8 C 4,8 km/h (1 Bft) 97,87 %
29.06.2017 02:42 16,8 C 25,6 C 91 % 992,4 hPa 0,0 l/m 3,2 km/h (1 Bft) S-SO 167 0 min 0,000 mm 0,0 UV-I 0 W/m 15,3 C 16,8 C 4,8 km/h (1 Bft) 100,00 %
29.06.2017 02:44 16,8 C 25,6 C 90 % 992,3 hPa 0,0 l/m 3,0 km/h (1 Bft) W-SW 245 0 min 0,000 mm 0,0 UV-I 0 W/m 15,1 C 16,8 C 6,4 km/h (2 Bft) 100,00 %
29.06.2017 02:46 16,8 C 25,6 C 91 % 992,3 hPa 0,0 l/m 2,9 km/h (1 Bft) W-SW 241 0 min 0,000 mm 0,0 UV-I 0 W/m 15,3 C 16,8 C 4,8 km/h (1 Bft) 97,87 %
29.06.2017 02:48 16,8 C 25,6 C 91 % 992,3 hPa 0,0 l/m 4,2 km/h (1 Bft) W-SW 241 0 min 0,000 mm 0,0 UV-I 0 W/m 15,3 C 16,8 C 6,4 km/h (2 Bft) 94,34 %
29.06.2017 02:50 16,8 C 25,6 C 91 % 992,3 hPa 0,0 l/m 3,0 km/h (1 Bft) W-SW 241 0 min 0,000 mm 0,0 UV-I 0 W/m 15,3 C 16,8 C 4,8 km/h (1 Bft) 97,87 %
29.06.2017 02:52 16,8 C 25,6 C 91 % 992,3 hPa 0,0 l/m 4,3 km/h (1 Bft) SW 223 0 min 0,000 mm 0,0 UV-I 0 W/m 15,3 C 16,8 C 6,4 km/h (2 Bft) 100,00 %
29.06.2017 02:54 16,8 C 25,6 C 91 % 992,3 hPa 0,0 l/m 5,5 km/h (1 Bft) SW 235 0 min 0,000 mm 0,0 UV-I 0 W/m 15,3 C 16,8 C 8,0 km/h (2 Bft) 97,73 %
29.06.2017 02:56 16,7 C 25,6 C 91 % 992,4 hPa 0,0 l/m 6,1 km/h (2 Bft) S-SW 212 0 min 0,000 mm 0,0 UV-I 0 W/m 15,2 C 16,7 C 8,0 km/h (2 Bft) 100,00 %
29.06.2017 02:58 16,7 C 25,6 C 91 % 992,3 hPa 0,0 l/m 6,4 km/h (2 Bft) S-SW 203 0 min 0,000 mm 0,0 UV-I 0 W/m 15,2 C 16,7 C 8,0 km/h (2 Bft) 95,12 %
29.06.2017 03:00 16,7 C 25,6 C 91 % 992,4 hPa 0,0 l/m 6,6 km/h (2 Bft) S-SW 209 0 min 0,000 mm 0,0 UV-I 0 W/m 15,2 C 16,6 C 9,7 km/h (2 Bft) 96,00 %
29.06.2017 03:02 16,7 C 25,6 C 91 % 992,3 hPa 0,0 l/m 6,3 km/h (2 Bft) SW 231 0 min 0,000 mm 0,0 UV-I 0 W/m 15,2 C 16,7 C 9,7 km/h (2 Bft) 100,00 %
29.06.2017 03:04 16,7 C 25,6 C 91 % 992,2 hPa 0,0 l/m 5,6 km/h (1 Bft) SW 221 0 min 0,000 mm 0,0 UV-I 0 W/m 15,2 C 16,7 C 8,0 km/h (2 Bft) 97,73 %
29.06.2017 03:06 16,7 C 25,6 C 91 % 992,3 hPa 0,0 l/m 2,7 km/h (1 Bft) SW 218 0 min 0,000 mm 0,0 UV-I 0 W/m 15,2 C 16,7 C 4,8 km/h (1 Bft) 100,00 %
29.06.2017 03:08 16,7 C 25,6 C 91 % 992,3 hPa 0,0 l/m 5,1 km/h (1 Bft) S-SW 213 0 min 0,000 mm 0,0 UV-I 0 W/m 15,2 C 16,7 C 6,4 km/h (2 Bft) 100,00 %
29.06.2017 03:10 16,6 C 25,6 C 91 % 992,2 hPa 0,0 l/m 5,4 km/h (1 Bft) SW 234 0 min 0,000 mm 0,0 UV-I 0 W/m 15,1 C 16,6 C 8,0 km/h (2 Bft) 100,00 %
29.06.2017 03:12 16,6 C 25,6 C 91 % 992,2 hPa 0,0 l/m 4,9 km/h (1 Bft) SW 218 0 min 0,000 mm 0,0 UV-I 0 W/m 15,1 C 16,6 C 8,0 km/h (2 Bft) 100,00 %
29.06.2017 03:14 16,6 C 25,6 C 91 % 992,1 hPa 0,0 l/m 4,6 km/h (1 Bft) SW 225 0 min 0,000 mm 0,0 UV-I 0 W/m 15,1 C 16,6 C 8,0 km/h (2 Bft) 100,00 %
29.06.2017 03:16 16,6 C 25,6 C 91 % 992,1 hPa 0,0 l/m 3,8 km/h (1 Bft) SW 225 0 min 0,000 mm 0,0 UV-I 0 W/m 15,1 C 16,6 C 6,4 km/h (2 Bft) 100,00 %
29.06.2017 03:18 16,6 C 25,6 C 91 % 992,1 hPa 0,0 l/m 4,1 km/h (1 Bft) SW 225 0 min 0,000 mm 0,0 UV-I 0 W/m 15,1 C 16,6 C 6,4 km/h (2 Bft) 89,36 %
29.06.2017 03:20 16,6 C 25,6 C 91 % 992,1 hPa 0,0 l/m 3,7 km/h (1 Bft) SW 236 0 min 0,000 mm 0,0 UV-I 0 W/m 15,1 C 16,6 C 6,4 km/h (2 Bft) 94,74 %
29.06.2017 03:22 16,6 C 25,6 C 91 % 992,1 hPa 0,0 l/m 4,5 km/h (1 Bft) SW 225 0 min 0,000 mm 0,0 UV-I 0 W/m 15,1 C 16,6 C 6,4 km/h (2 Bft) 92,45 %
29.06.2017 03:24 16,6 C 25,6 C 91 % 992,2 hPa 0,0 l/m 5,5 km/h (1 Bft) S-SW 213 0 min 0,000 mm 0,0 UV-I 0 W/m 15,1 C 16,6 C 8,0 km/h (2 Bft) 90,57 %
29.06.2017 03:26 16,6 C 25,6 C 91 % 992,3 hPa 0,0 l/m 6,0 km/h (2 Bft) SW 222 0 min 0,000 mm 0,0 UV-I 0 W/m 15,1 C 16,6 C 11,3 km/h (2 Bft) 94,29 %
29.06.2017 03:28 16,6 C 25,6 C 91 % 992,3 hPa 0,0 l/m 7,6 km/h (2 Bft) SW 232 0 min 0,000 mm 0,0 UV-I 0 W/m 15,1 C 16,0 C 12,9 km/h (3 Bft) 92,00 %
29.06.2017 03:30 16,6 C 25,6 C 92 % 992,3 hPa 0,0 l/m 6,2 km/h (2 Bft) S-SW 213 0 min 0,000 mm 0,0 UV-I 0 W/m 15,3 C 16,6 C 11,3 km/h (2 Bft) 96,00 %
29.06.2017 03:32 16,6 C 25,6 C 91 % 992,3 hPa 0,0 l/m 6,9 km/h (2 Bft) SW 234 0 min 0,000 mm 0,0 UV-I 0 W/m 15,1 C 16,3 C 11,3 km/h (2 Bft) 91,49 %
29.06.2017 03:34 16,6 C 25,6 C 92 % 992,3 hPa 0,0 l/m 7,3 km/h (2 Bft) SW 233 0 min 0,000 mm 0,0 UV-I 0 W/m 15,3 C 16,1 C 9,7 km/h (2 Bft) 94,74 %
29.06.2017 03:36 16,6 C 25,6 C 92 % 992,3 hPa 0,0 l/m 5,2 km/h (1 Bft) SW 236 0 min 0,000 mm 0,0 UV-I 0 W/m 15,3 C 16,6 C 8,0 km/h (2 Bft) 92,45 %
29.06.2017 03:38 16,6 C 25,6 C 92 % 992,4 hPa 0,0 l/m 4,0 km/h (1 Bft) SW 215 0 min 0,000 mm 0,0 UV-I 0 W/m 15,3 C 16,6 C 8,0 km/h (2 Bft) 94,00 %
29.06.2017 03:40 16,5 C 25,6 C 92 % 992,4 hPa 0,0 l/m 6,4 km/h (2 Bft) S-SW 203 0 min 0,000 mm 0,0 UV-I 0 W/m 15,2 C 16,5 C 9,7 km/h (2 Bft) 96,00 %
29.06.2017 03:42 16,6 C 25,6 C 92 % 992,4 hPa 0,0 l/m 5,9 km/h (2 Bft) SW 227 0 min 0,000 mm 0,0 UV-I 0 W/m 15,3 C 16,6 C 9,7 km/h (2 Bft) 95,74 %
29.06.2017 03:44 16,6 C 25,6 C 92 % 992,4 hPa 0,0 l/m 5,4 km/h (1 Bft) SW 221 0 min 0,000 mm 0,0 UV-I 0 W/m 15,3 C 16,6 C 8,0 km/h (2 Bft) 94,44 %
29.06.2017 03:46 16,6 C 25,6 C 92 % 992,5 hPa 0,0 l/m 5,6 km/h (1 Bft) SW 228 0 min 0,000 mm 0,0 UV-I 0 W/m 15,3 C 16,6 C 8,0 km/h (2 Bft) 92,73 %
29.06.2017 03:48 16,6 C 25,6 C 92 % 992,5 hPa 0,0 l/m 4,5 km/h (1 Bft) SW 221 0 min 0,000 mm 0,0 UV-I 0 W/m 15,3 C 16,6 C 6,4 km/h (2 Bft) 93,62 %
29.06.2017 03:50 16,6 C 25,6 C 92 % 992,5 hPa 0,0 l/m 5,1 km/h (1 Bft) S-SW 211 0 min 0,000 mm 0,0 UV-I 0 W/m 15,3 C 16,6 C 9,7 km/h (2 Bft) 95,83 %
29.06.2017 03:52 16,6 C 25,6 C 92 % 992,5 hPa 0,0 l/m 4,9 km/h (1 Bft) S-SW 210 0 min 0,000 mm 0,0 UV-I 0 W/m 15,3 C 16,6 C 8,0 km/h (2 Bft) 95,12 %
29.06.2017 03:54 16,6 C 25,6 C 92 % 992,5 hPa 0,0 l/m 5,9 km/h (2 Bft) SW 215 0 min 0,000 mm 0,0 UV-I 0 W/m 15,3 C 16,6 C 9,7 km/h (2 Bft) 92,68 %
29.06.2017 03:56 16,6 C 25,6 C 92 % 992,5 hPa 0,0 l/m 4,8 km/h (1 Bft) S 187 0 min 0,000 mm 0,0 UV-I 0 W/m 15,3 C 16,6 C 8,0 km/h (2 Bft) 98,21 %
29.06.2017 03:58 16,6 C 25,6 C 92 % 992,5 hPa 0,0 l/m 3,3 km/h (1 Bft) SW 229 0 min 0,000 mm 0,0 UV-I 0 W/m 15,3 C 16,6 C 6,4 km/h (2 Bft) 98,00 %
29.06.2017 04:00 16,6 C 25,6 C 92 % 992,5 hPa 0,0 l/m 2,3 km/h (1 Bft) SW 225 0 min 0,000 mm 0,0 UV-I 0 W/m 15,3 C 16,6 C 4,8 km/h (1 Bft) 94,74 %
29.06.2017 04:02 16,6 C 25,6 C 92 % 992,5 hPa 0,0 l/m 3,0 km/h (1 Bft) S-SW 196 0 min 0,000 mm 0,0 UV-I 0 W/m 15,3 C 16,6 C 8,0 km/h (2 Bft) 100,00 %
29.06.2017 04:04 16,6 C 25,6 C 92 % 992,4 hPa 0,0 l/m 4,2 km/h (1 Bft) SW 226 0 min 0,000 mm 0,0 UV-I 0 W/m 15,3 C 16,6 C 8,0 km/h (2 Bft) 97,87 %
29.06.2017 04:06 16,6 C 25,6 C 92 % 992,4 hPa 0,0 l/m 4,1 km/h (1 Bft) SW 226 0 min 0,000 mm 0,0 UV-I 0 W/m 15,3 C 16,6 C 6,4 km/h (2 Bft) 97,87 %
29.06.2017 04:08 16,7 C 25,6 C 92 % 992,5 hPa 0,0 l/m 4,3 km/h (1 Bft) SW 225 0 min 0,000 mm 0,0 UV-I 0 W/m 15,4 C 16,7 C 8,0 km/h (2 Bft) 92,00 %
29.06.2017 04:10 16,7 C 25,6 C 92 % 992,5 hPa 0,0 l/m 3,7 km/h (1 Bft) S-SW 201 0 min 0,000 mm 0,0 UV-I 0 W/m 15,4 C 16,7 C 8,0 km/h (2 Bft) 96,23 %
29.06.2017 04:12 16,7 C 25,6 C 92 % 992,5 hPa 0,0 l/m 4,0 km/h (1 Bft) S-SW 213 0 min 0,000 mm 0,0 UV-I 0 W/m 15,4 C 16,7 C 6,4 km/h (2 Bft) 95,12 %
29.06.2017 04:14 16,7 C 25,6 C 92 % 992,5 hPa 0,0 l/m 3,5 km/h (1 Bft) S-SW 213 0 min 0,000 mm 0,0 UV-I 0 W/m 15,4 C 16,7 C 6,4 km/h (2 Bft) 95,74 %
29.06.2017 04:16 16,7 C 25,6 C 92 % 992,6 hPa 0,0 l/m 5,3 km/h (1 Bft) SW 225 0 min 0,000 mm 0,0 UV-I 0 W/m 15,4 C 16,7 C 6,4 km/h (2 Bft) 98,00 %
29.06.2017 04:18 16,7 C 25,6 C 92 % 992,6 hPa 0,0 l/m 4,7 km/h (1 Bft) S-SW 213 0 min 0,000 mm 0,0 UV-I 0 W/m 15,4 C 16,7 C 8,0 km/h (2 Bft) 93,62 %
29.06.2017 04:20 16,7 C 25,6 C 92 % 992,6 hPa 0,0 l/m 5,5 km/h (1 Bft) SW 214 0 min 0,000 mm 0,0 UV-I 0 W/m 15,4 C 16,7 C 8,0 km/h (2 Bft) 97,87 %
29.06.2017 04:22 16,7 C 25,6 C 92 % 992,7 hPa 0,0 l/m 6,4 km/h (2 Bft) SW 225 0 min 0,000 mm 0,0 UV-I 0 W/m 15,4 C 16,7 C 9,7 km/h (2 Bft) 97,56 %
29.06.2017 04:24 16,7 C 25,6 C 92 % 992,7 hPa 0,0 l/m 8,5 km/h (2 Bft) SW 231 0 min 0,000 mm 0,0 UV-I 0 W/m 15,4 C 15,6 C 12,9 km/h (3 Bft) 100,00 %
29.06.2017 04:26 16,7 C 25,6 C 92 % 992,7 hPa 0,0 l/m 8,6 km/h (2 Bft) SW 236 0 min 0,000 mm 0,0 UV-I 0 W/m 15,4 C 15,6 C 11,3 km/h (2 Bft) 96,23 %
29.06.2017 04:28 16,7 C 25,6 C 92 % 992,8 hPa 0,0 l/m 8,3 km/h (2 Bft) SW 223 0 min 0,000 mm 0,0 UV-I 0 W/m 15,4 C 15,7 C 12,9 km/h (3 Bft) 97,62 %
29.06.2017 04:30 16,7 C 25,6 C 92 % 992,9 hPa 0,0 l/m 8,2 km/h (2 Bft) S-SW 197 0 min 0,000 mm 0,0 UV-I 0 W/m 15,4 C 15,8 C 11,3 km/h (2 Bft) 97,56 %
29.06.2017 04:32 16,7 C 25,6 C 92 % 992,9 hPa 0,2 l/m 8,5 km/h (2 Bft) SW 231 0 min 0,000 mm 0,0 UV-I 0 W/m 15,4 C 15,6 C 14,5 km/h (3 Bft) 98,31 %
29.06.2017 04:34 16,6 C 25,6 C 92 % 993,0 hPa 0,0 l/m 10,1 km/h (2 Bft) W-SW 244 0 min 0,000 mm 0,0 UV-I 0 W/m 15,3 C 14,8 C 14,5 km/h (3 Bft) 97,56 %
29.06.2017 04:36 16,6 C 25,6 C 92 % 993,0 hPa 0,0 l/m 9,5 km/h (2 Bft) SW 215 0 min 0,000 mm 0,0 UV-I 0 W/m 15,3 C 15,1 C 14,5 km/h (3 Bft) 100,00 %
29.06.2017 04:38 16,6 C 25,6 C 92 % 993,0 hPa 0,0 l/m 10,6 km/h (2 Bft) SW 225 0 min 0,000 mm 0,0 UV-I 0 W/m 15,3 C 14,6 C 17,7 km/h (3 Bft) 95,74 %
29.06.2017 04:40 16,6 C 25,6 C 92 % 993,1 hPa 0,0 l/m 6,7 km/h (2 Bft) S-SW 196 0 min 0,000 mm 0,0 UV-I 0 W/m 15,3 C 16,5 C 12,9 km/h (3 Bft) 95,74 %
29.06.2017 04:42 16,6 C 25,6 C 92 % 993,2 hPa 0,0 l/m 9,7 km/h (2 Bft) SW 218 0 min 0,000 mm 0,0 UV-I 0 W/m 15,3 C 15,0 C 14,5 km/h (3 Bft) 100,00 %
29.06.2017 04:44 16,5 C 25,6 C 92 % 993,2 hPa 0,0 l/m 7,8 km/h (2 Bft) SW 220 0 min 0,000 mm 0,0 UV-I 0 W/m 15,2 C 15,8 C 12,9 km/h (3 Bft) 98,21 %
29.06.2017 04:46 16,5 C 25,6 C 92 % 993,4 hPa 0,0 l/m 8,9 km/h (2 Bft) SW 218 0 min 0,000 mm 0,0 UV-I 0 W/m 15,2 C 15,3 C 14,5 km/h (3 Bft) 100,00 %
29.06.2017 04:48 16,5 C 25,6 C 92 % 993,4 hPa 0,0 l/m 11,7 km/h (2 Bft) SW 232 0 min 0,000 mm 0,0 UV-I 0 W/m 15,2 C 14,1 C 17,7 km/h (3 Bft) 100,00 %
29.06.2017 04:50 16,5 C 25,6 C 92 % 993,4 hPa 0,0 l/m 13,2 km/h (3 Bft) W-SW 248 0 min 0,000 mm 0,0 UV-I 0 W/m 15,2 C 13,6 C 19,3 km/h (3 Bft) 97,56 %
29.06.2017 04:52 16,5 C 25,6 C 92 % 993,4 hPa 0,0 l/m 11,8 km/h (2 Bft) S-SW 213 0 min 0,000 mm 0,0 UV-I 0 W/m 15,2 C 14,1 C 17,7 km/h (3 Bft) 100,00 %
29.06.2017 04:54 16,5 C 25,6 C 92 % 993,4 hPa 0,0 l/m 10,2 km/h (2 Bft) SW 236 0 min 0,000 mm 0,0 UV-I 0 W/m 15,2 C 14,7 C 20,9 km/h (4 Bft) 94,44 %
29.06.2017 04:56 16,4 C 25,6 C 92 % 993,4 hPa 0,0 l/m 10,4 km/h (2 Bft) SW 236 0 min 0,000 mm 0,0 UV-I 0 W/m 15,1 C 14,5 C 16,1 km/h (3 Bft) 100,00 %
29.06.2017 04:58 16,4 C 25,6 C 92 % 993,4 hPa 0,0 l/m 11,8 km/h (2 Bft) W-SW 241 0 min 0,000 mm 0,0 UV-I 0 W/m 15,1 C 14,0 C 17,7 km/h (3 Bft) 98,00 %
29.06.2017 05:00 16,4 C 25,6 C 92 % 993,5 hPa 0,0 l/m 15,1 km/h (3 Bft) SW 221 0 min 0,000 mm 0,0 UV-I 0 W/m 15,1 C 12,9 C 25,7 km/h (4 Bft) 100,00 %
29.06.2017 05:02 16,4 C 25,6 C 92 % 993,5 hPa 0,0 l/m 14,2 km/h (3 Bft) W-SW 244 0 min 0,000 mm 0,0 UV-I 0 W/m 15,1 C 13,1 C 20,9 km/h (4 Bft) 98,11 %
29.06.2017 05:04 16,5 C 25,6 C 91 % 993,4 hPa 0,0 l/m 14,6 km/h (3 Bft) W-SW 237 0 min 0,000 mm 0,0 UV-I 0 W/m 15,0 C 13,1 C 24,1 km/h (4 Bft) 95,74 %
29.06.2017 05:06 16,5 C 25,6 C 91 % 993,5 hPa 0,0 l/m 15,8 km/h (3 Bft) SW 236 0 min 0,000 mm 0,0 UV-I 0 W/m 15,0 C 12,8 C 25,7 km/h (4 Bft) 100,00 %
29.06.2017 05:08 16,6 C 25,6 C 91 % 993,5 hPa 0,0 l/m 14,3 km/h (3 Bft) SW 222 0 min 0,000 mm 0,0 UV-I 0 W/m 15,1 C 13,3 C 24,1 km/h (4 Bft) 98,28 %
29.06.2017 05:10 16,6 C 25,0 C 91 % 993,6 hPa 0,0 l/m 18,3 km/h (3 Bft) W-SW 257 0 min 0,000 mm 0,0 UV-I 0 W/m 15,1 C 12,2 C 29,0 km/h (5 Bft) 100,00 %
29.06.2017 05:12 16,6 C 25,0 C 91 % 993,7 hPa 0,0 l/m 18,1 km/h (3 Bft) W-SW 248 0 min 0,000 mm 0,0 UV-I 0 W/m 15,1 C 12,3 C 25,7 km/h (4 Bft) 94,74 %
29.06.2017 05:14 16,6 C 25,0 C 90 % 993,8 hPa 0,0 l/m 17,4 km/h (3 Bft) SW 229 0 min 0,000 mm 0,0 UV-I 5 W/m 15,0 C 12,5 C 24,1 km/h (4 Bft) 100,00 %
29.06.2017 05:16 16,6 C 25,6 C 90 % 993,7 hPa 0,0 l/m 14,5 km/h (3 Bft) SW 231 0 min 0,000 mm 0,0 UV-I 5 W/m 15,0 C 13,3 C 27,4 km/h (4 Bft) 98,00 %
29.06.2017 05:18 16,7 C 25,0 C 90 % 993,8 hPa 0,0 l/m 16,1 km/h (3 Bft) SW 217 0 min 0,000 mm 0,0 UV-I 6 W/m 15,0 C 12,9 C 24,1 km/h (4 Bft) 94,34 %
29.06.2017 05:20 16,7 C 25,0 C 90 % 993,8 hPa 0,0 l/m 13,2 km/h (3 Bft) W-SW 242 0 min 0,000 mm 0,0 UV-I 9 W/m 15,0 C 13,8 C 20,9 km/h (4 Bft) 97,37 %
29.06.2017 05:23 16,7 C 25,0 C 90 % 993,9 hPa 0,0 l/m 19,1 km/h (3 Bft) SW 226 0 min 0,000 mm 0,0 UV-I 9 W/m 15,0 C 12,2 C 32,2 km/h (5 Bft) 94,94 %
29.06.2017 05:24 16,7 C 25,0 C 90 % 993,9 hPa 0,0 l/m 19,5 km/h (3 Bft) W-SW 242 0 min 0,000 mm 0,0 UV-I 9 W/m 15,0 C 12,1 C 30,6 km/h (5 Bft) 91,67 %
29.06.2017 05:26 16,7 C 25,0 C 90 % 993,9 hPa 0,0 l/m 19,1 km/h (3 Bft) SW 234 0 min 0,000 mm 0,0 UV-I 9 W/m 15,0 C 12,2 C 27,4 km/h (4 Bft) 96,00 %
29.06.2017 05:28 16,7 C 25,0 C 90 % 993,8 hPa 0,0 l/m 19,4 km/h (3 Bft) W-SW 257 0 min 0,000 mm 0,0 UV-I 10 W/m 15,0 C 12,1 C 27,4 km/h (4 Bft) 97,73 %
29.06.2017 05:30 16,7 C 25,0 C 90 % 993,9 hPa 0,0 l/m 18,3 km/h (3 Bft) W-SW 241 0 min 0,000 mm 0,0 UV-I 12 W/m 15,0 C 12,4 C 29,0 km/h (5 Bft) 97,37 %
29.06.2017 05:32 16,7 C 25,0 C 90 % 993,9 hPa 0,0 l/m 21,8 km/h (4 Bft) SW 219 0 min 0,000 mm 0,0 UV-I 13 W/m 15,0 C 11,5 C 35,4 km/h (5 Bft) 98,46 %
29.06.2017 05:34 16,7 C 25,0 C 89 % 993,9 hPa 0,0 l/m 19,7 km/h (3 Bft) W-SW 244 0 min 0,000 mm 0,0 UV-I 14 W/m 14,9 C 12,0 C 27,4 km/h (4 Bft) 97,73 %
29.06.2017 05:36 16,7 C 25,0 C 89 % 993,9 hPa 0,0 l/m 18,1 km/h (3 Bft) W-SW 240 0 min 0,000 mm 0,0 UV-I 16 W/m 14,9 C 12,4 C 27,4 km/h (4 Bft) 94,74 %
29.06.2017 05:38 16,7 C 25,0 C 89 % 993,9 hPa 0,0 l/m 17,0 km/h (3 Bft) SW 221 0 min 0,000 mm 0,0 UV-I 19 W/m 14,9 C 12,7 C 27,4 km/h (4 Bft) 94,64 %
29.06.2017 05:40 16,7 C 25,0 C 89 % 993,9 hPa 0,0 l/m 19,3 km/h (3 Bft) W-SW 240 0 min 0,000 mm 0,0 UV-I 23 W/m 14,9 C 12,1 C 27,4 km/h (4 Bft) 97,56 %
29.06.2017 05:42 16,7 C 25,0 C 89 % 993,9 hPa 0,0 l/m 16,2 km/h (3 Bft) SW 217 0 min 0,000 mm 0,0 UV-I 26 W/m 14,9 C 12,9 C 24,1 km/h (4 Bft) 94,00 %
29.06.2017 05:44 16,7 C 25,0 C 89 % 993,9 hPa 0,0 l/m 19,8 km/h (3 Bft) SW 221 0 min 0,000 mm 0,0 UV-I 23 W/m 14,9 C 12,0 C 29,0 km/h (5 Bft) 95,24 %
29.06.2017 05:46 16,7 C 25,0 C 89 % 993,9 hPa 0,0 l/m 15,0 km/h (3 Bft) SW 225 0 min 0,000 mm 0,0 UV-I 20 W/m 14,9 C 13,3 C 22,5 km/h (4 Bft) 97,87 %
29.06.2017 05:48 16,7 C 25,0 C 89 % 993,9 hPa 0,0 l/m 14,7 km/h (3 Bft) SW 226 0 min 0,000 mm 0,0 UV-I 19 W/m 14,9 C 13,3 C 20,9 km/h (4 Bft) 94,34 %
29.06.2017 05:50 16,7 C 25,0 C 89 % 994,0 hPa 0,0 l/m 18,3 km/h (3 Bft) S-SW 205 0 min 0,000 mm 0,0 UV-I 19 W/m 14,9 C 12,4 C 30,6 km/h (5 Bft) 97,73 %
29.06.2017 05:52 16,7 C 25,0 C 89 % 994,0 hPa 0,0 l/m 17,4 km/h (3 Bft) W-SW 250 0 min 0,000 mm 0,0 UV-I 18 W/m 14,9 C 12,6 C 25,7 km/h (4 Bft) 96,23 %
29.06.2017 05:54 16,7 C 25,0 C 89 % 994,0 hPa 0,0 l/m 15,7 km/h (3 Bft) SW 234 0 min 0,000 mm 0,0 UV-I 16 W/m 14,9 C 13,0 C 25,7 km/h (4 Bft) 100,00 %
29.06.2017 05:56 16,7 C 25,0 C 89 % 994,0 hPa 0,0 l/m 16,8 km/h (3 Bft) W-SW 255 0 min 0,000 mm 0,0 UV-I 16 W/m 14,9 C 12,7 C 24,1 km/h (4 Bft) 98,11 %
29.06.2017 05:58 16,7 C 25,0 C 89 % 994,0 hPa 0,0 l/m 16,8 km/h (3 Bft) S-SW 212 0 min 0,000 mm 0,0 UV-I 17 W/m 14,9 C 12,7 C 27,4 km/h (4 Bft) 98,00 %
29.06.2017 06:00 16,7 C 25,0 C 88 % 994,1 hPa 0,0 l/m 19,1 km/h (3 Bft) SW 228 0 min 0,025 mm 0,0 UV-I 18 W/m 14,7 C 12,2 C 30,6 km/h (5 Bft) 98,00 %
29.06.2017 06:02 16,7 C 25,0 C 88 % 994,2 hPa 0,0 l/m 15,8 km/h (3 Bft) W-SW 237 0 min 0,000 mm 0,0 UV-I 18 W/m 14,7 C 13,0 C 25,7 km/h (4 Bft) 97,14 %
29.06.2017 06:04 16,7 C 25,0 C 88 % 994,2 hPa 0,0 l/m 18,4 km/h (3 Bft) SW 236 0 min 0,000 mm 0,0 UV-I 18 W/m 14,7 C 12,3 C 32,2 km/h (5 Bft) 100,00 %
29.06.2017 06:06 16,7 C 25,0 C 88 % 994,2 hPa 0,0 l/m 22,1 km/h (4 Bft) SW 234 0 min 0,000 mm 0,0 UV-I 19 W/m 14,7 C 11,5 C 32,2 km/h (5 Bft) 98,11 %
29.06.2017 06:08 16,7 C 25,0 C 88 % 994,2 hPa 0,0 l/m 18,3 km/h (3 Bft) W-SW 252 0 min 0,000 mm 0,0 UV-I 21 W/m 14,7 C 12,4 C 24,1 km/h (4 Bft) 98,11 %
29.06.2017 06:10 16,7 C 25,0 C 88 % 994,2 hPa 0,0 l/m 15,3 km/h (3 Bft) W-SW 245 0 min 0,000 mm 0,0 UV-I 25 W/m 14,7 C 13,2 C 25,7 km/h (4 Bft) 100,00 %
29.06.2017 06:12 16,8 C 25,0 C 88 % 994,2 hPa 0,0 l/m 16,1 km/h (3 Bft) W-SW 242 0 min 0,000 mm 0,0 UV-I 33 W/m 14,8 C 13,1 C 25,7 km/h (4 Bft) 98,11 %
29.06.2017 06:14 16,8 C 25,0 C 88 % 994,2 hPa 0,0 l/m 16,4 km/h (3 Bft) SW 232 0 min 0,000 mm 0,0 UV-I 46 W/m 14,8 C 13,0 C 27,4 km/h (4 Bft) 97,37 %
29.06.2017 06:16 16,8 C 25,0 C 88 % 994,2 hPa 0,0 l/m 18,2 km/h (3 Bft) SW 236 0 min 0,000 mm 0,0 UV-I 64 W/m 14,8 C 12,5 C 30,6 km/h (5 Bft) 100,00 %
29.06.2017 06:18 16,9 C 25,0 C 88 % 994,2 hPa 0,0 l/m 18,9 km/h (3 Bft) W-SW 252 2 min 0,000 mm 0,0 UV-I 96 W/m 14,9 C 12,5 C 29,0 km/h (5 Bft) 100,00 %
29.06.2017 06:20 16,9 C 25,0 C 88 % 994,2 hPa 0,0 l/m 20,6 km/h (4 Bft) SW 222 0 min 0,000 mm 0,0 UV-I 87 W/m 14,9 C 12,1 C 32,2 km/h (5 Bft) 98,11 %
29.06.2017 06:22 16,9 C 25,0 C 88 % 994,2 hPa 0,0 l/m 19,2 km/h (3 Bft) W-SW 256 2 min 0,000 mm 0,0 UV-I 110 W/m 14,9 C 12,4 C 27,4 km/h (4 Bft) 100,00 %
29.06.2017 06:24 17,0 C 25,0 C 87 % 994,3 hPa 0,0 l/m 16,7 km/h (3 Bft) SW 224 0 min 0,000 mm 0,0 UV-I 83 W/m 14,8 C 13,1 C 24,1 km/h (4 Bft) 95,74 %
29.06.2017 06:26 17,1 C 25,0 C 87 % 994,4 hPa 0,0 l/m 19,6 km/h (3 Bft) SW 236 0 min 0,000 mm 0,0 UV-I 74 W/m 14,9 C 12,6 C 29,0 km/h (5 Bft) 100,00 %
29.06.2017 06:28 17,1 C 25,0 C 87 % 994,4 hPa 0,0 l/m 15,8 km/h (3 Bft) W-SW 244 0 min 0,000 mm 0,0 UV-I 84 W/m 14,9 C 13,5 C 27,4 km/h (4 Bft) 98,00 %
29.06.2017 06:30 17,2 C 25,0 C 87 % 994,3 hPa 0,0 l/m 14,7 km/h (3 Bft) SW 225 0 min 0,000 mm 0,0 UV-I 104 W/m 15,0 C 13,9 C 20,9 km/h (4 Bft) 100,00 %
29.06.2017 06:32 17,2 C 25,0 C 87 % 994,3 hPa 0,0 l/m 13,2 km/h (3 Bft) SW 229 2 min 0,000 mm 0,0 UV-I 109 W/m 15,0 C 14,4 C 24,1 km/h (4 Bft) 100,00 %
29.06.2017 06:34 17,2 C 25,0 C 86 % 994,3 hPa 0,0 l/m 16,0 km/h (3 Bft) W-SW 239 2 min 0,000 mm 0,0 UV-I 112 W/m 14,8 C 13,6 C 25,7 km/h (4 Bft) 98,21 %
29.06.2017 06:36 17,2 C 25,0 C 86 % 994,4 hPa 0,0 l/m 20,1 km/h (4 Bft) W 266 0 min 0,000 mm 0,0 UV-I 111 W/m 14,8 C 12,6 C 29,0 km/h (5 Bft) 100,00 %
29.06.2017 06:38 17,3 C 25,0 C 86 % 994,5 hPa 0,0 l/m 22,4 km/h (4 Bft) W-SW 246 0 min 0,000 mm 0,0 UV-I 101 W/m 14,9 C 12,2 C 30,6 km/h (5 Bft) 97,73 %
29.06.2017 06:40 17,3 C 25,0 C 85 % 994,4 hPa 0,0 l/m 20,5 km/h (4 Bft) S-SW 207 0 min 0,000 mm 0,0 UV-I 115 W/m 14,8 C 12,6 C 32,2 km/h (5 Bft) 100,00 %
29.06.2017 06:42 17,3 C 25,0 C 85 % 994,5 hPa 0,0 l/m 20,0 km/h (4 Bft) SW 234 0 min 0,000 mm 0,0 UV-I 120 W/m 14,8 C 12,7 C 32,2 km/h (5 Bft) 97,37 %
29.06.2017 06:44 17,3 C 25,0 C 85 % 994,5 hPa 0,0 l/m 21,0 km/h (4 Bft) W 269 0 min 0,000 mm 0,0 UV-I 118 W/m 14,8 C 12,5 C 30,6 km/h (5 Bft) 93,22 %
29.06.2017 06:46 17,3 C 25,0 C 85 % 994,6 hPa 0,0 l/m 19,8 km/h (3 Bft) W-SW 244 0 min 0,000 mm 0,0 UV-I 85 W/m 14,8 C 12,8 C 30,6 km/h (5 Bft) 97,56 %
29.06.2017 06:48 17,3 C 25,0 C 85 % 994,6 hPa 0,0 l/m 14,8 km/h (3 Bft) SW 224 0 min 0,000 mm 0,0 UV-I 82 W/m 14,8 C 14,0 C 25,7 km/h (4 Bft) 98,11 %
29.06.2017 06:50 17,3 C 25,0 C 84 % 994,6 hPa 0,0 l/m 21,0 km/h (4 Bft) SW 220 0 min 0,000 mm 0,0 UV-I 92 W/m 14,6 C 12,5 C 35,4 km/h (5 Bft) 95,12 %
29.06.2017 06:52 17,3 C 25,0 C 84 % 994,8 hPa 0,0 l/m 17,1 km/h (3 Bft) SW 229 0 min 0,000 mm 0,0 UV-I 120 W/m 14,6 C 13,4 C 27,4 km/h (4 Bft) 100,00 %
29.06.2017 06:54 17,3 C 25,0 C 84 % 994,7 hPa 0,0 l/m 23,1 km/h (4 Bft) S-SW 212 2 min 0,000 mm 0,0 UV-I 141 W/m 14,6 C 12,1 C 32,2 km/h (5 Bft) 97,56 %
29.06.2017 06:56 17,3 C 25,0 C 84 % 995,0 hPa 0,0 l/m 20,8 km/h (4 Bft) W-SW 240 2 min 0,000 mm 0,0 UV-I 150 W/m 14,6 C 12,5 C 29,0 km/h (5 Bft) 98,00 %
29.06.2017 06:58 17,4 C 25,0 C 84 % 994,9 hPa 0,0 l/m 18,8 km/h (3 Bft) W-SW 252 0 min 0,000 mm 0,0 UV-I 119 W/m 14,7 C 13,1 C 29,0 km/h (5 Bft) 100,00 %
29.06.2017 07:00 17,4 C 25,0 C 83 % 994,9 hPa 0,0 l/m 16,7 km/h (3 Bft) W-SW 238 0 min 0,077 mm 0,0 UV-I 92 W/m 14,5 C 13,6 C 25,7 km/h (4 Bft) 97,62 %
29.06.2017 07:02 17,4 C 25,0 C 83 % 995,0 hPa 0,0 l/m 16,3 km/h (3 Bft) S-SW 194 0 min 0,000 mm 0,0 UV-I 78 W/m 14,5 C 13,7 C 24,1 km/h (4 Bft) 100,00 %
29.06.2017 07:04 17,4 C 25,0 C 83 % 994,9 hPa 0,0 l/m 19,1 km/h (3 Bft) SW 227 0 min 0,000 mm 0,0 UV-I 70 W/m 14,5 C 13,0 C 30,6 km/h (5 Bft) 98,00 %
29.06.2017 07:06 17,3 C 25,0 C 83 % 995,0 hPa 0,0 l/m 18,2 km/h (3 Bft) W-SW 248 0 min 0,000 mm 0,0 UV-I 65 W/m 14,4 C 13,1 C 27,4 km/h (4 Bft) 97,56 %
29.06.2017 07:08 17,3 C 25,0 C 83 % 994,9 hPa 0,0 l/m 20,2 km/h (4 Bft) S-SW 208 0 min 0,000 mm 0,0 UV-I 62 W/m 14,4 C 12,7 C 29,0 km/h (5 Bft) 97,87 %
29.06.2017 07:10 17,3 C 25,0 C 83 % 994,9 hPa 0,0 l/m 22,3 km/h (4 Bft) SW 232 0 min 0,000 mm 0,0 UV-I 58 W/m 14,4 C 12,2 C 33,8 km/h (5 Bft) 95,74 %
29.06.2017 07:12 17,3 C 25,0 C 82 % 995,0 hPa 0,0 l/m 21,9 km/h (4 Bft) S-SW 213 0 min 0,000 mm 0,0 UV-I 55 W/m 14,2 C 12,3 C 35,4 km/h (5 Bft) 94,64 %
29.06.2017 07:14 17,3 C 25,0 C 82 % 994,9 hPa 0,0 l/m 15,6 km/h (3 Bft) W 259 0 min 0,000 mm 0,0 UV-I 55 W/m 14,2 C 13,8 C 24,1 km/h (4 Bft) 97,56 %
29.06.2017 07:16 17,3 C 25,0 C 82 % 995,0 hPa 0,0 l/m 16,8 km/h (3 Bft) W-SW 256 0 min 0,000 mm 0,0 UV-I 61 W/m 14,2 C 13,5 C 29,0 km/h (5 Bft) 93,62 %
29.06.2017 07:18 17,3 C 25,0 C 82 % 995,0 hPa 0,0 l/m 16,5 km/h (3 Bft) W-SW 238 0 min 0,000 mm 0,0 UV-I 63 W/m 14,2 C 13,6 C 25,7 km/h (4 Bft) 95,45 %
29.06.2017 07:20 17,3 C 25,0 C 82 % 995,0 hPa 0,0 l/m 15,9 km/h (3 Bft) W 261 0 min 0,000 mm 0,0 UV-I 72 W/m 14,2 C 13,7 C 24,1 km/h (4 Bft) 90,00 %
29.06.2017 07:22 17,3 C 25,0 C 82 % 995,1 hPa 0,0 l/m 20,3 km/h (4 Bft) W-SW 241 0 min 0,000 mm 0,0 UV-I 84 W/m 14,2 C 12,7 C 27,4 km/h (4 Bft) 87,23 %
29.06.2017 07:24 17,3 C 25,0 C 82 % 995,0 hPa 0,0 l/m 22,9 km/h (4 Bft) SW 214 0 min 0,000 mm 0,0 UV-I 97 W/m 14,2 C 12,1 C 30,6 km/h (5 Bft) 92,68 %
29.06.2017 07:26 17,3 C 25,0 C 82 % 995,1 hPa 0,0 l/m 19,4 km/h (3 Bft) SW 229 0 min 0,000 mm 0,0 UV-I 92 W/m 14,2 C 12,9 C 32,2 km/h (5 Bft) 93,62 %
29.06.2017 07:28 17,4 C 25,0 C 82 % 995,1 hPa 0,0 l/m 19,2 km/h (3 Bft) W-SW 248 0 min 0,000 mm 0,0 UV-I 88 W/m 14,3 C 13,0 C 29,0 km/h (5 Bft) 96,00 %
29.06.2017 07:30 17,4 C 25,0 C 82 % 995,2 hPa 0,0 l/m 16,6 km/h (3 Bft) W-SW 238 0 min 0,000 mm 0,0 UV-I 76 W/m 14,3 C 13,7 C 24,1 km/h (4 Bft) 95,45 %
29.06.2017 07:32 17,4 C 25,0 C 81 % 995,3 hPa 0,0 l/m 22,2 km/h (4 Bft) SW 227 0 min 0,000 mm 0,0 UV-I 62 W/m 14,1 C 12,4 C 33,8 km/h (5 Bft) 92,68 %
29.06.2017 07:34 17,4 C 25,0 C 81 % 995,3 hPa 0,0 l/m 19,0 km/h (3 Bft) SW 217 0 min 0,000 mm 0,0 UV-I 58 W/m 14,1 C 13,1 C 29,0 km/h (5 Bft) 96,43 %
29.06.2017 07:36 17,4 C 25,0 C 81 % 995,4 hPa 0,0 l/m 21,2 km/h (4 Bft) SW 223 0 min 0,000 mm 0,0 UV-I 50 W/m 14,1 C 12,6 C 33,8 km/h (5 Bft) 94,34 %
29.06.2017 07:38 17,4 C 25,0 C 81 % 995,3 hPa 0,0 l/m 16,0 km/h (3 Bft) W-SW 244 0 min 0,000 mm 0,0 UV-I 48 W/m 14,1 C 13,8 C 25,7 km/h (4 Bft) 92,31 %
29.06.2017 07:40 17,4 C 25,0 C 81 % 995,3 hPa 0,0 l/m 17,4 km/h (3 Bft) W 269 0 min 0,000 mm 0,0 UV-I 64 W/m 14,1 C 13,5 C 27,4 km/h (4 Bft) 92,73 %
29.06.2017 07:42 17,4 C 25,0 C 81 % 995,3 hPa 0,0 l/m 17,6 km/h (3 Bft) W 276 0 min 0,000 mm 0,0 UV-I 77 W/m 14,1 C 13,4 C 25,7 km/h (4 Bft) 92,86 %
29.06.2017 07:44 17,4 C 25,0 C 81 % 995,5 hPa 0,0 l/m 15,0 km/h (3 Bft) S-SW 205 0 min 0,000 mm 0,0 UV-I 85 W/m 14,1 C 14,1 C 24,1 km/h (4 Bft) 95,45 %
29.06.2017 07:46 17,4 C 25,0 C 81 % 995,5 hPa 0,0 l/m 18,0 km/h (3 Bft) SW 223 0 min 0,000 mm 0,0 UV-I 89 W/m 14,1 C 13,3 C 25,7 km/h (4 Bft) 94,34 %
29.06.2017 07:48 17,4 C 25,0 C 80 % 995,4 hPa 0,0 l/m 17,5 km/h (3 Bft) SW 217 0 min 0,000 mm 0,0 UV-I 94 W/m 13,9 C 13,4 C 27,4 km/h (4 Bft) 93,18 %
29.06.2017 07:50 17,4 C 25,0 C 80 % 995,5 hPa 0,0 l/m 19,6 km/h (3 Bft) SW 219 0 min 0,000 mm 0,0 UV-I 104 W/m 13,9 C 12,9 C 29,0 km/h (5 Bft) 92,68 %
29.06.2017 07:52 17,5 C 25,0 C 80 % 995,6 hPa 0,0 l/m 15,9 km/h (3 Bft) SW 218 0 min 0,000 mm 0,0 UV-I 95 W/m 14,0 C 14,0 C 24,1 km/h (4 Bft) 92,00 %
29.06.2017 07:54 17,5 C 25,0 C 80 % 995,6 hPa 0,0 l/m 17,4 km/h (3 Bft) S-SW 211 0 min 0,000 mm 0,0 UV-I 76 W/m 14,0 C 13,6 C 24,1 km/h (4 Bft) 95,45 %
29.06.2017 07:56 17,5 C 25,0 C 80 % 995,6 hPa 0,0 l/m 20,2 km/h (4 Bft) W 265 0 min 0,000 mm 0,0 UV-I 67 W/m 14,0 C 12,9 C 29,0 km/h (5 Bft) 96,00 %
29.06.2017 07:58 17,4 C 25,0 C 80 % 995,6 hPa 0,0 l/m 16,8 km/h (3 Bft) W-SW 239 0 min 0,000 mm 0,0 UV-I 59 W/m 13,9 C 13,6 C 22,5 km/h (4 Bft) 95,12 %
29.06.2017 08:00 17,4 C 25,0 C 79 % 995,6 hPa 0,0 l/m 14,4 km/h (3 Bft) SW 227 0 min 0,000 mm 0,0 UV-I 61 W/m 13,7 C 14,3 C 22,5 km/h (4 Bft) 94,34 %
29.06.2017 08:02 17,4 C 25,0 C 79 % 995,6 hPa 0,0 l/m 16,6 km/h (3 Bft) S-SW 211 0 min 0,076 mm 0,0 UV-I 71 W/m 13,7 C 13,7 C 33,8 km/h (5 Bft) 97,56 %
29.06.2017 08:04 17,4 C 25,0 C 79 % 995,6 hPa 0,0 l/m 16,8 km/h (3 Bft) SW 231 0 min 0,000 mm 0,0 UV-I 80 W/m 13,7 C 13,6 C 27,4 km/h (4 Bft) 96,23 %
29.06.2017 08:06 17,4 C 25,0 C 79 % 995,7 hPa 0,0 l/m 16,5 km/h (3 Bft) S-SW 201 0 min 0,000 mm 0,0 UV-I 71 W/m 13,7 C 13,7 C 24,1 km/h (4 Bft) 94,00 %
29.06.2017 08:08 17,4 C 25,0 C 78 % 995,7 hPa 0,0 l/m 18,3 km/h (3 Bft) W-SW 240 0 min 0,000 mm 0,0 UV-I 59 W/m 13,5 C 13,2 C 25,7 km/h (4 Bft) 93,10 %
29.06.2017 08:10 17,4 C 25,0 C 78 % 995,7 hPa 0,0 l/m 16,2 km/h (3 Bft) SW 236 0 min 0,000 mm 0,0 UV-I 51 W/m 13,5 C 13,8 C 25,7 km/h (4 Bft) 95,16 %
29.06.2017 08:12 17,4 C 25,0 C 79 % 995,7 hPa 0,0 l/m 16,1 km/h (3 Bft) W-SW 244 0 min 0,000 mm 0,0 UV-I 54 W/m 13,7 C 13,8 C 24,1 km/h (4 Bft) 98,00 %
29.06.2017 08:14 17,4 C 25,0 C 78 % 995,8 hPa 0,0 l/m 14,5 km/h (3 Bft) SW 227 0 min 0,000 mm 0,0 UV-I 56 W/m 13,5 C 14,2 C 22,5 km/h (4 Bft) 95,12 %
29.06.2017 08:16 17,4 C 25,0 C 78 % 995,8 hPa 0,0 l/m 18,6 km/h (3 Bft) SW 226 0 min 0,000 mm 0,0 UV-I 57 W/m 13,5 C 13,2 C 29,0 km/h (5 Bft) 97,73 %
29.06.2017 08:18 17,4 C 25,0 C 78 % 995,7 hPa 0,0 l/m 19,1 km/h (3 Bft) SW 224 0 min 0,000 mm 0,0 UV-I 68 W/m 13,5 C 13,0 C 29,0 km/h (5 Bft) 100,00 %
29.06.2017 08:20 17,4 C 25,0 C 77 % 995,9 hPa 0,0 l/m 20,2 km/h (4 Bft) W-SW 238 0 min 0,000 mm 0,0 UV-I 83 W/m 13,3 C 12,8 C 27,4 km/h (4 Bft) 98,00 %
29.06.2017 08:22 17,4 C 25,0 C 78 % 995,8 hPa 0,0 l/m 15,5 km/h (3 Bft) S-SW 209 0 min 0,000 mm 0,4 UV-I 115 W/m 13,5 C 14,0 C 22,5 km/h (4 Bft) 100,00 %
29.06.2017 08:24 17,5 C 25,0 C 78 % 995,9 hPa 0,0 l/m 15,3 km/h (3 Bft) W-SW 252 0 min 0,000 mm 0,5 UV-I 142 W/m 13,6 C 14,1 C 24,1 km/h (4 Bft) 94,34 %
29.06.2017 08:26 17,6 C 24,4 C 77 % 995,9 hPa 0,0 l/m 17,3 km/h (3 Bft) SW 230 0 min 0,000 mm 0,6 UV-I 176 W/m 13,5 C 13,7 C 22,5 km/h (4 Bft) 100,00 %
29.06.2017 08:28 17,7 C 25,0 C 77 % 995,9 hPa 0,0 l/m 17,0 km/h (3 Bft) W 261 0 min 0,000 mm 0,3 UV-I 154 W/m 13,6 C 13,9 C 24,1 km/h (4 Bft) 97,56 %
29.06.2017 08:30 17,7 C 25,0 C 76 % 995,8 hPa 0,0 l/m 17,3 km/h (3 Bft) W-SW 250 0 min 0,000 mm 0,0 UV-I 140 W/m 13,4 C 13,9 C 24,1 km/h (4 Bft) 100,00 %
29.06.2017 08:32 17,7 C 25,0 C 76 % 995,8 hPa 0,0 l/m 19,8 km/h (3 Bft) W 262 0 min 0,000 mm 0,5 UV-I 141 W/m 13,4 C 13,3 C 25,7 km/h (4 Bft) 100,00 %
29.06.2017 08:34 17,7 C 24,4 C 77 % 995,8 hPa 0,0 l/m 17,4 km/h (3 Bft) SW 222 0 min 0,000 mm 0,7 UV-I 187 W/m 13,6 C 13,8 C 33,8 km/h (5 Bft) 96,77 %
29.06.2017 08:36 17,8 C 25,0 C 76 % 995,8 hPa 0,0 l/m 21,9 km/h (4 Bft) W-SW 238 0 min 0,000 mm 0,8 UV-I 220 W/m 13,5 C 13,0 C 33,8 km/h (5 Bft) 94,29 %
29.06.2017 08:38 17,8 C 25,0 C 75 % 995,9 hPa 0,0 l/m 24,9 km/h (4 Bft) W-SW 256 0 min 0,000 mm 0,9 UV-I 235 W/m 13,3 C 12,4 C 33,8 km/h (5 Bft) 97,73 %
29.06.2017 08:40 17,9 C 25,0 C 75 % 995,9 hPa 0,0 l/m 18,3 km/h (3 Bft) W-SW 238 0 min 0,000 mm 0,8 UV-I 216 W/m 13,4 C 13,9 C 29,0 km/h (5 Bft) 98,00 %
29.06.2017 08:42 17,9 C 25,0 C 75 % 996,0 hPa 0,0 l/m 21,6 km/h (4 Bft) SW 214 0 min 0,000 mm 0,7 UV-I 176 W/m 13,4 C 13,2 C 33,8 km/h (5 Bft) 95,45 %
29.06.2017 08:44 17,9 C 25,0 C 75 % 996,0 hPa 0,0 l/m 26,0 km/h (4 Bft) SW 215 0 min 0,000 mm 0,6 UV-I 163 W/m 13,4 C 12,4 C 38,6 km/h (5 Bft) 96,43 %
29.06.2017 08:46 17,9 C 24,4 C 75 % 996,0 hPa 0,0 l/m 24,6 km/h (4 Bft) W-SW 251 0 min 0,000 mm 0,6 UV-I 167 W/m 13,4 C 12,6 C 35,4 km/h (5 Bft) 100,00 %
29.06.2017 08:48 17,9 C 24,4 C 75 % 996,0 hPa 0,0 l/m 18,0 km/h (3 Bft) S-SW 210 0 min 0,000 mm 0,7 UV-I 171 W/m 13,4 C 13,9 C 24,1 km/h (4 Bft) 96,72 %
29.06.2017 08:50 17,9 C 24,4 C 75 % 996,0 hPa 0,0 l/m 17,5 km/h (3 Bft) W-SW 244 0 min 0,000 mm 0,7 UV-I 175 W/m 13,4 C 14,1 C 27,4 km/h (4 Bft) 100,00 %
29.06.2017 08:52 17,9 C 24,4 C 75 % 996,0 hPa 0,0 l/m 17,8 km/h (3 Bft) SW 234 0 min 0,000 mm 0,9 UV-I 226 W/m 13,4 C 14,0 C 27,4 km/h (4 Bft) 98,00 %
29.06.2017 08:54 18,0 C 25,0 C 75 % 995,9 hPa 0,0 l/m 16,8 km/h (3 Bft) S-SW 206 0 min 0,000 mm 1,1 UV-I 264 W/m 13,5 C 14,4 C 27,4 km/h (4 Bft) 100,00 %
29.06.2017 08:56 18,1 C 25,0 C 75 % 996,0 hPa 0,0 l/m 17,2 km/h (3 Bft) W-SW 248 0 min 0,000 mm 1,2 UV-I 275 W/m 13,6 C 14,4 C 24,1 km/h (4 Bft) 98,11 %
29.06.2017 08:58 18,1 C 24,4 C 75 % 996,0 hPa 0,0 l/m 14,9 km/h (3 Bft) W 259 0 min 0,000 mm 1,2 UV-I 279 W/m 13,6 C 15,0 C 24,1 km/h (4 Bft) 100,00 %
29.06.2017 09:00 18,2 C 24,4 C 75 % 996,0 hPa 0,0 l/m 17,9 km/h (3 Bft) W-SW 246 0 min 0,152 mm 1,1 UV-I 265 W/m 13,7 C 14,3 C 30,6 km/h (5 Bft) 100,00 %
29.06.2017 09:02 18,2 C 24,4 C 74 % 996,0 hPa 0,0 l/m 18,5 km/h (3 Bft) SW 232 0 min 0,000 mm 1,1 UV-I 273 W/m 13,5 C 14,2 C 29,0 km/h (5 Bft) 97,87 %
29.06.2017 09:04 18,2 C 24,4 C 74 % 996,0 hPa 0,0 l/m 23,0 km/h (4 Bft) SW 236 0 min 0,000 mm 1,1 UV-I 297 W/m 13,5 C 13,3 C 37,0 km/h (5 Bft) 97,37 %
29.06.2017 09:06 18,2 C 24,4 C 74 % 996,1 hPa 0,0 l/m 21,1 km/h (4 Bft) W 264 0 min 0,000 mm 1,1 UV-I 274 W/m 13,5 C 13,7 C 30,6 km/h (5 Bft) 100,00 %
29.06.2017 09:08 18,2 C 24,4 C 73 % 996,2 hPa 0,0 l/m 20,8 km/h (4 Bft) W-SW 243 0 min 0,000 mm 1,2 UV-I 294 W/m 13,3 C 13,7 C 32,2 km/h (5 Bft) 98,11 %
29.06.2017 09:10 18,2 C 25,0 C 74 % 996,1 hPa 0,0 l/m 22,2 km/h (4 Bft) S-SW 207 0 min 0,000 mm 1,1 UV-I 283 W/m 13,5 C 13,4 C 33,8 km/h (5 Bft) 100,00 %
29.06.2017 09:12 18,2 C 24,4 C 73 % 996,1 hPa 0,0 l/m 24,4 km/h (4 Bft) S-SW 206 0 min 0,000 mm 1,2 UV-I 281 W/m 13,3 C 13,0 C 33,8 km/h (5 Bft) 100,00 %
29.06.2017 09:14 18,2 C 24,4 C 73 % 996,1 hPa 0,0 l/m 23,3 km/h (4 Bft) S-SW 205 0 min 0,000 mm 1,2 UV-I 296 W/m 13,3 C 13,2 C 45,1 km/h (6 Bft) 97,87 %
29.06.2017 09:16 18,2 C 24,4 C 73 % 995,9 hPa 0,0 l/m 27,4 km/h (4 Bft) W 263 0 min 0,000 mm 1,3 UV-I 319 W/m 13,3 C 12,6 C 45,1 km/h (6 Bft) 97,87 %
29.06.2017 09:18 18,2 C 25,0 C 72 % 996,1 hPa 0,0 l/m 27,7 km/h (4 Bft) W 261 2 min 0,000 mm 1,6 UV-I 367 W/m 13,1 C 12,5 C 41,8 km/h (6 Bft) 97,37 %
29.06.2017 09:20 18,3 C 25,0 C 73 % 996,0 hPa 0,0 l/m 22,5 km/h (4 Bft) W-SW 248 2 min 0,000 mm 1,9 UV-I 410 W/m 13,4 C 13,5 C 40,2 km/h (6 Bft) 96,00 %
29.06.2017 09:22 18,3 C 25,0 C 72 % 996,0 hPa 0,0 l/m 30,8 km/h (5 Bft) W-SW 237 2 min 0,000 mm 1,8 UV-I 376 W/m 13,2 C 12,2 C 46,7 km/h (6 Bft) 94,34 %
29.06.2017 09:24 18,3 C 25,0 C 72 % 996,1 hPa 0,2 l/m 26,3 km/h (4 Bft) W-SW 242 2 min 0,000 mm 1,9 UV-I 391 W/m 13,2 C 12,9 C 41,8 km/h (6 Bft) 97,37 %
29.06.2017 09:26 18,4 C 25,0 C 72 % 996,2 hPa 0,0 l/m 23,1 km/h (4 Bft) W-SW 241 2 min 0,000 mm 2,0 UV-I 450 W/m 13,3 C 13,5 C 35,4 km/h (5 Bft) 98,11 %
29.06.2017 09:28 18,6 C 25,0 C 71 % 996,1 hPa 0,0 l/m 25,9 km/h (4 Bft) W 262 2 min 0,000 mm 2,3 UV-I 450 W/m 13,2 C 13,3 C 40,2 km/h (6 Bft) 93,18 %
29.06.2017 09:30 18,8 C 25,0 C 71 % 996,1 hPa 0,0 l/m 29,0 km/h (5 Bft) W-SW 241 2 min 0,000 mm 2,7 UV-I 670 W/m 13,4 C 13,2 C 45,1 km/h (6 Bft) 95,45 %
29.06.2017 09:32 18,8 C 24,4 C 70 % 996,1 hPa 0,0 l/m 24,6 km/h (4 Bft) W 267 2 min 0,000 mm 1,9 UV-I 449 W/m 13,2 C 13,8 C 38,6 km/h (5 Bft) 98,11 %
29.06.2017 09:34 18,8 C 24,4 C 71 % 996,1 hPa 0,0 l/m 20,3 km/h (4 Bft) W-SW 254 0 min 0,000 mm 1,8 UV-I 339 W/m 13,4 C 14,6 C 35,4 km/h (5 Bft) 97,56 %
29.06.2017 09:36 18,8 C 24,4 C 70 % 996,1 hPa 0,0 l/m 22,9 km/h (4 Bft) W-SW 250 0 min 0,000 mm 1,8 UV-I 342 W/m 13,2 C 14,1 C 41,8 km/h (6 Bft) 94,44 %
29.06.2017 09:38 18,7 C 24,4 C 70 % 996,2 hPa 0,0 l/m 25,3 km/h (4 Bft) W-SW 253 2 min 0,000 mm 1,9 UV-I 379 W/m 13,1 C 13,6 C 41,8 km/h (6 Bft) 96,61 %
29.06.2017 09:40 18,7 C 25,0 C 71 % 996,2 hPa 0,0 l/m 23,5 km/h (4 Bft) W-SW 252 2 min 0,000 mm 2,4 UV-I 460 W/m 13,3 C 13,9 C 32,2 km/h (5 Bft) 97,56 %
29.06.2017 09:42 18,8 C 25,0 C 71 % 996,3 hPa 0,0 l/m 26,5 km/h (4 Bft) W-SW 258 2 min 0,000 mm 2,6 UV-I 462 W/m 13,4 C 13,5 C 41,8 km/h (6 Bft) 94,92 %
29.06.2017 09:44 18,9 C 25,0 C 69 % 996,3 hPa 0,0 l/m 29,2 km/h (5 Bft) W 279 2 min 0,000 mm 2,4 UV-I 490 W/m 13,1 C 13,3 C 41,8 km/h (6 Bft) 96,15 %
29.06.2017 09:46 19,0 C 25,0 C 69 % 996,3 hPa 0,0 l/m 25,5 km/h (4 Bft) SW 220 2 min 0,000 mm 2,4 UV-I 508 W/m 13,2 C 13,9 C 37,0 km/h (5 Bft) 95,38 %
29.06.2017 09:48 19,1 C 25,0 C 70 % 996,3 hPa 0,0 l/m 18,8 km/h (3 Bft) W-SW 244 2 min 0,000 mm 2,2 UV-I 456 W/m 13,5 C 15,3 C 25,7 km/h (4 Bft) 92,00 %
29.06.2017 09:50 19,2 C 24,4 C 69 % 996,2 hPa 0,0 l/m 26,2 km/h (4 Bft) SW 224 2 min 0,000 mm 2,3 UV-I 431 W/m 13,4 C 14,1 C 38,6 km/h (5 Bft) 97,37 %
29.06.2017 09:52 19,2 C 25,0 C 69 % 996,3 hPa 0,0 l/m 22,1 km/h (4 Bft) W-SW 255 2 min 0,000 mm 2,5 UV-I 508 W/m 13,4 C 14,8 C 30,6 km/h (5 Bft) 98,00 %
29.06.2017 09:54 19,3 C 25,0 C 69 % 996,4 hPa 0,0 l/m 19,9 km/h (4 Bft) W-SW 238 2 min 0,000 mm 3,1 UV-I 537 W/m 13,5 C 15,3 C 32,2 km/h (5 Bft) 95,45 %
29.06.2017 09:56 19,6 C 25,0 C 69 % 996,3 hPa 0,0 l/m 17,9 km/h (3 Bft) W 269 2 min 0,000 mm 3,1 UV-I 724 W/m 13,8 C 16,1 C 25,7 km/h (4 Bft) 98,21 %
29.06.2017 09:58 19,7 C 25,0 C 67 % 996,3 hPa 0,0 l/m 21,4 km/h (4 Bft) W 281 2 min 0,000 mm 2,2 UV-I 464 W/m 13,4 C 15,6 C 37,0 km/h (5 Bft) 97,73 %
29.06.2017 10:00 19,7 C 24,4 C 66 % 996,4 hPa 0,0 l/m 27,4 km/h (4 Bft) SW 215 2 min 0,356 mm 2,3 UV-I 508 W/m 13,2 C 14,6 C 45,1 km/h (6 Bft) 100,00 %
29.06.2017 10:02 19,6 C 25,0 C 66 % 996,4 hPa 0,0 l/m 20,0 km/h (4 Bft) W-SW 246 2 min 0,000 mm 2,6 UV-I 476 W/m 13,1 C 15,7 C 30,6 km/h (5 Bft) 95,74 %
29.06.2017 10:04 19,8 C 25,0 C 66 % 996,4 hPa 0,0 l/m 21,1 km/h (4 Bft) SW 236 2 min 0,000 mm 3,3 UV-I 471 W/m 13,3 C 15,7 C 33,8 km/h (5 Bft) 98,11 %
29.06.2017 10:06 19,8 C 25,0 C 66 % 996,4 hPa 0,0 l/m 23,6 km/h (4 Bft) SW 221 2 min 0,000 mm 2,2 UV-I 471 W/m 13,3 C 15,3 C 40,2 km/h (6 Bft) 100,00 %
29.06.2017 10:08 19,8 C 25,0 C 65 % 996,4 hPa 0,0 l/m 27,0 km/h (4 Bft) SW 223 2 min 0,000 mm 2,9 UV-I 587 W/m 13,0 C 14,8 C 45,1 km/h (6 Bft) 97,73 %
29.06.2017 10:10 19,7 C 25,0 C 66 % 996,5 hPa 0,0 l/m 31,1 km/h (5 Bft) W-SW 244 2 min 0,000 mm 2,9 UV-I 687 W/m 13,2 C 14,2 C 43,5 km/h (6 Bft) 100,00 %
29.06.2017 10:12 19,7 C 25,0 C 65 % 996,5 hPa 0,0 l/m 31,1 km/h (5 Bft) W-SW 243 2 min 0,000 mm 2,7 UV-I 661 W/m 12,9 C 14,2 C 45,1 km/h (6 Bft) 98,68 %
29.06.2017 10:14 19,7 C 25,0 C 65 % 996,6 hPa 0,0 l/m 26,0 km/h (4 Bft) W-NW 282 2 min 0,000 mm 3,0 UV-I 559 W/m 12,9 C 14,8 C 37,0 km/h (5 Bft) 97,73 %
29.06.2017 10:16 19,7 C 25,0 C 65 % 996,6 hPa 0,0 l/m 23,5 km/h (4 Bft) SW 229 2 min 0,000 mm 2,6 UV-I 559 W/m 12,9 C 15,2 C 33,8 km/h (5 Bft) 100,00 %
29.06.2017 10:18 19,7 C 25,0 C 64 % 996,6 hPa 0,0 l/m 28,8 km/h (4 Bft) W-SW 256 2 min 0,000 mm 2,1 UV-I 454 W/m 12,7 C 14,4 C 38,6 km/h (5 Bft) 96,97 %
29.06.2017 10:20 19,5 C 25,0 C 65 % 996,6 hPa 0,0 l/m 20,8 km/h (4 Bft) SW 223 0 min 0,000 mm 2,1 UV-I 375 W/m 12,7 C 15,4 C 32,2 km/h (5 Bft) 100,00 %
29.06.2017 10:22 19,4 C 25,0 C 65 % 996,6 hPa 0,0 l/m 23,9 km/h (4 Bft) W 261 0 min 0,000 mm 2,4 UV-I 404 W/m 12,6 C 14,7 C 35,4 km/h (5 Bft) 100,00 %
29.06.2017 10:24 19,3 C 25,0 C 65 % 996,6 hPa 0,0 l/m 27,7 km/h (4 Bft) S-SW 211 2 min 0,000 mm 2,5 UV-I 431 W/m 12,6 C 14,0 C 40,2 km/h (6 Bft) 100,00 %
29.06.2017 10:26 19,2 C 25,0 C 65 % 996,6 hPa 0,0 l/m 27,2 km/h (4 Bft) SW 215 2 min 0,000 mm 2,5 UV-I 424 W/m 12,5 C 14,0 C 41,8 km/h (6 Bft) 100,00 %
29.06.2017 10:28 19,2 C 25,0 C 66 % 996,6 hPa 0,0 l/m 28,3 km/h (4 Bft) W-NW 292 0 min 0,000 mm 2,2 UV-I 385 W/m 12,7 C 13,8 C 48,3 km/h (6 Bft) 97,37 %
29.06.2017 10:30 19,2 C 25,0 C 66 % 996,8 hPa 0,0 l/m 22,3 km/h (4 Bft) W 261 0 min 0,000 mm 2,0 UV-I 351 W/m 12,7 C 14,7 C 37,0 km/h (5 Bft) 100,00 %
29.06.2017 10:32 19,2 C 25,0 C 66 % 996,7 hPa 0,0 l/m 23,2 km/h (4 Bft) SW 231 0 min 0,000 mm 1,7 UV-I 293 W/m 12,7 C 14,6 C 40,2 km/h (6 Bft) 97,14 %
29.06.2017 10:34 19,1 C 24,4 C 67 % 996,8 hPa 0,0 l/m 23,9 km/h (4 Bft) SW 221 0 min 0,000 mm 1,6 UV-I 280 W/m 12,8 C 14,3 C 33,8 km/h (5 Bft) 98,15 %
29.06.2017 10:36 19,2 C 24,4 C 67 % 996,8 hPa 0,0 l/m 22,8 km/h (4 Bft) W 269 0 min 0,000 mm 2,2 UV-I 392 W/m 12,9 C 14,7 C 35,4 km/h (5 Bft) 97,73 %
29.06.2017 10:38 19,3 C 24,4 C 66 % 996,7 hPa 0,0 l/m 25,7 km/h (4 Bft) W 279 0 min 0,000 mm 2,2 UV-I 416 W/m 12,8 C 14,3 C 35,4 km/h (5 Bft) 100,00 %
29.06.2017 10:40 19,4 C 24,4 C 66 % 996,9 hPa 0,0 l/m 23,3 km/h (4 Bft) SW 227 2 min 0,000 mm 2,9 UV-I 478 W/m 12,9 C 14,8 C 35,4 km/h (5 Bft) 97,56 %
29.06.2017 10:42 19,6 C 25,0 C 65 % 996,8 hPa 0,0 l/m 27,6 km/h (4 Bft) W-SW 255 2 min 0,000 mm 3,6 UV-I 519 W/m 12,8 C 14,5 C 40,2 km/h (6 Bft) 98,11 %
29.06.2017 10:44 19,8 C 25,0 C 64 % 996,9 hPa 0,0 l/m 29,9 km/h (5 Bft) W-SW 238 2 min 0,000 mm 3,7 UV-I 602 W/m 12,8 C 14,4 C 41,8 km/h (6 Bft) 100,00 %
29.06.2017 10:46 20,1 C 25,0 C 64 % 996,9 hPa 0,0 l/m 23,9 km/h (4 Bft) W-SW 249 2 min 0,000 mm 4,3 UV-I 606 W/m 13,1 C 15,7 C 41,8 km/h (6 Bft) 95,74 %
29.06.2017 10:48 20,2 C 25,0 C 63 % 996,9 hPa 0,0 l/m 21,1 km/h (4 Bft) SW 230 2 min 0,000 mm 2,6 UV-I 536 W/m 12,9 C 16,3 C 33,8 km/h (5 Bft) 98,00 %
29.06.2017 10:50 20,1 C 24,4 C 63 % 996,9 hPa 0,0 l/m 21,3 km/h (4 Bft) W-SW 240 0 min 0,000 mm 2,1 UV-I 352 W/m 12,8 C 16,1 C 30,6 km/h (5 Bft) 97,37 %
29.06.2017 10:52 19,9 C 24,4 C 63 % 997,0 hPa 0,0 l/m 22,0 km/h (4 Bft) W-SW 252 0 min 0,000 mm 1,6 UV-I 259 W/m 12,6 C 15,7 C 29,0 km/h (5 Bft) 100,00 %
29.06.2017 10:54 19,8 C 24,4 C 63 % 997,0 hPa 0,0 l/m 25,9 km/h (4 Bft) S 174 0 min 0,000 mm 1,7 UV-I 263 W/m 12,5 C 15,0 C 38,6 km/h (5 Bft) 98,00 %
29.06.2017 10:56 19,7 C 24,4 C 64 % 997,0 hPa 0,0 l/m 26,1 km/h (4 Bft) W-SW 238 0 min 0,000 mm 1,6 UV-I 248 W/m 12,7 C 14,8 C 32,2 km/h (5 Bft) 100,00 %
29.06.2017 11:00 19,4 C 24,4 C 65 % 997,2 hPa 0,0 l/m 41,8 km/h (6 Bft) W-SW 248 0 min 0,000 mm 2,3 UV-I 297 W/m 12,6 C 12,7 C 45,1 km/h (6 Bft) 100,00 %
29.06.2017 11:02 19,3 C 24,4 C 66 % 997,1 hPa 0,0 l/m 21,8 km/h (4 Bft) W-SW 256 0 min 0,381 mm 2,8 UV-I 332 W/m 12,8 C 15,0 C 32,2 km/h (5 Bft) 97,62 %
29.06.2017 11:04 19,3 C 24,4 C 67 % 997,2 hPa 0,0 l/m 23,3 km/h (4 Bft) SW 229 2 min 0,000 mm 3,6 UV-I 482 W/m 13,0 C 14,7 C 35,4 km/h (5 Bft) 100,00 %
29.06.2017 11:06 19,3 C 24,4 C 68 % 997,1 hPa 0,0 l/m 22,6 km/h (4 Bft) S-SW 204 2 min 0,000 mm 3,9 UV-I 608 W/m 13,2 C 14,8 C 33,8 km/h (5 Bft) 98,08 %
29.06.2017 11:08 19,4 C 24,4 C 68 % 997,2 hPa 0,0 l/m 21,5 km/h (4 Bft) W-SW 244 2 min 0,000 mm 3,2 UV-I 544 W/m 13,3 C 15,2 C 37,0 km/h (5 Bft) 92,31 %
29.06.2017 11:10 19,4 C 25,0 C 66 % 997,1 hPa 0,0 l/m 30,9 km/h (5 Bft) W-SW 254 2 min 0,000 mm 4,2 UV-I 513 W/m 12,9 C 13,8 C 48,3 km/h (6 Bft) 96,00 %
29.06.2017 11:12 19,5 C 25,0 C 65 % 997,1 hPa 0,0 l/m 29,1 km/h (5 Bft) W-SW 257 2 min 0,000 mm 4,1 UV-I 640 W/m 12,7 C 14,1 C 40,2 km/h (6 Bft) 97,56 %
29.06.2017 11:14 19,6 C 25,0 C 66 % 997,0 hPa 0,0 l/m 24,3 km/h (4 Bft) SW 227 2 min 0,000 mm 4,8 UV-I 631 W/m 13,1 C 14,9 C 38,6 km/h (5 Bft) 94,34 %
29.06.2017 11:16 19,8 C 25,0 C 65 % 997,1 hPa 0,0 l/m 30,2 km/h (5 Bft) S-SW 208 2 min 0,000 mm 5,7 UV-I 598 W/m 13,0 C 14,4 C 40,2 km/h (6 Bft) 95,45 %
29.06.2017 11:18 20,1 C 25,0 C 64 % 997,1 hPa 0,0 l/m 27,6 km/h (4 Bft) W 264 2 min 0,000 mm 5,8 UV-I 598 W/m 13,1 C 15,2 C 43,5 km/h (6 Bft) 92,00 %
29.06.2017 11:20 20,2 C 25,0 C 63 % 997,1 hPa 0,0 l/m 28,5 km/h (4 Bft) SW 230 2 min 0,000 mm 3,7 UV-I 524 W/m 12,9 C 15,2 C 41,8 km/h (6 Bft) 93,18 %
29.06.2017 11:22 20,1 C 24,4 C 63 % 997,0 hPa 0,0 l/m 28,4 km/h (4 Bft) S-SW 210 0 min 0,000 mm 3,3 UV-I 424 W/m 12,8 C 15,1 C 46,7 km/h (6 Bft) 95,74 %
29.06.2017 11:24 20,0 C 24,4 C 63 % 997,1 hPa 0,0 l/m 34,5 km/h (5 Bft) W-SW 250 0 min 0,000 mm 3,3 UV-I 431 W/m 12,7 C 14,2 C 48,3 km/h (6 Bft) 93,18 %
29.06.2017 11:26 19,9 C 25,0 C 63 % 997,1 hPa 0,0 l/m 33,4 km/h (5 Bft) W-SW 244 2 min 0,000 mm 3,8 UV-I 481 W/m 12,6 C 14,2 C 53,1 km/h (7 Bft) 94,64 %
29.06.2017 11:28 19,8 C 25,0 C 63 % 997,2 hPa 0,0 l/m 34,1 km/h (5 Bft) W 259 2 min 0,000 mm 5,6 UV-I 608 W/m 12,5 C 14,0 C 53,1 km/h (7 Bft) 92,11 %
29.06.2017 11:30 20,1 C 25,0 C 63 % 997,2 hPa 0,0 l/m 29,2 km/h (5 Bft) W 263 2 min 0,000 mm 6,6 UV-I 686 W/m 12,8 C 15,0 C 51,5 km/h (7 Bft) 94,00 %
29.06.2017 11:32 20,3 C 25,0 C 63 % 997,3 hPa 0,0 l/m 31,0 km/h (5 Bft) W-SW 247 2 min 0,000 mm 6,9 UV-I 1020 W/m 13,0 C 15,0 C 51,5 km/h (7 Bft) 96,00 %
29.06.2017 11:34 20,6 C 25,0 C 63 % 997,3 hPa 0,0 l/m 32,5 km/h (5 Bft) W-SW 245 2 min 0,000 mm 6,7 UV-I 880 W/m 13,3 C 15,3 C 51,5 km/h (7 Bft) 90,91 %
29.06.2017 11:36 20,7 C 25,0 C 63 % 997,4 hPa 0,0 l/m 34,1 km/h (5 Bft) W-SW 258 2 min 0,000 mm 6,2 UV-I 882 W/m 13,4 C 15,3 C 56,3 km/h (7 Bft) 93,62 %
29.06.2017 11:38 20,7 C 25,0 C 63 % 997,4 hPa 0,0 l/m 27,0 km/h (4 Bft) W-SW 257 2 min 0,000 mm 7,0 UV-I 884 W/m 13,4 C 16,1 C 48,3 km/h (6 Bft) 94,00 %
29.06.2017 11:40 20,8 C 25,0 C 64 % 997,3 hPa 0,0 l/m 22,9 km/h (4 Bft) S-SW 213 2 min 0,000 mm 5,6 UV-I 1114 W/m 13,7 C 16,8 C 37,0 km/h (5 Bft) 91,49 %
29.06.2017 11:42 20,7 C 25,0 C 63 % 997,4 hPa 0,0 l/m 21,6 km/h (4 Bft) SW 232 2 min 0,000 mm 4,2 UV-I 837 W/m 13,4 C 16,8 C 38,6 km/h (5 Bft) 91,67 %
29.06.2017 11:44 20,4 C 25,0 C 64 % 997,7 hPa 0,0 l/m 21,0 km/h (4 Bft) W-SW 240 2 min 0,000 mm 4,4 UV-I 531 W/m 13,4 C 16,5 C 45,1 km/h (6 Bft) 97,56 %
29.06.2017 11:46 20,3 C 25,0 C 65 % 997,5 hPa 0,0 l/m 22,6 km/h (4 Bft) W-SW 257 2 min 0,000 mm 6,4 UV-I 864 W/m 13,5 C 16,2 C 35,4 km/h (5 Bft) 95,16 %
29.06.2017 11:48 20,4 C 25,0 C 64 % 997,4 hPa 0,0 l/m 29,4 km/h (5 Bft) SW 236 2 min 0,000 mm 6,4 UV-I 960 W/m 13,4 C 15,4 C 43,5 km/h (6 Bft) 96,00 %
29.06.2017 11:50 20,4 C 25,0 C 62 % 997,3 hPa 0,0 l/m 32,0 km/h (5 Bft) W-SW 256 2 min 0,000 mm 6,4 UV-I 949 W/m 12,9 C 15,1 C 43,5 km/h (6 Bft) 97,37 %
29.06.2017 11:52 20,4 C 25,0 C 63 % 997,4 hPa 0,0 l/m 26,2 km/h (4 Bft) SW 226 2 min 0,000 mm 6,4 UV-I 946 W/m 13,1 C 15,8 C 38,6 km/h (5 Bft) 96,23 %
29.06.2017 11:54 20,6 C 25,0 C 63 % 997,5 hPa 0,0 l/m 29,1 km/h (5 Bft) W-SW 254 2 min 0,000 mm 6,4 UV-I 953 W/m 13,3 C 15,7 C 46,7 km/h (6 Bft) 95,74 %
29.06.2017 11:56 20,7 C 25,0 C 64 % 997,4 hPa 0,0 l/m 23,3 km/h (4 Bft) W-SW 254 2 min 0,000 mm 5,6 UV-I 970 W/m 13,6 C 16,6 C 35,4 km/h (5 Bft) 96,15 %
29.06.2017 11:58 20,8 C 25,0 C 63 % 997,6 hPa 0,0 l/m 29,9 km/h (5 Bft) S-SW 198 2 min 0,000 mm 5,9 UV-I 971 W/m 13,5 C 15,9 C 40,2 km/h (6 Bft) 96,77 %
29.06.2017 12:00 20,8 C 25,0 C 63 % 997,4 hPa 0,0 l/m 25,3 km/h (4 Bft) SW 234 2 min 0,000 mm 6,3 UV-I 1038 W/m 13,5 C 16,4 C 38,6 km/h (5 Bft) 94,34 %
29.06.2017 12:02 21,0 C 25,0 C 63 % 997,5 hPa 0,0 l/m 25,9 km/h (4 Bft) SW 225 2 min 0,584 mm 6,3 UV-I 1100 W/m 13,7 C 16,6 C 40,2 km/h (6 Bft) 92,68 %
29.06.2017 12:04 20,8 C 25,0 C 62 % 997,5 hPa 0,0 l/m 32,2 km/h (5 Bft) W-SW 248 0 min 0,000 mm 2,9 UV-I 429 W/m 13,2 C 15,6 C 45,1 km/h (6 Bft) 90,57 %
29.06.2017 12:06 20,5 C 25,0 C 65 % 997,7 hPa 0,0 l/m 31,0 km/h (5 Bft) S-SW 200 0 min 0,000 mm 1,7 UV-I 225 W/m 13,7 C 15,3 C 48,3 km/h (6 Bft) 86,84 %
29.06.2017 12:08 19,9 C 25,0 C 67 % 997,7 hPa 0,0 l/m 30,0 km/h (5 Bft) SW 223 0 min 0,000 mm 2,5 UV-I 340 W/m 13,6 C 14,6 C 43,5 km/h (6 Bft) 98,00 %
29.06.2017 12:10 19,6 C 25,0 C 69 % 997,8 hPa 0,0 l/m 29,8 km/h (5 Bft) W 263 0 min 0,000 mm 3,1 UV-I 430 W/m 13,8 C 14,2 C 46,7 km/h (6 Bft) 95,12 %
29.06.2017 12:12 19,4 C 25,0 C 68 % 998,0 hPa 0,0 l/m 31,4 km/h (5 Bft) W-SW 243 2 min 0,000 mm 3,5 UV-I 488 W/m 13,3 C 13,7 C 46,7 km/h (6 Bft) 96,61 %
29.06.2017 12:14 19,4 C 25,0 C 67 % 997,9 hPa 0,0 l/m 27,2 km/h (4 Bft) W-SW 257 0 min 0,000 mm 3,6 UV-I 472 W/m 13,1 C 14,2 C 51,5 km/h (7 Bft) 97,37 %
29.06.2017 12:16 19,5 C 25,0 C 66 % 998,0 hPa 0,0 l/m 25,2 km/h (4 Bft) W 260 0 min 0,000 mm 3,0 UV-I 394 W/m 13,0 C 14,7 C 37,0 km/h (5 Bft) 96,43 %
29.06.2017 12:18 19,6 C 25,0 C 65 % 998,2 hPa 0,0 l/m 22,0 km/h (4 Bft) W-SW 238 0 min 0,000 mm 2,7 UV-I 327 W/m 12,8 C 15,3 C 33,8 km/h (5 Bft) 97,56 %
29.06.2017 12:20 19,5 C 25,0 C 66 % 998,2 hPa 0,0 l/m 20,9 km/h (4 Bft) W-SW 246 0 min 0,000 mm 2,7 UV-I 289 W/m 13,0 C 15,4 C 32,2 km/h (5 Bft) 95,83 %
29.06.2017 12:22 19,4 C 25,0 C 66 % 998,0 hPa 0,0 l/m 20,9 km/h (4 Bft) SW 225 0 min 0,000 mm 3,5 UV-I 272 W/m 12,9 C 15,3 C 29,0 km/h (5 Bft) 100,00 %
29.06.2017 12:24 19,6 C 25,0 C 66 % 998,1 hPa 0,0 l/m 23,6 km/h (4 Bft) W-SW 252 2 min 0,000 mm 6,5 UV-I 662 W/m 13,1 C 15,1 C 35,4 km/h (5 Bft) 97,62 %
29.06.2017 12:26 19,8 C 25,0 C 65 % 998,0 hPa 0,0 l/m 24,8 km/h (4 Bft) W-SW 242 2 min 0,000 mm 6,9 UV-I 954 W/m 13,0 C 15,1 C 35,4 km/h (5 Bft) 100,00 %
29.06.2017 12:28 20,1 C 25,0 C 64 % 998,1 hPa 0,0 l/m 24,2 km/h (4 Bft) W-SW 258 2 min 0,000 mm 6,9 UV-I 948 W/m 13,1 C 15,6 C 38,6 km/h (5 Bft) 100,00 %
29.06.2017 12:30 20,5 C 25,0 C 64 % 998,1 hPa 0,0 l/m 20,8 km/h (4 Bft) SW 233 2 min 0,000 mm 7,0 UV-I 961 W/m 13,5 C 16,7 C 41,8 km/h (6 Bft) 100,00 %
29.06.2017 12:32 20,8 C 25,0 C 62 % 998,2 hPa 0,0 l/m 25,9 km/h (4 Bft) W 261 2 min 0,000 mm 7,1 UV-I 998 W/m 13,2 C 16,3 C 38,6 km/h (5 Bft) 100,00 %
29.06.2017 12:34 21,1 C 25,0 C 61 % 998,1 hPa 0,0 l/m 24,4 km/h (4 Bft) W-SW 256 2 min 0,000 mm 6,3 UV-I 1083 W/m 13,3 C 17,0 C 37,0 km/h (5 Bft) 100,00 %
29.06.2017 12:36 21,2 C 25,0 C 60 % 998,0 hPa 0,0 l/m 24,2 km/h (4 Bft) SW 218 2 min 0,000 mm 7,4 UV-I 795 W/m 13,1 C 17,1 C 35,4 km/h (5 Bft) 100,00 %
29.06.2017 12:38 21,3 C 25,0 C 60 % 998,0 hPa 0,0 l/m 24,7 km/h (4 Bft) W 264 2 min 0,000 mm 6,0 UV-I 926 W/m 13,2 C 17,2 C 33,8 km/h (5 Bft) 100,00 %
29.06.2017 12:40 21,3 C 25,0 C 60 % 998,1 hPa 0,0 l/m 16,7 km/h (3 Bft) SW 230 0 min 0,000 mm 1,7 UV-I 297 W/m 13,2 C 18,5 C 22,5 km/h (4 Bft) 97,37 %
29.06.2017 12:42 21,1 C 25,0 C 60 % 998,1 hPa 0,0 l/m 18,0 km/h (3 Bft) W-SW 255 0 min 0,000 mm 1,1 UV-I 157 W/m 13,0 C 18,0 C 29,0 km/h (5 Bft) 100,00 %
29.06.2017 12:44 20,9 C 25,0 C 60 % 998,2 hPa 0,0 l/m 17,5 km/h (3 Bft) W 280 0 min 0,000 mm 0,9 UV-I 132 W/m 12,8 C 17,8 C 27,4 km/h (4 Bft) 97,37 %
29.06.2017 12:46 20,6 C 25,0 C 61 % 998,1 hPa 0,0 l/m 19,4 km/h (3 Bft) W-SW 257 0 min 0,000 mm 0,9 UV-I 118 W/m 12,8 C 17,1 C 29,0 km/h (5 Bft) 100,00 %
29.06.2017 12:48 20,3 C 25,0 C 62 % 998,1 hPa 0,0 l/m 18,6 km/h (3 Bft) W-SW 258 0 min 0,000 mm 0,8 UV-I 106 W/m 12,8 C 16,9 C 24,1 km/h (4 Bft) 100,00 %
29.06.2017 12:50 20,2 C 25,0 C 61 % 998,1 hPa 0,0 l/m 19,0 km/h (3 Bft) S-SW 211 0 min 0,000 mm 0,6 UV-I 88 W/m 12,4 C 16,6 C 27,4 km/h (4 Bft) 96,00 %
29.06.2017 12:52 20,0 C 25,0 C 62 % 998,1 hPa 0,0 l/m 21,5 km/h (4 Bft) S-SW 211 0 min 0,000 mm 0,5 UV-I 76 W/m 12,5 C 15,9 C 32,2 km/h (5 Bft) 97,87 %
29.06.2017 12:54 19,9 C 25,0 C 62 % 998,2 hPa 0,0 l/m 14,9 km/h (3 Bft) W-SW 254 0 min 0,000 mm 0,5 UV-I 74 W/m 12,4 C 17,2 C 24,1 km/h (4 Bft) 95,83 %
29.06.2017 12:56 19,7 C 25,0 C 63 % 998,2 hPa 0,0 l/m 20,3 km/h (4 Bft) W-SW 241 0 min 0,000 mm 0,5 UV-I 78 W/m 12,5 C 15,8 C 35,4 km/h (5 Bft) 97,14 %
29.06.2017 12:58 19,6 C 25,0 C 64 % 998,3 hPa 0,0 l/m 22,3 km/h (4 Bft) W-SW 257 0 min 0,000 mm 0,5 UV-I 76 W/m 12,6 C 15,3 C 38,6 km/h (5 Bft) 93,18 %
29.06.2017 13:00 19,4 C 25,0 C 64 % 998,4 hPa 0,0 l/m 22,6 km/h (4 Bft) W-SW 239 0 min 0,000 mm 0,5 UV-I 83 W/m 12,4 C 15,0 C 32,2 km/h (5 Bft) 100,00 %
29.06.2017 13:02 19,4 C 25,0 C 65 % 998,3 hPa 0,0 l/m 17,3 km/h (3 Bft) W-SW 239 0 min 0,381 mm 0,6 UV-I 89 W/m 12,6 C 16,0 C 25,7 km/h (4 Bft) 97,73 %
29.06.2017 13:04 19,3 C 25,0 C 66 % 998,4 hPa 0,0 l/m 18,8 km/h (3 Bft) W 269 0 min 0,000 mm 0,6 UV-I 84 W/m 12,8 C 15,5 C 27,4 km/h (4 Bft) 98,00 %
29.06.2017 13:06 19,3 C 25,0 C 67 % 998,5 hPa 0,0 l/m 19,1 km/h (3 Bft) W 264 0 min 0,000 mm 0,5 UV-I 83 W/m 13,0 C 15,5 C 33,8 km/h (5 Bft) 91,49 %
29.06.2017 13:08 19,2 C 25,0 C 67 % 998,5 hPa 0,0 l/m 19,8 km/h (3 Bft) W-SW 240 0 min 0,000 mm 0,6 UV-I 87 W/m 12,9 C 15,2 C 32,2 km/h (5 Bft) 92,45 %
29.06.2017 13:10 19,1 C 24,4 C 67 % 998,5 hPa 0,0 l/m 18,8 km/h (3 Bft) W-SW 244 0 min 0,000 mm 0,6 UV-I 97 W/m 12,8 C 15,3 C 30,6 km/h (5 Bft) 97,56 %
29.06.2017 13:12 18,9 C 24,4 C 67 % 998,6 hPa 0,0 l/m 18,2 km/h (3 Bft) W-SW 250 0 min 0,000 mm 0,7 UV-I 110 W/m 12,6 C 15,2 C 29,0 km/h (5 Bft) 98,11 %
29.06.2017 13:14 18,7 C 24,4 C 69 % 998,6 hPa 0,0 l/m 22,1 km/h (4 Bft) W 266 0 min 0,000 mm 0,9 UV-I 135 W/m 12,9 C 14,1 C 38,6 km/h (5 Bft) 89,47 %
29.06.2017 13:16 18,4 C 24,4 C 71 % 998,6 hPa 0,0 l/m 14,3 km/h (3 Bft) SW 220 0 min 0,000 mm 1,2 UV-I 173 W/m 13,0 C 15,5 C 25,7 km/h (4 Bft) 95,74 %
29.06.2017 13:18 18,2 C 24,4 C 73 % 998,7 hPa 0,0 l/m 12,3 km/h (3 Bft) W-NW 288 0 min 0,000 mm 1,8 UV-I 240 W/m 13,3 C 15,9 C 20,9 km/h (4 Bft) 92,00 %
29.06.2017 13:20 18,1 C 25,0 C 74 % 998,7 hPa 0,0 l/m 10,9 km/h (2 Bft) W 273 0 min 0,000 mm 2,8 UV-I 325 W/m 13,4 C 16,2 C 22,5 km/h (4 Bft) 97,87 %
29.06.2017 13:22 18,2 C 25,0 C 75 % 998,7 hPa 0,0 l/m 14,2 km/h (3 Bft) W-SW 240 0 min 0,000 mm 5,4 UV-I 391 W/m 13,7 C 15,3 C 24,1 km/h (4 Bft) 94,74 %
29.06.2017 13:24 18,7 C 25,0 C 78 % 998,6 hPa 0,0 l/m 7,7 km/h (2 Bft) W-SW 257 2 min 0,000 mm 6,1 UV-I 1098 W/m 14,8 C 18,1 C 16,1 km/h (3 Bft) 96,77 %
29.06.2017 13:26 19,3 C 25,0 C 72 % 998,6 hPa 0,0 l/m 8,6 km/h (2 Bft) SW 227 2 min 0,000 mm 7,0 UV-I 1078 W/m 14,1 C 18,4 C 14,5 km/h (3 Bft) 97,56 %
29.06.2017 13:28 19,7 C 25,0 C 70 % 998,6 hPa 0,0 l/m 16,0 km/h (3 Bft) W-SW 253 2 min 0,000 mm 7,2 UV-I 1108 W/m 14,1 C 16,6 C 22,5 km/h (4 Bft) 95,12 %
29.06.2017 13:30 19,9 C 25,0 C 67 % 998,6 hPa 0,0 l/m 18,8 km/h (3 Bft) W-SW 250 2 min 0,000 mm 7,2 UV-I 975 W/m 13,6 C 16,3 C 30,6 km/h (5 Bft) 92,86 %
29.06.2017 13:32 20,2 C 25,0 C 66 % 998,5 hPa 0,0 l/m 16,6 km/h (3 Bft) W 281 2 min 0,000 mm 5,7 UV-I 868 W/m 13,6 C 17,1 C 25,7 km/h (4 Bft) 95,12 %
29.06.2017 13:34 20,3 C 25,0 C 65 % 998,5 hPa 0,0 l/m 15,2 km/h (3 Bft) SW 233 2 min 0,000 mm 4,5 UV-I 750 W/m 13,5 C 17,6 C 35,4 km/h (5 Bft) 97,73 %
29.06.2017 13:36 20,4 C 25,0 C 65 % 998,5 hPa 0,0 l/m 15,6 km/h (3 Bft) W-SW 253 0 min 0,000 mm 3,4 UV-I 336 W/m 13,6 C 17,6 C 24,1 km/h (4 Bft) 98,11 %
29.06.2017 13:38 20,2 C 25,0 C 63 % 998,5 hPa 0,0 l/m 19,8 km/h (3 Bft) W-SW 241 0 min 0,000 mm 2,6 UV-I 267 W/m 12,9 C 16,5 C 37,0 km/h (5 Bft) 90,00 %
29.06.2017 13:40 20,2 C 25,0 C 64 % 998,5 hPa 0,0 l/m 16,9 km/h (3 Bft) W-SW 240 0 min 0,000 mm 2,2 UV-I 250 W/m 13,2 C 17,1 C 27,4 km/h (4 Bft) 100,00 %
29.06.2017 13:42 20,1 C 25,0 C 64 % 998,6 hPa 0,0 l/m 20,2 km/h (4 Bft) W-SW 246 0 min 0,000 mm 1,7 UV-I 211 W/m 13,1 C 16,3 C 33,8 km/h (5 Bft) 96,23 %
29.06.2017 13:44 19,9 C 25,0 C 64 % 998,6 hPa 0,0 l/m 20,1 km/h (4 Bft) W-NW 285 0 min 0,000 mm 1,5 UV-I 189 W/m 12,9 C 16,1 C 37,0 km/h (5 Bft) 100,00 %
29.06.2017 13:46 19,9 C 25,0 C 64 % 998,6 hPa 0,0 l/m 16,7 km/h (3 Bft) SW 234 0 min 0,000 mm 1,2 UV-I 163 W/m 12,9 C 16,7 C 25,7 km/h (4 Bft) 98,11 %
29.06.2017 13:48 19,8 C 25,0 C 66 % 998,6 hPa 0,0 l/m 12,6 km/h (3 Bft) SW 231 0 min 0,000 mm 1,2 UV-I 172 W/m 13,3 C 17,6 C 20,9 km/h (4 Bft) 100,00 %
29.06.2017 13:50 19,8 C 25,0 C 66 % 998,6 hPa 0,0 l/m 11,2 km/h (2 Bft) W 273 0 min 0,000 mm 2,5 UV-I 309 W/m 13,3 C 18,0 C 16,1 km/h (3 Bft) 100,00 %
29.06.2017 13:52 19,9 C 25,0 C 66 % 998,6 hPa 0,0 l/m 8,9 km/h (2 Bft) W-SW 244 2 min 0,000 mm 4,3 UV-I 554 W/m 13,4 C 18,9 C 14,5 km/h (3 Bft) 100,00 %
29.06.2017 13:54 20,4 C 25,0 C 66 % 998,6 hPa 0,0 l/m 13,1 km/h (3 Bft) W-SW 253 2 min 0,000 mm 6,1 UV-I 613 W/m 13,8 C 18,2 C 19,3 km/h (3 Bft) 100,00 %
29.06.2017 13:56 20,8 C 25,0 C 64 % 998,7 hPa 0,0 l/m 14,0 km/h (3 Bft) W-SW 238 2 min 0,000 mm 4,3 UV-I 613 W/m 13,7 C 18,4 C 27,4 km/h (4 Bft) 100,00 %
29.06.2017 13:58 20,9 C 25,0 C 63 % 998,7 hPa 0,0 l/m 17,3 km/h (3 Bft) SW 234 0 min 0,000 mm 3,1 UV-I 364 W/m 13,6 C 17,9 C 27,4 km/h (4 Bft) 100,00 %
29.06.2017 14:00 20,9 C 25,0 C 60 % 998,7 hPa 0,0 l/m 25,2 km/h (4 Bft) W 267 0 min 0,305 mm 2,5 UV-I 326 W/m 12,8 C 16,6 C 35,4 km/h (5 Bft) 95,12 %
29.06.2017 14:02 20,9 C 25,0 C 59 % 998,7 hPa 0,0 l/m 19,2 km/h (3 Bft) W 280 0 min 0,000 mm 2,5 UV-I 354 W/m 12,6 C 17,5 C 30,6 km/h (5 Bft) 95,74 %
29.06.2017 14:04 20,8 C 25,0 C 59 % 998,9 hPa 0,0 l/m 22,4 km/h (4 Bft) W 261 0 min 0,000 mm 2,9 UV-I 406 W/m 12,5 C 16,8 C 35,4 km/h (5 Bft) 100,00 %
29.06.2017 14:06 20,8 C 25,0 C 58 % 998,9 hPa 0,0 l/m 22,6 km/h (4 Bft) W-SW 244 2 min 0,000 mm 3,4 UV-I 479 W/m 12,2 C 16,8 C 32,2 km/h (5 Bft) 98,00 %
29.06.2017 14:08 20,8 C 25,0 C 59 % 999,0 hPa 0,0 l/m 24,0 km/h (4 Bft) W 271 2 min 0,000 mm 3,8 UV-I 535 W/m 12,5 C 16,6 C 38,6 km/h (5 Bft) 95,74 %
29.06.2017 14:10 20,9 C 25,0 C 59 % 999,0 hPa 0,0 l/m 19,3 km/h (3 Bft) W-SW 256 2 min 0,000 mm 4,7 UV-I 671 W/m 12,6 C 17,5 C 33,8 km/h (5 Bft) 100,00 %
29.06.2017 14:12 21,2 C 25,0 C 59 % 999,0 hPa 0,0 l/m 24,0 km/h (4 Bft) S-SW 205 2 min 0,000 mm 6,4 UV-I 827 W/m 12,9 C 17,1 C 32,2 km/h (5 Bft) 98,21 %
29.06.2017 14:14 21,6 C 25,0 C 58 % 999,0 hPa 0,0 l/m 20,8 km/h (4 Bft) W-SW 253 2 min 0,000 mm 6,7 UV-I 1024 W/m 13,0 C 18,1 C 29,0 km/h (5 Bft) 97,44 %
29.06.2017 14:16 21,9 C 25,0 C 59 % 998,9 hPa 0,0 l/m 13,7 km/h (3 Bft) W-SW 244 2 min 0,000 mm 5,8 UV-I 903 W/m 13,5 C 19,8 C 24,1 km/h (4 Bft) 100,00 %
29.06.2017 14:18 22,1 C 25,0 C 56 % 998,9 hPa 0,0 l/m 22,5 km/h (4 Bft) W 261 2 min 0,000 mm 6,2 UV-I 901 W/m 12,9 C 18,6 C 41,8 km/h (6 Bft) 100,00 %
29.06.2017 14:20 22,1 C 25,0 C 58 % 998,8 hPa 0,0 l/m 12,1 km/h (2 Bft) W 266 2 min 0,000 mm 6,2 UV-I 1142 W/m 13,4 C 20,4 C 19,3 km/h (3 Bft) 97,56 %
29.06.2017 14:22 22,1 C 25,0 C 59 % 998,7 hPa 0,0 l/m 13,4 km/h (3 Bft) W 264 2 min 0,000 mm 4,3 UV-I 932 W/m 13,7 C 20,1 C 22,5 km/h (4 Bft) 97,73 %
29.06.2017 14:24 21,9 C 25,0 C 58 % 998,7 hPa 0,0 l/m 17,7 km/h (3 Bft) W-SW 251 2 min 0,000 mm 4,2 UV-I 562 W/m 13,3 C 19,0 C 32,2 km/h (5 Bft) 100,00 %
29.06.2017 14:26 21,8 C 25,0 C 59 % 998,8 hPa 0,0 l/m 12,5 km/h (3 Bft) W-NW 283 2 min 0,000 mm 4,7 UV-I 514 W/m 13,4 C 20,0 C 17,7 km/h (3 Bft) 95,74 %
29.06.2017 14:28 21,8 C 25,0 C 60 % 998,8 hPa 0,0 l/m 6,1 km/h (2 Bft) W-NW 282 2 min 0,000 mm 4,7 UV-I 534 W/m 13,7 C 21,8 C 14,5 km/h (3 Bft) 97,56 %
29.06.2017 14:30 22,0 C 25,0 C 59 % 998,8 hPa 0,0 l/m 10,0 km/h (2 Bft) W-SW 251 2 min 0,000 mm 4,4 UV-I 536 W/m 13,6 C 20,8 C 19,3 km/h (3 Bft) 100,00 %
29.06.2017 14:32 21,9 C 25,0 C 59 % 998,8 hPa 0,0 l/m 15,3 km/h (3 Bft) W 270 0 min 0,000 mm 3,6 UV-I 442 W/m 13,5 C 19,5 C 20,9 km/h (4 Bft) 97,87 %
29.06.2017 14:34 21,7 C 25,0 C 58 % 999,0 hPa 0,0 l/m 12,1 km/h (2 Bft) W 275 0 min 0,000 mm 2,9 UV-I 329 W/m 13,1 C 20,0 C 22,5 km/h (4 Bft) 97,87 %
29.06.2017 14:36 21,4 C 25,0 C 60 % 998,8 hPa 0,0 l/m 10,8 km/h (2 Bft) SW 221 0 min 0,000 mm 2,8 UV-I 332 W/m 13,3 C 20,0 C 19,3 km/h (3 Bft) 96,23 %
29.06.2017 14:38 21,3 C 25,0 C 61 % 998,7 hPa 0,0 l/m 8,2 km/h (2 Bft) SW 231 0 min 0,000 mm 2,5 UV-I 311 W/m 13,5 C 20,6 C 16,1 km/h (3 Bft) 97,56 %
29.06.2017 14:40 21,2 C 25,0 C 60 % 998,7 hPa 0,0 l/m 12,1 km/h (2 Bft) W 279 0 min 0,000 mm 2,1 UV-I 289 W/m 13,1 C 19,4 C 24,1 km/h (4 Bft) 100,00 %
29.06.2017 14:42 21,2 C 25,0 C 60 % 998,8 hPa 0,0 l/m 15,0 km/h (3 Bft) SW 235 0 min 0,000 mm 1,9 UV-I 267 W/m 13,1 C 18,7 C 30,6 km/h (5 Bft) 97,14 %
29.06.2017 14:44 21,0 C 25,0 C 60 % 998,8 hPa 0,0 l/m 10,1 km/h (2 Bft) SW 226 0 min 0,000 mm 1,7 UV-I 247 W/m 12,9 C 19,7 C 17,7 km/h (3 Bft) 100,00 %
29.06.2017 14:46 20,8 C 25,0 C 60 % 998,8 hPa 0,0 l/m 10,6 km/h (2 Bft) SW 214 0 min 0,000 mm 1,8 UV-I 257 W/m 12,7 C 19,3 C 16,1 km/h (3 Bft) 98,11 %
29.06.2017 14:48 20,8 C 25,0 C 62 % 998,8 hPa 0,0 l/m 8,7 km/h (2 Bft) W-SW 246 0 min 0,000 mm 2,9 UV-I 288 W/m 13,2 C 19,9 C 14,5 km/h (3 Bft) 97,56 %
29.06.2017 14:50 21,1 C 25,0 C 61 % 998,7 hPa 0,0 l/m 10,1 km/h (2 Bft) SW 232 2 min 0,000 mm 5,6 UV-I 991 W/m 13,3 C 19,8 C 16,1 km/h (3 Bft) 100,00 %
29.06.2017 14:52 21,4 C 25,0 C 61 % 998,7 hPa 0,0 l/m 7,4 km/h (2 Bft) SW 217 2 min 0,000 mm 5,6 UV-I 972 W/m 13,6 C 21,0 C 17,7 km/h (3 Bft) 96,23 %
29.06.2017 14:54 21,8 C 25,0 C 60 % 998,7 hPa 0,0 l/m 6,8 km/h (2 Bft) SW 221 2 min 0,000 mm 5,5 UV-I 925 W/m 13,7 C 21,7 C 12,9 km/h (3 Bft) 97,44 %
29.06.2017 14:56 22,1 C 25,0 C 58 % 998,8 hPa 0,0 l/m 10,3 km/h (2 Bft) SW 228 2 min 0,000 mm 5,0 UV-I 907 W/m 13,4 C 20,9 C 16,1 km/h (3 Bft) 98,18 %
29.06.2017 14:58 22,3 C 25,0 C 59 % 998,7 hPa 0,0 l/m 11,6 km/h (2 Bft) W-SW 244 2 min 0,000 mm 5,5 UV-I 885 W/m 13,9 C 20,8 C 17,7 km/h (3 Bft) 98,00 %
29.06.2017 15:00 22,4 C 25,0 C 54 % 998,8 hPa 0,0 l/m 15,3 km/h (3 Bft) W-SW 253 2 min 0,457 mm 5,5 UV-I 876 W/m 12,6 C 20,1 C 27,4 km/h (4 Bft) 94,87 %
29.06.2017 15:02 22,4 C 25,0 C 54 % 998,8 hPa 0,0 l/m 19,9 km/h (4 Bft) S-SW 213 2 min 0,000 mm 5,4 UV-I 829 W/m 12,6 C 19,3 C 38,6 km/h (5 Bft) 98,00 %
29.06.2017 15:04 22,3 C 25,0 C 55 % 998,8 hPa 0,0 l/m 17,3 km/h (3 Bft) W 271 2 min 0,000 mm 5,3 UV-I 859 W/m 12,8 C 19,6 C 25,7 km/h (4 Bft) 96,00 %
29.06.2017 15:06 22,4 C 25,0 C 55 % 998,8 hPa 0,0 l/m 8,3 km/h (2 Bft) S 180 2 min 0,000 mm 5,3 UV-I 869 W/m 12,9 C 21,8 C 22,5 km/h (4 Bft) 96,00 %
29.06.2017 15:08 22,6 C 25,0 C 56 % 998,6 hPa 0,0 l/m 18,7 km/h (3 Bft) W-SW 237 2 min 0,000 mm 4,6 UV-I 833 W/m 13,4 C 19,8 C 30,6 km/h (5 Bft) 95,45 %
29.06.2017 15:10 22,7 C 25,0 C 55 % 998,7 hPa 0,0 l/m 14,3 km/h (3 Bft) W 268 2 min 0,000 mm 5,4 UV-I 795 W/m 13,2 C 20,7 C 20,9 km/h (4 Bft) 100,00 %
29.06.2017 15:12 22,9 C 25,0 C 55 % 998,6 hPa 0,0 l/m 11,7 km/h (2 Bft) SW 223 2 min 0,000 mm 5,3 UV-I 980 W/m 13,4 C 21,4 C 24,1 km/h (4 Bft) 90,91 %
29.06.2017 15:14 22,9 C 25,0 C 54 % 998,6 hPa 0,0 l/m 15,8 km/h (3 Bft) W-SW 257 2 min 0,000 mm 3,4 UV-I 652 W/m 13,1 C 20,6 C 24,1 km/h (4 Bft) 90,38 %
29.06.2017 15:16 22,6 C 25,0 C 54 % 998,7 hPa 0,0 l/m 13,1 km/h (3 Bft) S-SW 211 0 min 0,000 mm 3,5 UV-I 340 W/m 12,8 C 20,8 C 20,9 km/h (4 Bft) 95,74 %
29.06.2017 15:18 22,6 C 25,0 C 55 % 998,7 hPa 0,0 l/m 8,9 km/h (2 Bft) W 262 0 min 0,000 mm 3,2 UV-I 343 W/m 13,1 C 21,8 C 14,5 km/h (3 Bft) 93,62 %
29.06.2017 15:20 22,4 C 25,0 C 54 % 998,6 hPa 0,0 l/m 15,1 km/h (3 Bft) W 265 0 min 0,000 mm 2,6 UV-I 303 W/m 12,6 C 20,1 C 27,4 km/h (4 Bft) 96,23 %
29.06.2017 15:22 22,3 C 25,0 C 55 % 998,7 hPa 0,0 l/m 15,2 km/h (3 Bft) SW 234 0 min 0,000 mm 2,6 UV-I 334 W/m 12,8 C 20,0 C 24,1 km/h (4 Bft) 92,11 %
29.06.2017 15:24 22,2 C 25,0 C 56 % 998,7 hPa 0,0 l/m 13,2 km/h (3 Bft) W-SW 238 0 min 0,000 mm 2,3 UV-I 297 W/m 13,0 C 20,3 C 19,3 km/h (3 Bft) 94,55 %
29.06.2017 15:26 22,1 C 25,0 C 57 % 998,7 hPa 0,0 l/m 12,4 km/h (3 Bft) W-SW 248 0 min 0,000 mm 3,0 UV-I 379 W/m 13,2 C 20,4 C 20,9 km/h (4 Bft) 95,45 %
29.06.2017 15:28 22,1 C 25,0 C 57 % 998,7 hPa 0,0 l/m 10,5 km/h (2 Bft) W 274 0 min 0,000 mm 2,7 UV-I 322 W/m 13,2 C 20,8 C 20,9 km/h (4 Bft) 96,00 %
29.06.2017 15:30 22,0 C 25,0 C 58 % 998,7 hPa 0,0 l/m 5,6 km/h (1 Bft) SW 234 0 min 0,000 mm 3,5 UV-I 323 W/m 13,3 C 22,0 C 12,9 km/h (3 Bft) 97,73 %
29.06.2017 15:32 22,2 C 25,0 C 58 % 998,8 hPa 0,0 l/m 11,5 km/h (2 Bft) W-SW 255 0 min 0,000 mm 4,7 UV-I 367 W/m 13,5 C 20,7 C 20,9 km/h (4 Bft) 94,87 %
29.06.2017 15:34 22,4 C 25,0 C 57 % 998,7 hPa 0,0 l/m 13,7 km/h (3 Bft) W-SW 240 2 min 0,000 mm 4,5 UV-I 813 W/m 13,5 C 20,4 C 20,9 km/h (4 Bft) 96,88 %
29.06.2017 15:36 22,7 C 25,0 C 56 % 998,8 hPa 0,0 l/m 15,2 km/h (3 Bft) W-SW 244 2 min 0,000 mm 4,5 UV-I 804 W/m 13,5 C 20,5 C 22,5 km/h (4 Bft) 95,77 %
29.06.2017 15:38 22,7 C 25,0 C 55 % 998,7 hPa 0,0 l/m 7,3 km/h (2 Bft) W-NW 303 2 min 0,000 mm 4,4 UV-I 824 W/m 13,2 C 22,4 C 16,1 km/h (3 Bft) 97,56 %
29.06.2017 15:40 22,8 C 25,0 C 56 % 998,7 hPa 0,0 l/m 8,7 km/h (2 Bft) W 269 2 min 0,000 mm 3,7 UV-I 844 W/m 13,6 C 22,1 C 17,7 km/h (3 Bft) 98,00 %
29.06.2017 15:42 22,8 C 25,0 C 55 % 998,8 hPa 0,0 l/m 7,3 km/h (2 Bft) W-SW 252 2 min 0,000 mm 2,7 UV-I 844 W/m 13,3 C 22,5 C 12,9 km/h (3 Bft) 97,73 %
29.06.2017 15:44 22,7 C 25,0 C 54 % 998,7 hPa 0,0 l/m 15,1 km/h (3 Bft) W 269 2 min 0,000 mm 2,3 UV-I 488 W/m 12,9 C 20,5 C 20,9 km/h (4 Bft) 98,11 %
29.06.2017 15:46 22,4 C 25,0 C 55 % 998,7 hPa 0,0 l/m 10,6 km/h (2 Bft) S-SW 205 0 min 0,000 mm 2,2 UV-I 240 W/m 12,9 C 21,1 C 17,7 km/h (3 Bft) 97,73 %
29.06.2017 15:48 22,3 C 25,0 C 56 % 998,7 hPa 0,0 l/m 10,4 km/h (2 Bft) W-SW 248 0 min 0,000 mm 2,9 UV-I 273 W/m 13,1 C 21,1 C 24,1 km/h (4 Bft) 97,56 %
29.06.2017 15:50 22,2 C 25,0 C 55 % 998,7 hPa 0,0 l/m 12,2 km/h (2 Bft) W-NW 292 2 min 0,000 mm 3,5 UV-I 464 W/m 12,7 C 20,5 C 19,3 km/h (3 Bft) 94,00 %
29.06.2017 15:52 22,3 C 25,0 C 55 % 998,7 hPa 0,0 l/m 11,0 km/h (2 Bft) W 262 2 min 0,000 mm 3,7 UV-I 464 W/m 12,8 C 20,9 C 17,7 km/h (3 Bft) 96,23 %
29.06.2017 15:54 22,6 C 25,0 C 56 % 998,7 hPa 0,0 l/m 12,3 km/h (3 Bft) SW 231 2 min 0,000 mm 4,0 UV-I 609 W/m 13,4 C 21,0 C 17,7 km/h (3 Bft) 94,74 %
29.06.2017 15:56 22,8 C 25,0 C 53 % 998,7 hPa 0,0 l/m 13,0 km/h (3 Bft) W-SW 239 2 min 0,000 mm 3,4 UV-I 782 W/m 12,7 C 21,0 C 17,7 km/h (3 Bft) 96,43 %
29.06.2017 15:58 22,7 C 25,0 C 53 % 998,7 hPa 0,0 l/m 11,8 km/h (2 Bft) W 278 0 min 0,000 mm 2,4 UV-I 333 W/m 12,6 C 21,2 C 16,1 km/h (3 Bft) 97,37 %
29.06.2017 16:00 22,6 C 25,0 C 54 % 998,7 hPa 0,0 l/m 12,1 km/h (2 Bft) NW 314 0 min 0,000 mm 2,2 UV-I 200 W/m 12,8 C 21,0 C 20,9 km/h (4 Bft) 92,86 %
29.06.2017 16:02 22,4 C 25,0 C 55 % 998,7 hPa 0,0 l/m 6,8 km/h (2 Bft) SW 220 0 min 0,406 mm 2,1 UV-I 205 W/m 12,9 C 22,3 C 12,9 km/h (3 Bft) 95,74 %
29.06.2017 16:04 22,3 C 25,0 C 56 % 998,7 hPa 0,0 l/m 7,7 km/h (2 Bft) W-SW 247 0 min 0,000 mm 2,3 UV-I 271 W/m 13,1 C 21,9 C 16,1 km/h (3 Bft) 97,37 %
29.06.2017 16:06 22,3 C 25,0 C 55 % 998,7 hPa 0,0 l/m 6,9 km/h (2 Bft) W 267 2 min 0,000 mm 3,0 UV-I 438 W/m 12,8 C 22,1 C 14,5 km/h (3 Bft) 94,64 %
29.06.2017 16:08 22,7 C 25,0 C 55 % 998,7 hPa 0,0 l/m 6,1 km/h (2 Bft) W-SW 243 2 min 0,000 mm 3,6 UV-I 902 W/m 13,2 C 22,7 C 16,1 km/h (3 Bft) 97,37 %
29.06.2017 16:10 22,9 C 25,0 C 54 % 998,7 hPa 0,0 l/m 7,5 km/h (2 Bft) W-NW 294 2 min 0,000 mm 2,6 UV-I 895 W/m 13,1 C 22,5 C 16,1 km/h (3 Bft) 97,92 %
29.06.2017 16:12 23,1 C 25,0 C 54 % 998,7 hPa 0,0 l/m 3,5 km/h (1 Bft) W 270 2 min 0,000 mm 1,8 UV-I 492 W/m 13,3 C 23,1 C 9,7 km/h (2 Bft) 98,18 %
29.06.2017 16:14 23,1 C 25,0 C 53 % 998,7 hPa 0,0 l/m 8,1 km/h (2 Bft) W 277 0 min 0,000 mm 1,7 UV-I 265 W/m 13,0 C 22,6 C 17,7 km/h (3 Bft) 94,87 %
29.06.2017 16:16 23,1 C 25,0 C 54 % 998,8 hPa 0,0 l/m 7,4 km/h (2 Bft) W-SW 256 2 min 0,000 mm 3,1 UV-I 585 W/m 13,3 C 22,8 C 19,3 km/h (3 Bft) 96,15 %
29.06.2017 16:18 23,2 C 25,0 C 52 % 998,7 hPa 0,0 l/m 8,9 km/h (2 Bft) W-SW 254 2 min 0,000 mm 3,6 UV-I 892 W/m 12,8 C 22,5 C 16,1 km/h (3 Bft) 97,37 %
29.06.2017 16:20 23,4 C 25,0 C 52 % 998,7 hPa 0,0 l/m 6,4 km/h (2 Bft) W 281 2 min 0,000 mm 2,8 UV-I 879 W/m 13,0 C 23,4 C 9,7 km/h (2 Bft) 94,92 %
29.06.2017 16:22 23,4 C 25,0 C 52 % 998,7 hPa 0,0 l/m 7,9 km/h (2 Bft) W 269 0 min 0,000 mm 1,8 UV-I 286 W/m 13,0 C 22,9 C 16,1 km/h (3 Bft) 90,91 %
29.06.2017 16:24 23,3 C 25,0 C 52 % 998,8 hPa 0,0 l/m 7,4 km/h (2 Bft) W-SW 240 0 min 0,000 mm 1,7 UV-I 202 W/m 12,9 C 23,0 C 14,5 km/h (3 Bft) 98,00 %
29.06.2017 16:26 23,2 C 25,0 C 53 % 998,8 hPa 0,0 l/m 7,7 km/h (2 Bft) W 280 0 min 0,000 mm 1,6 UV-I 220 W/m 13,1 C 22,8 C 14,5 km/h (3 Bft) 100,00 %
29.06.2017 16:28 23,1 C 25,0 C 53 % 998,8 hPa 0,0 l/m 8,7 km/h (2 Bft) W-SW 248 0 min 0,000 mm 1,6 UV-I 234 W/m 13,0 C 22,4 C 20,9 km/h (4 Bft) 98,11 %
29.06.2017 16:30 22,9 C 25,0 C 52 % 998,8 hPa 0,0 l/m 9,0 km/h (2 Bft) W-SW 253 0 min 0,000 mm 1,5 UV-I 230 W/m 12,5 C 22,1 C 14,5 km/h (3 Bft) 100,00 %
29.06.2017 16:32 22,8 C 25,0 C 53 % 998,8 hPa 0,0 l/m 7,3 km/h (2 Bft) NW 308 0 min 0,000 mm 1,5 UV-I 229 W/m 12,7 C 22,5 C 12,9 km/h (3 Bft) 95,12 %
29.06.2017 16:34 22,6 C 25,0 C 53 % 998,8 hPa 0,0 l/m 6,2 km/h (2 Bft) W 278 0 min 0,000 mm 1,4 UV-I 246 W/m 12,5 C 22,6 C 16,1 km/h (3 Bft) 100,00 %
29.06.2017 16:36 22,5 C 25,0 C 54 % 998,8 hPa 0,0 l/m 5,5 km/h (1 Bft) W 277 0 min 0,000 mm 1,6 UV-I 323 W/m 12,7 C 22,5 C 11,3 km/h (2 Bft) 97,56 %
29.06.2017 16:38 22,5 C 25,0 C 54 % 998,8 hPa 0,0 l/m 4,9 km/h (1 Bft) W 273 0 min 0,000 mm 1,7 UV-I 311 W/m 12,7 C 22,5 C 11,3 km/h (2 Bft) 98,11 %
29.06.2017 16:40 22,6 C 25,0 C 54 % 998,8 hPa 0,0 l/m 7,7 km/h (2 Bft) SW 226 0 min 0,000 mm 1,6 UV-I 283 W/m 12,8 C 22,2 C 16,1 km/h (3 Bft) 100,00 %
29.06.2017 16:42 22,6 C 25,0 C 54 % 998,8 hPa 0,0 l/m 10,7 km/h (2 Bft) SW 227 0 min 0,000 mm 1,6 UV-I 272 W/m 12,8 C 21,3 C 22,5 km/h (4 Bft) 97,87 %
29.06.2017 16:44 22,6 C 25,0 C 54 % 998,8 hPa 0,0 l/m 13,0 km/h (3 Bft) W 259 0 min 0,000 mm 1,6 UV-I 281 W/m 12,8 C 20,8 C 30,6 km/h (5 Bft) 97,37 %
29.06.2017 16:46 22,6 C 25,0 C 52 % 998,9 hPa 0,0 l/m 16,3 km/h (3 Bft) W 268 0 min 0,000 mm 1,6 UV-I 309 W/m 12,2 C 20,2 C 22,5 km/h (4 Bft) 98,11 %
29.06.2017 16:48 22,6 C 25,0 C 52 % 998,9 hPa 0,0 l/m 8,4 km/h (2 Bft) W-SW 239 0 min 0,000 mm 1,5 UV-I 315 W/m 12,2 C 22,0 C 19,3 km/h (3 Bft) 95,24 %
29.06.2017 16:50 22,6 C 25,0 C 53 % 998,8 hPa 0,0 l/m 8,1 km/h (2 Bft) W 266 0 min 0,000 mm 1,5 UV-I 321 W/m 12,5 C 22,1 C 14,5 km/h (3 Bft) 98,18 %
29.06.2017 16:52 22,7 C 25,0 C 53 % 998,8 hPa 0,0 l/m 7,7 km/h (2 Bft) W-SW 249 2 min 0,000 mm 1,7 UV-I 347 W/m 12,6 C 22,3 C 12,9 km/h (3 Bft) 94,87 %
29.06.2017 16:54 22,8 C 25,0 C 53 % 998,9 hPa 0,0 l/m 9,4 km/h (2 Bft) W 261 2 min 0,000 mm 1,7 UV-I 386 W/m 12,7 C 21,9 C 14,5 km/h (3 Bft) 94,44 %
29.06.2017 16:56 22,9 C 25,0 C 52 % 998,8 hPa 0,0 l/m 11,0 km/h (2 Bft) W-SW 246 0 min 0,000 mm 1,6 UV-I 330 W/m 12,5 C 21,6 C 24,1 km/h (4 Bft) 97,44 %
29.06.2017 16:58 22,9 C 25,0 C 51 % 998,9 hPa 0,0 l/m 15,9 km/h (3 Bft) W-SW 248 0 min 0,000 mm 1,5 UV-I 302 W/m 12,2 C 20,6 C 20,9 km/h (4 Bft) 98,11 %
29.06.2017 17:00 22,9 C 25,0 C 52 % 998,9 hPa 0,0 l/m 12,1 km/h (2 Bft) W 281 0 min 0,000 mm 1,4 UV-I 296 W/m 12,5 C 21,3 C 20,9 km/h (4 Bft) 97,56 %
29.06.2017 17:02 22,8 C 25,0 C 51 % 998,9 hPa 0,0 l/m 13,3 km/h (3 Bft) W-SW 253 0 min 0,280 mm 1,4 UV-I 316 W/m 12,1 C 21,0 C 17,7 km/h (3 Bft) 98,11 %
29.06.2017 17:04 22,8 C 25,0 C 52 % 998,9 hPa 0,0 l/m 9,2 km/h (2 Bft) W 275 0 min 0,000 mm 1,4 UV-I 318 W/m 12,4 C 21,9 C 17,7 km/h (3 Bft) 90,24 %
29.06.2017 17:06 22,7 C 25,0 C 51 % 998,9 hPa 0,0 l/m 11,8 km/h (2 Bft) W 277 0 min 0,000 mm 1,4 UV-I 314 W/m 12,0 C 21,2 C 19,3 km/h (3 Bft) 96,23 %
29.06.2017 17:08 22,7 C 25,0 C 52 % 998,9 hPa 0,0 l/m 9,2 km/h (2 Bft) W-NW 287 0 min 0,000 mm 1,4 UV-I 287 W/m 12,3 C 21,8 C 12,9 km/h (3 Bft) 97,56 %
29.06.2017 17:10 22,6 C 25,0 C 52 % 998,8 hPa 0,0 l/m 7,7 km/h (2 Bft) W-SW 247 0 min 0,000 mm 1,3 UV-I 259 W/m 12,2 C 22,2 C 12,9 km/h (3 Bft) 94,00 %
29.06.2017 17:12 22,6 C 25,0 C 53 % 998,8 hPa 0,0 l/m 10,8 km/h (2 Bft) S-SW 198 0 min 0,000 mm 1,2 UV-I 240 W/m 12,5 C 21,3 C 16,1 km/h (3 Bft) 98,11 %
29.06.2017 17:14 22,6 C 25,0 C 53 % 998,8 hPa 0,0 l/m 9,5 km/h (2 Bft) W-SW 246 0 min 0,000 mm 1,1 UV-I 225 W/m 12,5 C 21,6 C 17,7 km/h (3 Bft) 94,74 %
29.06.2017 17:16 22,6 C 25,0 C 52 % 998,9 hPa 0,0 l/m 8,1 km/h (2 Bft) W-SW 253 0 min 0,000 mm 0,9 UV-I 209 W/m 12,2 C 22,1 C 16,1 km/h (3 Bft) 98,00 %
29.06.2017 17:18 22,6 C 25,0 C 52 % 999,0 hPa 0,0 l/m 11,1 km/h (2 Bft) SW 234 0 min 0,000 mm 0,8 UV-I 190 W/m 12,2 C 21,2 C 17,7 km/h (3 Bft) 93,62 %
29.06.2017 17:20 22,5 C 25,0 C 52 % 999,0 hPa 0,0 l/m 9,7 km/h (2 Bft) W 259 0 min 0,000 mm 0,8 UV-I 182 W/m 12,1 C 21,5 C 19,3 km/h (3 Bft) 93,18 %
29.06.2017 17:22 22,4 C 25,0 C 53 % 999,0 hPa 0,0 l/m 6,3 km/h (2 Bft) W 259 0 min 0,000 mm 0,8 UV-I 167 W/m 12,3 C 22,4 C 12,9 km/h (3 Bft) 100,00 %
29.06.2017 17:24 22,4 C 25,0 C 54 % 999,0 hPa 0,0 l/m 5,8 km/h (2 Bft) W-SW 250 0 min 0,000 mm 0,8 UV-I 160 W/m 12,6 C 22,4 C 9,7 km/h (2 Bft) 96,23 %
29.06.2017 17:26 22,4 C 25,0 C 53 % 999,1 hPa 0,0 l/m 10,6 km/h (2 Bft) W 269 0 min 0,000 mm 0,8 UV-I 159 W/m 12,3 C 21,1 C 17,7 km/h (3 Bft) 98,00 %
29.06.2017 17:28 22,4 C 25,0 C 53 % 999,0 hPa 0,0 l/m 7,2 km/h (2 Bft) W 280 0 min 0,000 mm 0,8 UV-I 176 W/m 12,3 C 22,1 C 12,9 km/h (3 Bft) 95,74 %
29.06.2017 17:30 22,4 C 25,0 C 53 % 999,0 hPa 0,0 l/m 7,6 km/h (2 Bft) W-SW 251 0 min 0,000 mm 0,9 UV-I 190 W/m 12,3 C 22,0 C 14,5 km/h (3 Bft) 97,44 %
29.06.2017 17:32 22,4 C 25,0 C 53 % 999,0 hPa 0,0 l/m 6,8 km/h (2 Bft) W 259 0 min 0,000 mm 0,9 UV-I 207 W/m 12,3 C 22,3 C 12,9 km/h (3 Bft) 96,00 %
29.06.2017 17:34 22,4 C 25,0 C 53 % 998,9 hPa 0,0 l/m 7,9 km/h (2 Bft) W-SW 252 0 min 0,000 mm 0,9 UV-I 206 W/m 12,3 C 21,9 C 11,3 km/h (2 Bft) 98,08 %
29.06.2017 17:36 22,4 C 25,0 C 53 % 998,9 hPa 0,0 l/m 6,9 km/h (2 Bft) W-SW 240 0 min 0,000 mm 0,8 UV-I 184 W/m 12,3 C 22,2 C 12,9 km/h (3 Bft) 94,87 %
29.06.2017 17:38 22,4 C 25,0 C 54 % 999,0 hPa 0,0 l/m 5,8 km/h (2 Bft) W-NW 284 0 min 0,000 mm 0,7 UV-I 157 W/m 12,6 C 22,4 C 9,7 km/h (2 Bft) 96,23 %
29.06.2017 17:40 22,3 C 25,0 C 53 % 999,0 hPa 0,0 l/m 9,6 km/h (2 Bft) W-SW 243 0 min 0,000 mm 0,6 UV-I 135 W/m 12,2 C 21,3 C 14,5 km/h (3 Bft) 98,00 %
29.06.2017 17:42 22,3 C 25,0 C 54 % 998,9 hPa 0,0 l/m 3,8 km/h (1 Bft) W 271 0 min 0,000 mm 0,5 UV-I 125 W/m 12,5 C 22,3 C 6,4 km/h (2 Bft) 100,00 %
29.06.2017 17:44 22,3 C 25,0 C 54 % 998,9 hPa 0,0 l/m 5,3 km/h (1 Bft) W-SW 238 0 min 0,000 mm 0,5 UV-I 121 W/m 12,5 C 22,3 C 9,7 km/h (2 Bft) 100,00 %
29.06.2017 17:46 22,3 C 25,0 C 53 % 998,9 hPa 0,0 l/m 2,2 km/h (1 Bft) W-SW 238 0 min 0,000 mm 0,5 UV-I 123 W/m 12,2 C 22,3 C 4,8 km/h (1 Bft) 100,00 %
29.06.2017 17:48 22,3 C 25,0 C 54 % 998,9 hPa 0,0 l/m 4,0 km/h (1 Bft) W-SW 245 0 min 0,000 mm 0,0 UV-I 114 W/m 12,5 C 22,3 C 8,0 km/h (2 Bft) 96,00 %
29.06.2017 17:50 22,3 C 25,0 C 54 % 998,9 hPa 0,0 l/m 7,3 km/h (2 Bft) W-NW 284 0 min 0,000 mm 0,0 UV-I 102 W/m 12,5 C 22,0 C 14,5 km/h (3 Bft) 100,00 %
29.06.2017 17:52 22,2 C 25,0 C 53 % 998,9 hPa 0,0 l/m 12,9 km/h (3 Bft) W-NW 297 0 min 0,000 mm 0,0 UV-I 94 W/m 12,2 C 20,4 C 16,1 km/h (3 Bft) 100,00 %
29.06.2017 17:54 22,2 C 25,0 C 53 % 999,0 hPa 0,0 l/m 8,9 km/h (2 Bft) W-SW 244 0 min 0,000 mm 0,0 UV-I 92 W/m 12,2 C 21,4 C 14,5 km/h (3 Bft) 98,11 %
29.06.2017 17:56 22,2 C 25,0 C 53 % 999,1 hPa 0,0 l/m 10,0 km/h (2 Bft) W-SW 250 0 min 0,000 mm 0,0 UV-I 110 W/m 12,2 C 21,1 C 14,5 km/h (3 Bft) 97,87 %
29.06.2017 17:58 22,2 C 25,0 C 53 % 999,0 hPa 0,0 l/m 8,9 km/h (2 Bft) W-SW 250 0 min 0,000 mm 0,4 UV-I 139 W/m 12,2 C 21,4 C 16,1 km/h (3 Bft) 95,45 %
29.06.2017 18:00 22,2 C 25,0 C 53 % 999,0 hPa 0,0 l/m 12,1 km/h (2 Bft) W-SW 242 0 min 0,178 mm 0,6 UV-I 149 W/m 12,2 C 20,5 C 17,7 km/h (3 Bft) 98,21 %
29.06.2017 18:02 22,3 C 25,0 C 53 % 999,0 hPa 0,0 l/m 13,5 km/h (3 Bft) W-SW 246 0 min 0,000 mm 0,6 UV-I 141 W/m 12,2 C 20,3 C 17,7 km/h (3 Bft) 88,89 %
29.06.2017 18:04 22,3 C 25,0 C 53 % 999,0 hPa 0,0 l/m 9,0 km/h (2 Bft) W 269 0 min 0,000 mm 0,5 UV-I 125 W/m 12,2 C 21,5 C 14,5 km/h (3 Bft) 100,00 %
29.06.2017 18:06 22,3 C 25,0 C 52 % 999,0 hPa 0,0 l/m 11,1 km/h (2 Bft) W 259 0 min 0,000 mm 0,0 UV-I 108 W/m 12,0 C 20,9 C 16,1 km/h (3 Bft) 96,00 %
29.06.2017 18:08 22,3 C 25,0 C 52 % 999,0 hPa 0,0 l/m 10,2 km/h (2 Bft) W 277 0 min 0,000 mm 0,0 UV-I 93 W/m 12,0 C 21,1 C 14,5 km/h (3 Bft) 100,00 %
29.06.2017 18:10 22,3 C 25,0 C 53 % 999,1 hPa 0,0 l/m 8,0 km/h (2 Bft) S-SW 213 0 min 0,000 mm 0,0 UV-I 86 W/m 12,2 C 21,8 C 12,9 km/h (3 Bft) 97,87 %
29.06.2017 18:12 22,3 C 25,0 C 53 % 999,1 hPa 0,0 l/m 9,7 km/h (2 Bft) W-SW 244 0 min 0,000 mm 0,0 UV-I 95 W/m 12,2 C 21,3 C 14,5 km/h (3 Bft) 98,18 %
29.06.2017 18:14 22,2 C 25,0 C 52 % 999,1 hPa 0,0 l/m 10,9 km/h (2 Bft) W-SW 244 0 min 0,000 mm 0,0 UV-I 105 W/m 11,9 C 20,8 C 17,7 km/h (3 Bft) 94,87 %
29.06.2017 18:16 22,2 C 25,0 C 53 % 999,0 hPa 0,0 l/m 7,9 km/h (2 Bft) S-SW 204 0 min 0,000 mm 0,0 UV-I 103 W/m 12,2 C 21,7 C 16,1 km/h (3 Bft) 98,00 %
29.06.2017 18:18 22,2 C 25,0 C 53 % 999,1 hPa 0,0 l/m 8,4 km/h (2 Bft) S-SW 196 0 min 0,000 mm 0,0 UV-I 96 W/m 12,2 C 21,5 C 14,5 km/h (3 Bft) 97,56 %
29.06.2017 18:20 22,2 C 25,0 C 53 % 999,1 hPa 0,0 l/m 7,6 km/h (2 Bft) S-SW 196 0 min 0,000 mm 0,0 UV-I 103 W/m 12,2 C 21,8 C 16,1 km/h (3 Bft) 98,11 %
29.06.2017 18:22 22,2 C 25,0 C 53 % 999,1 hPa 0,0 l/m 10,8 km/h (2 Bft) S-SW 206 0 min 0,000 mm 0,0 UV-I 127 W/m 12,2 C 20,9 C 16,1 km/h (3 Bft) 97,56 %
29.06.2017 18:24 22,1 C 25,0 C 52 % 999,0 hPa 0,0 l/m 8,9 km/h (2 Bft) S-SW 202 0 min 0,000 mm 0,5 UV-I 162 W/m 11,8 C 21,3 C 16,1 km/h (3 Bft) 98,21 %
29.06.2017 18:26 22,1 C 25,0 C 53 % 999,0 hPa 0,0 l/m 10,2 km/h (2 Bft) S-SW 200 0 min 0,000 mm 0,6 UV-I 177 W/m 12,1 C 20,9 C 14,5 km/h (3 Bft) 97,37 %
29.06.2017 18:28 22,1 C 25,0 C 53 % 999,0 hPa 0,0 l/m 11,0 km/h (2 Bft) S-SW 212 0 min 0,000 mm 0,6 UV-I 168 W/m 12,1 C 20,7 C 14,5 km/h (3 Bft) 97,87 %
29.06.2017 18:30 22,1 C 25,0 C 53 % 998,9 hPa 0,0 l/m 9,5 km/h (2 Bft) S-SW 202 0 min 0,000 mm 0,6 UV-I 151 W/m 12,1 C 21,1 C 17,7 km/h (3 Bft) 96,23 %
29.06.2017 18:32 22,0 C 25,0 C 53 % 999,0 hPa 0,0 l/m 11,1 km/h (2 Bft) W-SW 252 0 min 0,000 mm 0,6 UV-I 142 W/m 12,0 C 20,6 C 16,1 km/h (3 Bft) 100,00 %
29.06.2017 18:34 21,9 C 25,0 C 54 % 999,1 hPa 0,0 l/m 11,4 km/h (2 Bft) SW 215 0 min 0,000 mm 0,6 UV-I 145 W/m 12,2 C 20,4 C 17,7 km/h (3 Bft) 98,31 %
29.06.2017 18:36 21,9 C 25,0 C 54 % 999,2 hPa 0,0 l/m 9,3 km/h (2 Bft) SW 215 0 min 0,000 mm 0,6 UV-I 162 W/m 12,2 C 20,9 C 17,7 km/h (3 Bft) 95,45 %
29.06.2017 18:38 21,9 C 25,0 C 53 % 999,2 hPa 0,0 l/m 11,8 km/h (2 Bft) S-SO 164 0 min 0,000 mm 0,6 UV-I 192 W/m 11,9 C 20,3 C 20,9 km/h (4 Bft) 97,37 %
29.06.2017 18:40 22,0 C 25,0 C 53 % 999,2 hPa 0,0 l/m 7,7 km/h (2 Bft) S-SW 193 0 min 0,000 mm 0,6 UV-I 176 W/m 12,0 C 21,6 C 16,1 km/h (3 Bft) 92,45 %
29.06.2017 18:42 22,1 C 25,0 C 53 % 999,2 hPa 0,0 l/m 8,8 km/h (2 Bft) SW 227 2 min 0,000 mm 0,6 UV-I 205 W/m 12,1 C 21,3 C 12,9 km/h (3 Bft) 92,68 %
29.06.2017 18:44 22,1 C 25,0 C 52 % 999,2 hPa 0,0 l/m 4,6 km/h (1 Bft) S-SW 212 2 min 0,000 mm 0,5 UV-I 204 W/m 11,8 C 22,1 C 11,3 km/h (2 Bft) 96,23 %
29.06.2017 18:46 22,2 C 25,0 C 53 % 999,2 hPa 0,0 l/m 6,4 km/h (2 Bft) S 171 2 min 0,000 mm 0,5 UV-I 191 W/m 12,2 C 22,2 C 12,9 km/h (3 Bft) 87,18 %
29.06.2017 18:48 22,1 C 25,0 C 54 % 999,2 hPa 0,0 l/m 8,7 km/h (2 Bft) S 183 2 min 0,000 mm 0,5 UV-I 191 W/m 12,3 C 21,3 C 20,9 km/h (4 Bft) 94,34 %
29.06.2017 18:50 22,1 C 25,0 C 52 % 999,2 hPa 0,0 l/m 12,1 km/h (2 Bft) S 172 2 min 0,000 mm 0,5 UV-I 190 W/m 11,8 C 20,4 C 22,5 km/h (4 Bft) 94,00 %
29.06.2017 18:52 22,2 C 25,0 C 52 % 999,3 hPa 0,0 l/m 12,6 km/h (3 Bft) S-SW 202 2 min 0,000 mm 0,6 UV-I 293 W/m 11,9 C 20,4 C 19,3 km/h (3 Bft) 89,80 %
29.06.2017 18:54 22,3 C 25,0 C 52 % 999,3 hPa 0,0 l/m 9,4 km/h (2 Bft) SW 216 2 min 0,000 mm 0,6 UV-I 342 W/m 12,0 C 21,3 C 19,3 km/h (3 Bft) 89,58 %
29.06.2017 18:56 22,5 C 25,0 C 52 % 999,3 hPa 0,0 l/m 10,9 km/h (2 Bft) S-SW 193 2 min 0,000 mm 0,6 UV-I 326 W/m 12,1 C 21,2 C 17,7 km/h (3 Bft) 92,11 %
29.06.2017 18:58 22,7 C 25,0 C 51 % 999,4 hPa 0,0 l/m 9,9 km/h (2 Bft) S-SW 202 2 min 0,000 mm 0,5 UV-I 315 W/m 12,0 C 21,6 C 17,7 km/h (3 Bft) 94,64 %
29.06.2017 19:00 22,7 C 25,0 C 52 % 999,3 hPa 0,0 l/m 6,5 km/h (2 Bft) SW 221 2 min 0,000 mm 0,5 UV-I 305 W/m 12,3 C 22,7 C 14,5 km/h (3 Bft) 94,29 %
29.06.2017 19:02 22,8 C 25,0 C 51 % 999,3 hPa 0,0 l/m 7,2 km/h (2 Bft) S-SW 213 2 min 0,177 mm 0,5 UV-I 289 W/m 12,1 C 22,5 C 17,7 km/h (3 Bft) 87,50 %
29.06.2017 19:04 22,8 C 25,0 C 51 % 999,4 hPa 0,0 l/m 7,9 km/h (2 Bft) W-SW 248 2 min 0,000 mm 0,2 UV-I 213 W/m 12,1 C 22,3 C 16,1 km/h (3 Bft) 96,15 %
29.06.2017 19:06 22,7 C 25,0 C 51 % 999,5 hPa 0,0 l/m 10,9 km/h (2 Bft) SW 225 0 min 0,000 mm 0,0 UV-I 153 W/m 12,0 C 21,4 C 20,9 km/h (4 Bft) 98,53 %
29.06.2017 19:08 22,6 C 25,0 C 52 % 999,6 hPa 0,0 l/m 12,3 km/h (3 Bft) W-SW 238 0 min 0,000 mm 0,0 UV-I 115 W/m 12,2 C 21,0 C 19,3 km/h (3 Bft) 95,74 %
29.06.2017 19:10 22,4 C 25,0 C 51 % 999,6 hPa 0,0 l/m 11,9 km/h (2 Bft) W-SW 244 0 min 0,000 mm 0,0 UV-I 122 W/m 11,8 C 20,8 C 19,3 km/h (3 Bft) 97,56 %
29.06.2017 19:12 22,2 C 25,0 C 52 % 999,6 hPa 0,0 l/m 12,1 km/h (2 Bft) S 170 0 min 0,000 mm 0,0 UV-I 117 W/m 11,9 C 20,5 C 19,3 km/h (3 Bft) 94,34 %
29.06.2017 19:14 22,1 C 25,0 C 52 % 999,6 hPa 0,0 l/m 8,6 km/h (2 Bft) W-SW 251 0 min 0,000 mm 0,0 UV-I 139 W/m 11,8 C 21,4 C 24,1 km/h (4 Bft) 100,00 %
29.06.2017 19:16 22,0 C 25,0 C 52 % 999,6 hPa 0,0 l/m 8,7 km/h (2 Bft) SW 224 2 min 0,000 mm 0,0 UV-I 176 W/m 11,7 C 21,2 C 16,1 km/h (3 Bft) 98,11 %
29.06.2017 19:18 22,1 C 25,0 C 53 % 999,6 hPa 0,0 l/m 7,2 km/h (2 Bft) S-SW 207 2 min 0,000 mm 0,0 UV-I 271 W/m 12,1 C 21,8 C 12,9 km/h (3 Bft) 97,56 %
29.06.2017 19:20 22,2 C 25,0 C 53 % 999,6 hPa 0,0 l/m 7,4 km/h (2 Bft) S-SO 165 2 min 0,000 mm 0,0 UV-I 281 W/m 12,2 C 21,9 C 12,9 km/h (3 Bft) 100,00 %
29.06.2017 19:22 22,2 C 25,0 C 53 % 999,6 hPa 0,0 l/m 9,0 km/h (2 Bft) S 176 2 min 0,000 mm 0,0 UV-I 273 W/m 12,2 C 21,4 C 16,1 km/h (3 Bft) 97,56 %
29.06.2017 19:24 22,4 C 25,0 C 52 % 999,6 hPa 0,0 l/m 10,0 km/h (2 Bft) S-SW 205 2 min 0,000 mm 0,0 UV-I 255 W/m 12,1 C 21,3 C 20,9 km/h (4 Bft) 97,87 %
29.06.2017 19:26 22,4 C 25,0 C 52 % 999,6 hPa 0,0 l/m 11,9 km/h (2 Bft) S-SW 201 2 min 0,000 mm 0,0 UV-I 214 W/m 12,1 C 20,8 C 20,9 km/h (4 Bft) 97,92 %
29.06.2017 19:28 22,4 C 25,0 C 52 % 999,7 hPa 0,0 l/m 11,2 km/h (2 Bft) SW 216 0 min 0,000 mm 0,0 UV-I 111 W/m 12,1 C 21,0 C 19,3 km/h (3 Bft) 96,00 %
29.06.2017 19:30 22,3 C 25,0 C 52 % 999,6 hPa 0,0 l/m 8,7 km/h (2 Bft) S-SO 163 0 min 0,000 mm 0,0 UV-I 68 W/m 12,0 C 21,6 C 12,9 km/h (3 Bft) 96,15 %
29.06.2017 19:32 22,2 C 25,0 C 52 % 999,6 hPa 0,0 l/m 12,0 km/h (2 Bft) S-SW 192 0 min 0,000 mm 0,0 UV-I 73 W/m 11,9 C 20,6 C 20,9 km/h (4 Bft) 97,62 %
29.06.2017 19:34 22,1 C 25,0 C 51 % 999,6 hPa 0,0 l/m 12,2 km/h (2 Bft) S-SW 192 0 min 0,000 mm 0,0 UV-I 64 W/m 11,5 C 20,4 C 19,3 km/h (3 Bft) 96,55 %
29.06.2017 19:36 21,9 C 25,0 C 52 % 999,6 hPa 0,0 l/m 10,4 km/h (2 Bft) W-SW 244 0 min 0,000 mm 0,0 UV-I 85 W/m 11,6 C 20,6 C 17,7 km/h (3 Bft) 95,16 %
29.06.2017 19:38 21,9 C 25,0 C 53 % 999,7 hPa 0,0 l/m 7,9 km/h (2 Bft) SW 220 0 min 0,000 mm 0,0 UV-I 113 W/m 11,9 C 21,4 C 14,5 km/h (3 Bft) 96,00 %
29.06.2017 19:40 21,8 C 25,0 C 53 % 999,6 hPa 0,0 l/m 10,6 km/h (2 Bft) SW 223 0 min 0,000 mm 0,0 UV-I 101 W/m 11,8 C 20,5 C 14,5 km/h (3 Bft) 97,87 %
29.06.2017 19:42 21,8 C 25,0 C 53 % 999,7 hPa 0,0 l/m 10,5 km/h (2 Bft) SW 231 0 min 0,000 mm 0,0 UV-I 55 W/m 11,8 C 20,5 C 17,7 km/h (3 Bft) 95,74 %
29.06.2017 19:44 21,7 C 25,0 C 53 % 999,7 hPa 0,0 l/m 9,9 km/h (2 Bft) SW 219 0 min 0,000 mm 0,0 UV-I 46 W/m 11,7 C 20,5 C 16,1 km/h (3 Bft) 97,56 %
29.06.2017 19:46 21,7 C 25,0 C 54 % 999,7 hPa 0,0 l/m 8,5 km/h (2 Bft) SW 223 0 min 0,000 mm 0,0 UV-I 48 W/m 12,0 C 21,0 C 14,5 km/h (3 Bft) 96,00 %
29.06.2017 19:48 21,6 C 25,0 C 54 % 999,7 hPa 0,0 l/m 9,7 km/h (2 Bft) SW 222 0 min 0,000 mm 0,0 UV-I 50 W/m 11,9 C 20,5 C 17,7 km/h (3 Bft) 97,87 %
29.06.2017 19:50 21,4 C 25,0 C 53 % 999,8 hPa 0,0 l/m 8,9 km/h (2 Bft) S 180 0 min 0,000 mm 0,0 UV-I 51 W/m 11,4 C 20,5 C 14,5 km/h (3 Bft) 95,45 %
29.06.2017 19:52 21,3 C 25,0 C 54 % 999,7 hPa 0,0 l/m 9,7 km/h (2 Bft) SW 218 0 min 0,000 mm 0,0 UV-I 49 W/m 11,6 C 20,2 C 14,5 km/h (3 Bft) 98,00 %
29.06.2017 19:54 21,3 C 25,0 C 54 % 999,7 hPa 0,0 l/m 9,0 km/h (2 Bft) S-SW 204 0 min 0,000 mm 0,0 UV-I 50 W/m 11,6 C 20,4 C 20,9 km/h (4 Bft) 93,62 %
29.06.2017 19:56 21,2 C 25,0 C 53 % 999,7 hPa 0,0 l/m 10,3 km/h (2 Bft) S-SW 210 0 min 0,000 mm 0,0 UV-I 50 W/m 11,2 C 19,9 C 16,1 km/h (3 Bft) 97,87 %
29.06.2017 19:58 21,1 C 25,0 C 54 % 999,7 hPa 0,0 l/m 9,3 km/h (2 Bft) S-SW 211 0 min 0,000 mm 0,0 UV-I 54 W/m 11,4 C 20,1 C 16,1 km/h (3 Bft) 97,56 %
29.06.2017 20:00 21,1 C 25,0 C 55 % 999,7 hPa 0,0 l/m 9,9 km/h (2 Bft) S-SW 212 0 min 0,000 mm 0,0 UV-I 59 W/m 11,7 C 19,9 C 14,5 km/h (3 Bft) 97,62 %
29.06.2017 20:02 21,0 C 25,0 C 54 % 999,7 hPa 0,0 l/m 7,1 km/h (2 Bft) S-SW 196 0 min 0,153 mm 0,0 UV-I 58 W/m 11,3 C 20,7 C 14,5 km/h (3 Bft) 97,92 %
29.06.2017 20:04 20,9 C 25,0 C 54 % 999,6 hPa 0,0 l/m 8,3 km/h (2 Bft) S 188 0 min 0,000 mm 0,0 UV-I 54 W/m 11,2 C 20,2 C 14,5 km/h (3 Bft) 98,36 %
29.06.2017 20:06 20,9 C 25,0 C 54 % 999,7 hPa 0,0 l/m 10,5 km/h (2 Bft) SW 222 0 min 0,000 mm 0,0 UV-I 50 W/m 11,2 C 19,5 C 12,9 km/h (3 Bft) 94,87 %
29.06.2017 20:08 20,8 C 25,0 C 55 % 999,7 hPa 0,0 l/m 8,1 km/h (2 Bft) SW 217 0 min 0,000 mm 0,0 UV-I 46 W/m 11,4 C 20,2 C 12,9 km/h (3 Bft) 98,18 %
29.06.2017 20:10 20,8 C 25,0 C 55 % 999,7 hPa 0,0 l/m 8,3 km/h (2 Bft) SW 219 0 min 0,000 mm 0,0 UV-I 44 W/m 11,4 C 20,1 C 17,7 km/h (3 Bft) 97,62 %
29.06.2017 20:12 20,8 C 25,0 C 55 % 999,7 hPa 0,0 l/m 7,0 km/h (2 Bft) S-SW 207 0 min 0,000 mm 0,0 UV-I 41 W/m 11,4 C 20,6 C 11,3 km/h (2 Bft) 97,87 %
29.06.2017 20:14 20,7 C 25,0 C 56 % 999,8 hPa 0,0 l/m 6,0 km/h (2 Bft) S-SW 202 0 min 0,000 mm 0,0 UV-I 39 W/m 11,6 C 20,7 C 9,7 km/h (2 Bft) 94,00 %
29.06.2017 20:16 20,6 C 25,0 C 56 % 999,8 hPa 0,0 l/m 5,7 km/h (1 Bft) S-SW 207 0 min 0,000 mm 0,0 UV-I 39 W/m 11,5 C 20,6 C 9,7 km/h (2 Bft) 100,00 %
29.06.2017 20:18 20,6 C 25,0 C 57 % 999,8 hPa 0,0 l/m 5,8 km/h (2 Bft) S-SW 205 0 min 0,000 mm 0,0 UV-I 39 W/m 11,8 C 20,6 C 8,0 km/h (2 Bft) 96,00 %
29.06.2017 20:20 20,5 C 25,0 C 56 % 999,7 hPa 0,0 l/m 3,9 km/h (1 Bft) S-SW 196 0 min 0,000 mm 0,0 UV-I 38 W/m 11,4 C 20,5 C 8,0 km/h (2 Bft) 95,74 %
29.06.2017 20:22 20,4 C 25,0 C 57 % 999,7 hPa 0,0 l/m 2,8 km/h (1 Bft) W-SW 247 0 min 0,000 mm 0,0 UV-I 37 W/m 11,6 C 20,4 C 4,8 km/h (1 Bft) 97,87 %
29.06.2017 20:24 20,4 C 25,0 C 57 % 999,7 hPa 0,0 l/m 2,5 km/h (1 Bft) W-SW 247 0 min 0,000 mm 0,0 UV-I 36 W/m 11,6 C 20,4 C 4,8 km/h (1 Bft) 96,00 %
29.06.2017 20:26 20,4 C 25,0 C 58 % 999,7 hPa 0,0 l/m 1,9 km/h (1 Bft) W-SW 247 0 min 0,000 mm 0,0 UV-I 35 W/m 11,9 C 20,4 C 3,2 km/h (1 Bft) 95,12 %
29.06.2017 20:28 20,3 C 25,0 C 59 % 999,7 hPa 0,0 l/m 3,6 km/h (1 Bft) W-SW 247 0 min 0,000 mm 0,0 UV-I 35 W/m 12,0 C 20,3 C 4,8 km/h (1 Bft) 100,00 %
29.06.2017 20:30 20,2 C 25,0 C 59 % 999,7 hPa 0,0 l/m 2,8 km/h (1 Bft) W-SW 246 0 min 0,000 mm 0,0 UV-I 35 W/m 11,9 C 20,2 C 6,4 km/h (2 Bft) 96,00 %
29.06.2017 20:32 20,2 C 25,0 C 59 % 999,8 hPa 0,0 l/m 2,6 km/h (1 Bft) W-SW 242 0 min 0,000 mm 0,0 UV-I 34 W/m 11,9 C 20,2 C 6,4 km/h (2 Bft) 94,74 %
29.06.2017 20:34 20,1 C 25,0 C 59 % 999,8 hPa 0,0 l/m 3,0 km/h (1 Bft) SW 236 0 min 0,000 mm 0,0 UV-I 31 W/m 11,8 C 20,1 C 6,4 km/h (2 Bft) 100,00 %
29.06.2017 20:36 20,1 C 25,0 C 60 % 999,8 hPa 0,0 l/m 3,2 km/h (1 Bft) SW 227 0 min 0,000 mm 0,0 UV-I 28 W/m 12,1 C 20,1 C 6,4 km/h (2 Bft) 96,00 %
29.06.2017 20:38 20,0 C 25,0 C 60 % 999,8 hPa 0,0 l/m 2,6 km/h (1 Bft) SW 224 0 min 0,000 mm 0,0 UV-I 24 W/m 12,0 C 20,0 C 6,4 km/h (2 Bft) 96,00 %
29.06.2017 20:40 19,9 C 25,0 C 60 % 999,9 hPa 0,0 l/m 3,5 km/h (1 Bft) SW 224 0 min 0,000 mm 0,0 UV-I 21 W/m 11,9 C 19,9 C 4,8 km/h (1 Bft) 94,74 %
29.06.2017 20:42 19,9 C 25,0 C 61 % 999,9 hPa 0,0 l/m 1,8 km/h (1 Bft) SW 224 0 min 0,000 mm 0,0 UV-I 18 W/m 12,2 C 19,9 C 3,2 km/h (1 Bft) 98,21 %
29.06.2017 20:44 19,8 C 25,0 C 62 % 1000,0 hPa 0,0 l/m 1,0 km/h (0 Bft) SW 224 0 min 0,000 mm 0,0 UV-I 17 W/m 12,3 C 19,8 C 3,2 km/h (1 Bft) 97,56 %
29.06.2017 20:46 19,8 C 25,0 C 62 % 1000,0 hPa 0,0 l/m 2,0 km/h (1 Bft) SW 224 0 min 0,000 mm 0,0 UV-I 15 W/m 12,3 C 19,8 C 3,2 km/h (1 Bft) 95,83 %
29.06.2017 20:48 19,7 C 25,0 C 62 % 1000,0 hPa 0,0 l/m 1,9 km/h (1 Bft) SW 224 0 min 0,000 mm 0,0 UV-I 13 W/m 12,2 C 19,7 C 4,8 km/h (1 Bft) 98,08 %
29.06.2017 20:50 19,7 C 25,0 C 63 % 1000,0 hPa 0,0 l/m 1,4 km/h (1 Bft) SW 224 0 min 0,000 mm 0,0 UV-I 11 W/m 12,5 C 19,7 C 3,2 km/h (1 Bft) 91,67 %
29.06.2017 20:52 19,6 C 25,0 C 63 % 999,9 hPa 0,0 l/m 1,2 km/h (1 Bft) SW 224 0 min 0,000 mm 0,0 UV-I 11 W/m 12,4 C 19,6 C 3,2 km/h (1 Bft) 96,92 %
29.06.2017 20:54 19,6 C 24,4 C 63 % 1000,0 hPa 0,0 l/m 0,2 km/h (0 Bft) SW 224 2 min 0,000 mm 0,0 UV-I 11 W/m 12,4 C 19,6 C 1,6 km/h (1 Bft) 94,00 %
29.06.2017 20:56 19,5 C 25,0 C 63 % 999,9 hPa 0,0 l/m 1,8 km/h (1 Bft) SW 219 0 min 0,000 mm 0,0 UV-I 9 W/m 12,3 C 19,5 C 3,2 km/h (1 Bft) 97,56 %
29.06.2017 20:58 19,5 C 24,4 C 63 % 1000,0 hPa 0,0 l/m 2,4 km/h (1 Bft) SW 219 0 min 0,000 mm 0,0 UV-I 9 W/m 12,3 C 19,5 C 3,2 km/h (1 Bft) 96,23 %
29.06.2017 21:00 19,4 C 24,4 C 63 % 1000,0 hPa 0,0 l/m 2,1 km/h (1 Bft) SW 219 0 min 0,000 mm 0,0 UV-I 9 W/m 12,2 C 19,4 C 3,2 km/h (1 Bft) 94,74 %
29.06.2017 21:02 19,4 C 24,4 C 63 % 1000,1 hPa 0,0 l/m 0,6 km/h (0 Bft) SW 219 0 min 0,051 mm 0,0 UV-I 8 W/m 12,2 C 19,4 C 3,2 km/h (1 Bft) 98,11 %
29.06.2017 21:04 19,4 C 24,4 C 64 % 1000,1 hPa 0,0 l/m 2,3 km/h (1 Bft) SW 219 0 min 0,000 mm 0,0 UV-I 7 W/m 12,4 C 19,4 C 3,2 km/h (1 Bft) 95,74 %
29.06.2017 21:06 19,3 C 24,4 C 64 % 1000,2 hPa 0,0 l/m 2,2 km/h (1 Bft) SW 219 0 min 0,000 mm 0,0 UV-I 7 W/m 12,3 C 19,3 C 3,2 km/h (1 Bft) 96,00 %
29.06.2017 21:08 19,3 C 24,4 C 66 % 1000,2 hPa 0,0 l/m 3,2 km/h (1 Bft) SW 219 0 min 0,000 mm 0,0 UV-I 7 W/m 12,8 C 19,3 C 6,4 km/h (2 Bft) 100,00 %
29.06.2017 21:10 19,2 C 24,4 C 66 % 1000,2 hPa 0,0 l/m 2,7 km/h (1 Bft) SW 219 0 min 0,000 mm 0,0 UV-I 5 W/m 12,7 C 19,2 C 3,2 km/h (1 Bft) 93,62 %
29.06.2017 21:12 19,1 C 24,4 C 67 % 1000,2 hPa 0,0 l/m 5,1 km/h (1 Bft) SW 221 0 min 0,000 mm 0,0 UV-I 5 W/m 12,8 C 19,1 C 8,0 km/h (2 Bft) 97,87 %
29.06.2017 21:14 18,9 C 24,4 C 67 % 1000,3 hPa 0,0 l/m 6,0 km/h (2 Bft) SW 215 0 min 0,000 mm 0,0 UV-I 5 W/m 12,6 C 18,9 C 8,0 km/h (2 Bft) 100,00 %
29.06.2017 21:16 18,8 C 24,4 C 67 % 1000,3 hPa 0,0 l/m 6,4 km/h (2 Bft) SW 224 0 min 0,000 mm 0,0 UV-I 5 W/m 12,5 C 18,8 C 9,7 km/h (2 Bft) 100,00 %
29.06.2017 21:18 18,8 C 24,4 C 67 % 1000,4 hPa 0,0 l/m 6,0 km/h (2 Bft) SW 235 0 min 0,000 mm 0,0 UV-I 5 W/m 12,5 C 18,8 C 8,0 km/h (2 Bft) 97,37 %
29.06.2017 21:20 18,7 C 24,4 C 67 % 1000,5 hPa 0,0 l/m 7,3 km/h (2 Bft) SW 226 0 min 0,000 mm 0,0 UV-I 5 W/m 12,4 C 18,3 C 9,7 km/h (2 Bft) 97,87 %
29.06.2017 21:22 18,6 C 24,4 C 67 % 1000,5 hPa 0,0 l/m 7,4 km/h (2 Bft) SW 228 0 min 0,000 mm 0,0 UV-I 3 W/m 12,3 C 18,1 C 11,3 km/h (2 Bft) 98,00 %
29.06.2017 21:24 18,6 C 24,4 C 67 % 1000,5 hPa 0,0 l/m 7,6 km/h (2 Bft) W-SW 240 0 min 0,000 mm 0,0 UV-I 0 W/m 12,3 C 18,1 C 12,9 km/h (3 Bft) 100,00 %
29.06.2017 21:26 18,6 C 24,4 C 68 % 1000,6 hPa 0,0 l/m 6,2 km/h (2 Bft) SW 218 0 min 0,000 mm 0,0 UV-I 0 W/m 12,6 C 18,6 C 9,7 km/h (2 Bft) 98,00 %
29.06.2017 21:28 18,5 C 24,4 C 68 % 1000,7 hPa 0,0 l/m 6,8 km/h (2 Bft) SW 214 0 min 0,000 mm 0,0 UV-I 0 W/m 12,5 C 18,3 C 11,3 km/h (2 Bft) 100,00 %
29.06.2017 21:30 18,4 C 24,4 C 68 % 1000,8 hPa 0,0 l/m 5,8 km/h (2 Bft) SW 219 0 min 0,000 mm 0,0 UV-I 0 W/m 12,4 C 18,4 C 8,0 km/h (2 Bft) 100,00 %
29.06.2017 21:32 18,3 C 24,4 C 69 % 1000,8 hPa 0,0 l/m 6,4 km/h (2 Bft) S 190 0 min 0,000 mm 0,0 UV-I 0 W/m 12,5 C 18,3 C 8,0 km/h (2 Bft) 100,00 %
29.06.2017 21:34 18,3 C 24,4 C 68 % 1000,8 hPa 0,0 l/m 6,7 km/h (2 Bft) S-SW 196 0 min 0,000 mm 0,0 UV-I 0 W/m 12,3 C 18,2 C 11,3 km/h (2 Bft) 100,00 %
29.06.2017 21:36 18,3 C 24,4 C 69 % 1000,9 hPa 0,0 l/m 5,8 km/h (2 Bft) SW 227 0 min 0,000 mm 0,0 UV-I 0 W/m 12,5 C 18,3 C 8,0 km/h (2 Bft) 100,00 %
29.06.2017 21:38 18,3 C 24,4 C 69 % 1000,9 hPa 0,0 l/m 6,3 km/h (2 Bft) SW 233 0 min 0,000 mm 0,0 UV-I 0 W/m 12,5 C 18,3 C 8,0 km/h (2 Bft) 100,00 %
29.06.2017 21:40 18,2 C 24,4 C 69 % 1000,9 hPa 0,0 l/m 5,9 km/h (2 Bft) SW 234 0 min 0,000 mm 0,0 UV-I 0 W/m 12,4 C 18,2 C 9,7 km/h (2 Bft) 100,00 %
29.06.2017 21:42 18,2 C 24,4 C 70 % 1001,0 hPa 0,0 l/m 5,2 km/h (1 Bft) SW 234 0 min 0,000 mm 0,0 UV-I 0 W/m 12,6 C 18,2 C 8,0 km/h (2 Bft) 100,00 %
29.06.2017 21:44 18,1 C 24,4 C 70 % 1001,0 hPa 0,0 l/m 5,0 km/h (1 Bft) SW 227 0 min 0,000 mm 0,0 UV-I 0 W/m 12,5 C 18,1 C 6,4 km/h (2 Bft) 98,21 %
29.06.2017 21:46 18,0 C 24,4 C 70 % 1001,0 hPa 0,0 l/m 5,5 km/h (1 Bft) W-SW 257 0 min 0,000 mm 0,0 UV-I 0 W/m 12,4 C 18,0 C 11,3 km/h (2 Bft) 97,37 %
29.06.2017 21:48 18,0 C 24,4 C 69 % 1001,2 hPa 0,0 l/m 8,0 km/h (2 Bft) W-SW 246 0 min 0,000 mm 0,0 UV-I 0 W/m 12,2 C 17,3 C 12,9 km/h (3 Bft) 100,00 %
29.06.2017 21:50 18,1 C 24,4 C 69 % 1001,2 hPa 0,0 l/m 8,3 km/h (2 Bft) SW 232 0 min 0,000 mm 0,0 UV-I 0 W/m 12,3 C 17,2 C 12,9 km/h (3 Bft) 100,00 %
29.06.2017 21:52 18,1 C 24,4 C 68 % 1001,3 hPa 0,0 l/m 8,5 km/h (2 Bft) W-SW 250 0 min 0,000 mm 0,0 UV-I 0 W/m 12,1 C 17,1 C 12,9 km/h (3 Bft) 97,87 %
29.06.2017 21:54 18,2 C 24,4 C 68 % 1001,3 hPa 0,0 l/m 8,8 km/h (2 Bft) W-SW 237 0 min 0,000 mm 0,0 UV-I 0 W/m 12,2 C 17,1 C 14,5 km/h (3 Bft) 100,00 %
29.06.2017 21:56 18,2 C 24,4 C 68 % 1001,4 hPa 0,0 l/m 10,8 km/h (2 Bft) W-SW 239 0 min 0,000 mm 0,0 UV-I 0 W/m 12,2 C 16,4 C 17,7 km/h (3 Bft) 98,00 %
29.06.2017 21:58 18,3 C 24,4 C 68 % 1001,5 hPa 0,0 l/m 12,8 km/h (3 Bft) W-SW 237 0 min 0,000 mm 0,0 UV-I 0 W/m 12,3 C 15,8 C 19,3 km/h (3 Bft) 100,00 %
29.06.2017 22:00 18,3 C 24,4 C 67 % 1001,5 hPa 0,0 l/m 13,6 km/h (3 Bft) SW 233 0 min 0,000 mm 0,0 UV-I 0 W/m 12,1 C 15,6 C 20,9 km/h (4 Bft) 98,08 %
29.06.2017 22:02 18,4 C 24,4 C 67 % 1001,6 hPa 0,0 l/m 14,0 km/h (3 Bft) W 261 0 min 0,025 mm 0,0 UV-I 0 W/m 12,2 C 15,6 C 17,7 km/h (3 Bft) 96,23 %
29.06.2017 22:04 18,5 C 24,4 C 67 % 1001,7 hPa 0,0 l/m 14,9 km/h (3 Bft) W 262 0 min 0,000 mm 0,0 UV-I 0 W/m 12,3 C 15,5 C 19,3 km/h (3 Bft) 100,00 %
29.06.2017 22:06 18,5 C 24,4 C 67 % 1001,7 hPa 0,0 l/m 12,7 km/h (3 Bft) W-SW 248 0 min 0,000 mm 0,0 UV-I 0 W/m 12,3 C 16,1 C 16,1 km/h (3 Bft) 100,00 %
29.06.2017 22:08 18,6 C 24,4 C 67 % 1001,8 hPa 0,0 l/m 12,1 km/h (2 Bft) W-SW 256 0 min 0,000 mm 0,0 UV-I 0 W/m 12,3 C 16,4 C 14,5 km/h (3 Bft) 97,87 %
29.06.2017 22:10 18,6 C 24,4 C 67 % 1001,8 hPa 0,0 l/m 10,5 km/h (2 Bft) W-SW 258 0 min 0,000 mm 0,0 UV-I 0 W/m 12,3 C 16,9 C 12,9 km/h (3 Bft) 94,12 %
29.06.2017 22:12 18,6 C 24,4 C 68 % 1001,8 hPa 0,0 l/m 10,7 km/h (2 Bft) W-SW 254 0 min 0,000 mm 0,0 UV-I 0 W/m 12,6 C 16,8 C 14,5 km/h (3 Bft) 100,00 %
29.06.2017 22:14 18,6 C 24,4 C 68 % 1001,9 hPa 0,0 l/m 11,0 km/h (2 Bft) S-SW 211 0 min 0,000 mm 0,0 UV-I 0 W/m 12,6 C 16,7 C 19,3 km/h (3 Bft) 97,56 %
29.06.2017 22:16 18,6 C 24,4 C 68 % 1001,9 hPa 0,0 l/m 12,4 km/h (3 Bft) W-SW 254 0 min 0,000 mm 0,0 UV-I 0 W/m 12,6 C 16,3 C 16,1 km/h (3 Bft) 98,00 %
29.06.2017 22:18 18,6 C 24,4 C 68 % 1001,9 hPa 0,0 l/m 9,6 km/h (2 Bft) W-SW 252 0 min 0,000 mm 0,0 UV-I 0 W/m 12,6 C 17,2 C 14,5 km/h (3 Bft) 100,00 %
29.06.2017 22:20 18,6 C 24,4 C 68 % 1002,0 hPa 0,0 l/m 9,6 km/h (2 Bft) W-SW 256 0 min 0,000 mm 0,0 UV-I 0 W/m 12,6 C 17,2 C 17,7 km/h (3 Bft) 100,00 %
29.06.2017 22:22 18,6 C 24,4 C 69 % 1002,1 hPa 0,0 l/m 14,6 km/h (3 Bft) W 262 0 min 0,000 mm 0,0 UV-I 0 W/m 12,8 C 15,7 C 19,3 km/h (3 Bft) 100,00 %
29.06.2017 22:24 18,6 C 24,4 C 69 % 1002,1 hPa 0,0 l/m 12,3 km/h (3 Bft) W-SW 249 0 min 0,000 mm 0,0 UV-I 0 W/m 12,8 C 16,3 C 16,1 km/h (3 Bft) 100,00 %
29.06.2017 22:26 18,6 C 24,4 C 69 % 1002,2 hPa 0,0 l/m 11,3 km/h (2 Bft) W-SW 241 0 min 0,000 mm 0,0 UV-I 0 W/m 12,8 C 16,6 C 16,1 km/h (3 Bft) 98,11 %
29.06.2017 22:28 18,6 C 24,4 C 69 % 1002,3 hPa 0,0 l/m 6,7 km/h (2 Bft) W-SW 241 0 min 0,000 mm 0,0 UV-I 0 W/m 12,8 C 18,5 C 11,3 km/h (2 Bft) 100,00 %
29.06.2017 22:30 18,6 C 24,4 C 68 % 1002,4 hPa 0,0 l/m 13,5 km/h (3 Bft) W-SW 247 0 min 0,000 mm 0,0 UV-I 0 W/m 12,6 C 16,0 C 25,7 km/h (4 Bft) 98,11 %
29.06.2017 22:32 18,7 C 24,4 C 67 % 1002,4 hPa 0,0 l/m 15,2 km/h (3 Bft) W 265 0 min 0,000 mm 0,0 UV-I 0 W/m 12,4 C 15,6 C 24,1 km/h (4 Bft) 100,00 %
29.06.2017 22:34 18,7 C 24,4 C 67 % 1002,5 hPa 0,0 l/m 12,3 km/h (3 Bft) W-NW 284 0 min 0,000 mm 0,0 UV-I 0 W/m 12,4 C 16,4 C 24,1 km/h (4 Bft) 96,43 %
29.06.2017 22:36 18,7 C 24,4 C 67 % 1002,6 hPa 0,0 l/m 10,3 km/h (2 Bft) W 274 0 min 0,000 mm 0,0 UV-I 0 W/m 12,4 C 17,1 C 16,1 km/h (3 Bft) 95,12 %
29.06.2017 22:38 18,7 C 24,4 C 67 % 1002,7 hPa 0,0 l/m 11,1 km/h (2 Bft) SW 234 0 min 0,000 mm 0,0 UV-I 0 W/m 12,4 C 16,8 C 16,1 km/h (3 Bft) 94,34 %
29.06.2017 22:40 18,7 C 24,4 C 67 % 1002,7 hPa 0,0 l/m 14,7 km/h (3 Bft) W-NW 291 0 min 0,000 mm 0,0 UV-I 0 W/m 12,4 C 15,8 C 37,0 km/h (5 Bft) 94,34 %
29.06.2017 22:42 18,7 C 24,4 C 67 % 1002,7 hPa 0,0 l/m 9,8 km/h (2 Bft) W 279 0 min 0,000 mm 0,0 UV-I 0 W/m 12,4 C 17,3 C 14,5 km/h (3 Bft) 94,87 %
29.06.2017 22:44 18,7 C 24,4 C 66 % 1002,8 hPa 0,0 l/m 11,4 km/h (2 Bft) SW 236 0 min 0,000 mm 0,0 UV-I 0 W/m 12,2 C 16,7 C 19,3 km/h (3 Bft) 96,15 %
29.06.2017 22:46 18,7 C 24,4 C 66 % 1002,9 hPa 0,0 l/m 10,7 km/h (2 Bft) SW 229 0 min 0,000 mm 0,0 UV-I 0 W/m 12,2 C 17,0 C 16,1 km/h (3 Bft) 97,44 %
29.06.2017 22:48 18,6 C 24,4 C 66 % 1002,9 hPa 0,0 l/m 14,7 km/h (3 Bft) W 260 0 min 0,000 mm 0,0 UV-I 0 W/m 12,1 C 15,6 C 19,3 km/h (3 Bft) 96,23 %
29.06.2017 22:50 18,6 C 24,4 C 65 % 1002,9 hPa 0,0 l/m 16,8 km/h (3 Bft) SW 232 0 min 0,000 mm 0,0 UV-I 0 W/m 11,9 C 15,1 C 32,2 km/h (5 Bft) 97,87 %
29.06.2017 22:52 18,5 C 24,4 C 65 % 1002,9 hPa 0,0 l/m 15,9 km/h (3 Bft) W 265 0 min 0,000 mm 0,0 UV-I 0 W/m 11,8 C 15,2 C 25,7 km/h (4 Bft) 95,12 %
29.06.2017 22:54 18,4 C 24,4 C 65 % 1002,9 hPa 0,0 l/m 15,5 km/h (3 Bft) W-SW 240 0 min 0,000 mm 0,0 UV-I 0 W/m 11,7 C 15,2 C 24,1 km/h (4 Bft) 96,23 %
29.06.2017 22:56 18,4 C 24,4 C 65 % 1002,9 hPa 0,0 l/m 12,7 km/h (3 Bft) SW 227 0 min 0,000 mm 0,0 UV-I 0 W/m 11,7 C 16,0 C 20,9 km/h (4 Bft) 94,74 %
29.06.2017 22:58 18,3 C 24,4 C 64 % 1002,9 hPa 0,0 l/m 13,6 km/h (3 Bft) W-SW 250 0 min 0,000 mm 0,0 UV-I 0 W/m 11,4 C 15,6 C 20,9 km/h (4 Bft) 95,74 %
29.06.2017 23:00 18,3 C 24,4 C 65 % 1003,0 hPa 0,0 l/m 13,9 km/h (3 Bft) W 277 0 min 0,000 mm 0,0 UV-I 0 W/m 11,6 C 15,5 C 24,1 km/h (4 Bft) 94,12 %
29.06.2017 23:02 18,2 C 24,4 C 65 % 1003,0 hPa 0,0 l/m 11,8 km/h (2 Bft) SW 219 0 min 0,051 mm 0,0 UV-I 0 W/m 11,5 C 16,0 C 20,9 km/h (4 Bft) 95,45 %
29.06.2017 23:04 18,2 C 24,4 C 65 % 1003,1 hPa 0,0 l/m 16,6 km/h (3 Bft) W-SW 245 0 min 0,000 mm 0,0 UV-I 0 W/m 11,5 C 14,7 C 22,5 km/h (4 Bft) 97,87 %
29.06.2017 23:06 18,1 C 24,4 C 66 % 1003,1 hPa 0,0 l/m 17,3 km/h (3 Bft) W-SW 246 0 min 0,000 mm 0,0 UV-I 0 W/m 11,6 C 14,4 C 24,1 km/h (4 Bft) 95,45 %
29.06.2017 23:08 18,1 C 24,4 C 65 % 1003,3 hPa 0,0 l/m 14,0 km/h (3 Bft) SW 235 0 min 0,000 mm 0,0 UV-I 0 W/m 11,4 C 15,2 C 24,1 km/h (4 Bft) 96,61 %
29.06.2017 23:10 18,0 C 24,4 C 66 % 1003,3 hPa 0,0 l/m 13,0 km/h (3 Bft) W-SW 253 0 min 0,000 mm 0,0 UV-I 0 W/m 11,6 C 15,4 C 19,3 km/h (3 Bft) 97,37 %
29.06.2017 23:12 18,0 C 24,4 C 66 % 1003,4 hPa 0,0 l/m 16,3 km/h (3 Bft) W-NW 284 0 min 0,000 mm 0,0 UV-I 0 W/m 11,6 C 14,5 C 22,5 km/h (4 Bft) 98,21 %
29.06.2017 23:14 17,9 C 24,4 C 66 % 1003,4 hPa 0,0 l/m 12,3 km/h (3 Bft) SW 234 0 min 0,000 mm 0,0 UV-I 0 W/m 11,5 C 15,5 C 20,9 km/h (4 Bft) 95,12 %
29.06.2017 23:16 17,9 C 24,4 C 66 % 1003,5 hPa 0,0 l/m 16,3 km/h (3 Bft) SW 215 0 min 0,000 mm 0,0 UV-I 0 W/m 11,5 C 14,4 C 25,7 km/h (4 Bft) 96,00 %
29.06.2017 23:18 17,9 C 24,4 C 66 % 1003,5 hPa 0,0 l/m 14,3 km/h (3 Bft) W-SW 239 0 min 0,000 mm 0,0 UV-I 0 W/m 11,5 C 14,9 C 19,3 km/h (3 Bft) 94,00 %
29.06.2017 23:20 17,9 C 24,4 C 66 % 1003,5 hPa 0,0 l/m 14,3 km/h (3 Bft) W-SW 257 0 min 0,000 mm 0,0 UV-I 0 W/m 11,5 C 14,9 C 19,3 km/h (3 Bft) 95,12 %
29.06.2017 23:22 17,9 C 24,4 C 66 % 1003,5 hPa 0,0 l/m 12,2 km/h (2 Bft) W 271 0 min 0,000 mm 0,0 UV-I 0 W/m 11,5 C 15,5 C 17,7 km/h (3 Bft) 98,11 %
29.06.2017 23:24 17,9 C 24,4 C 66 % 1003,5 hPa 0,0 l/m 19,4 km/h (3 Bft) SW 219 0 min 0,000 mm 0,0 UV-I 0 W/m 11,5 C 13,6 C 33,8 km/h (5 Bft) 95,24 %
29.06.2017 23:26 17,9 C 24,4 C 65 % 1003,5 hPa 0,0 l/m 21,8 km/h (4 Bft) W-SW 242 0 min 0,000 mm 0,0 UV-I 0 W/m 11,2 C 13,1 C 30,6 km/h (5 Bft) 95,12 %
29.06.2017 23:28 17,9 C 24,4 C 65 % 1003,6 hPa 0,0 l/m 15,6 km/h (3 Bft) SW 224 0 min 0,000 mm 0,0 UV-I 0 W/m 11,2 C 14,5 C 22,5 km/h (4 Bft) 94,34 %
29.06.2017 23:30 18,0 C 24,4 C 65 % 1003,6 hPa 0,0 l/m 20,1 km/h (4 Bft) W-SW 254 0 min 0,000 mm 0,0 UV-I 0 W/m 11,3 C 13,6 C 27,4 km/h (4 Bft) 97,87 %
29.06.2017 23:32 17,9 C 24,4 C 66 % 1003,6 hPa 0,0 l/m 28,0 km/h (4 Bft) SW 235 0 min 0,000 mm 0,0 UV-I 0 W/m 11,5 C 12,1 C 38,6 km/h (5 Bft) 94,29 %
29.06.2017 23:34 17,7 C 24,4 C 67 % 1003,6 hPa 0,0 l/m 29,0 km/h (5 Bft) SW 229 0 min 0,000 mm 0,0 UV-I 0 W/m 11,5 C 11,6 C 45,1 km/h (6 Bft) 96,88 %
29.06.2017 23:36 17,6 C 24,4 C 67 % 1003,7 hPa 0,0 l/m 26,5 km/h (4 Bft) S-SW 199 0 min 0,000 mm 0,0 UV-I 0 W/m 11,4 C 11,9 C 41,8 km/h (6 Bft) 97,14 %
29.06.2017 23:38 17,4 C 24,4 C 68 % 1003,8 hPa 0,0 l/m 21,3 km/h (4 Bft) SW 219 0 min 0,000 mm 0,0 UV-I 0 W/m 11,4 C 12,6 C 33,8 km/h (5 Bft) 96,43 %
29.06.2017 23:40 17,3 C 24,4 C 69 % 1003,8 hPa 0,0 l/m 21,2 km/h (4 Bft) W-SW 251 0 min 0,000 mm 0,0 UV-I 0 W/m 11,6 C 12,5 C 32,2 km/h (5 Bft) 97,37 %
29.06.2017 23:42 17,2 C 24,4 C 69 % 1003,8 hPa 0,0 l/m 19,3 km/h (3 Bft) W-SW 244 0 min 0,000 mm 0,0 UV-I 0 W/m 11,5 C 12,7 C 27,4 km/h (4 Bft) 98,21 %
29.06.2017 23:44 17,0 C 24,4 C 71 % 1003,9 hPa 0,0 l/m 15,4 km/h (3 Bft) SW 216 0 min 0,000 mm 0,0 UV-I 0 W/m 11,7 C 13,5 C 20,9 km/h (4 Bft) 97,73 %
29.06.2017 23:46 16,9 C 24,4 C 72 % 1003,8 hPa 0,0 l/m 10,6 km/h (2 Bft) SW 227 0 min 0,000 mm 0,0 UV-I 0 W/m 11,8 C 15,0 C 17,7 km/h (3 Bft) 97,73 %
29.06.2017 23:48 16,8 C 24,4 C 74 % 1003,9 hPa 0,0 l/m 14,1 km/h (3 Bft) W-SW 245 0 min 0,000 mm 0,0 UV-I 0 W/m 12,1 C 13,6 C 19,3 km/h (3 Bft) 97,87 %
29.06.2017 23:50 16,6 C 24,4 C 75 % 1003,9 hPa 0,0 l/m 13,9 km/h (3 Bft) SW 220 0 min 0,000 mm 0,0 UV-I 0 W/m 12,1 C 13,5 C 20,9 km/h (4 Bft) 96,23 %
29.06.2017 23:52 16,5 C 24,4 C 76 % 1003,9 hPa 0,0 l/m 11,1 km/h (2 Bft) SW 226 0 min 0,000 mm 0,0 UV-I 0 W/m 12,3 C 14,3 C 20,9 km/h (4 Bft) 97,37 %
29.06.2017 23:54 16,3 C 24,4 C 77 % 1003,9 hPa 0,0 l/m 12,2 km/h (2 Bft) W-SW 247 0 min 0,000 mm 0,0 UV-I 0 W/m 12,3 C 13,7 C 17,7 km/h (3 Bft) 94,34 %
29.06.2017 23:56 16,2 C 24,4 C 77 % 1003,9 hPa 0,0 l/m 11,5 km/h (2 Bft) SW 232 0 min 0,000 mm 0,0 UV-I 0 W/m 12,2 C 13,8 C 16,1 km/h (3 Bft) 97,56 %
29.06.2017 23:58 16,1 C 24,4 C 79 % 1003,9 hPa 0,0 l/m 11,8 km/h (2 Bft) W-SW 245 0 min 0,000 mm 0,0 UV-I 0 W/m 12,5 C 13,6 C 19,3 km/h (3 Bft) 96,23 %
_ Min-Zeit 23:58 08:26 16:58 03:14 - 00:36 - - - - - - 23:26 06:06 00:36 12:06
Minimum _ 16,1 C 24,4 C 51 % 992,1 hPa - 0,0 km/h (0 Bft) - - - - - - 11,2 C 11,5 C 0,0 km/h (0 Bft) 86,84 %
_ Max-Zeit 16:20 00:00 03:30 23:44 04:32 11:00 - - 06:18 12:02 12:36 14:20 04:08 16:20 11:36 00:42
Maximum _ 23,4 C 26,1 C 92 % 1003,9 hPa 0,2 l/m 41,8 km/h
W-SW (6 Bft)
- - 2 min 0,584 mm 7,4 UV-I 1142 W/m 15,4 C 23,4 C 56,3 km/h
W-SW (7 Bft)
100,00 %
Durchschnitt _ 19,1 C 25,1 C 71 % 997,2 hPa #0,4 l/m 12,9 km/h (3 Bft) W-SW - #5:04 h #4,115 mm 2,7 UV-I 299 W/m 13,4 C 16,9 C 20,7 km/h (4 Bft) 96,94 %